<?xml version="1.0" encoding="UTF-8" standalone="no" ?>
<gpx xmlns="http://www.topografix.com/GPX/1/1" xmlns:xsi="http://www.w3.org/2001/XMLSchema-instance" xsi:schemaLocation="http://www.topografix.com/GPX/1/1 http://www.topografix.com/GPX/1/1/gpx.xsd" version="1.1" creator="VisuGPX - https://www.visugpx.com">
  <metadata>
    <name>La Ciotat - Arène Cros - Le Liouquet - La Madrague</name>
    <desc><![CDATA[Vous rejoignez la Ciotat en passant par des petites routes passant au-dessus de Saint Cyr sur Mer, puis atteignez la Ciotat ou vous pourrez circuler sur une route surplombant la mer, Arène Cros. La crique du Liouquet sera l%u2019escale suivante. Enfin vous traversez les Lecques et ses plages de sable blanc, la Madrague avec sa plage et son petit port, et pour finir le retour vers la Cadière d%u2019Azur vous fera passer par la route de St Come circulant au milieu du vignoble.
Réalisé en Vélo électrique VarOuest E-Bike]]></desc>
  </metadata>
  <trk>
    <name><![CDATA[La Ciotat reine cros - le Liouquet - La Madrague]]></name>
    <trkseg>
      <trkpt lat="43.19569" lon="5.75749">
        <ele>133.39999389648</ele>
        <time>2016-04-20T12:22:20.000Z</time>
      </trkpt>
      <trkpt lat="43.19574" lon="5.75742">
        <ele>134.80000305176</ele>
        <time>2016-04-20T12:23:44.000Z</time>
      </trkpt>
      <trkpt lat="43.19571" lon="5.75745">
        <ele>134</ele>
        <time>2016-04-20T12:23:46.000Z</time>
      </trkpt>
      <trkpt lat="43.19559" lon="5.75756">
        <ele>130.80000305176</ele>
        <time>2016-04-20T12:23:51.000Z</time>
      </trkpt>
      <trkpt lat="43.19554" lon="5.75763">
        <ele>129</ele>
        <time>2016-04-20T12:23:55.000Z</time>
      </trkpt>
      <trkpt lat="43.19551" lon="5.75769">
        <ele>128.60000610352</ele>
        <time>2016-04-20T12:23:57.000Z</time>
      </trkpt>
      <trkpt lat="43.19546" lon="5.75773">
        <ele>128.19999694824</ele>
        <time>2016-04-20T12:23:59.000Z</time>
      </trkpt>
      <trkpt lat="43.19541" lon="5.7578">
        <ele>127.40000152588</ele>
        <time>2016-04-20T12:24:02.000Z</time>
      </trkpt>
      <trkpt lat="43.19539" lon="5.75782">
        <ele>127.19999694824</ele>
        <time>2016-04-20T12:24:03.000Z</time>
      </trkpt>
      <trkpt lat="43.19535" lon="5.75785">
        <ele>126.80000305176</ele>
        <time>2016-04-20T12:24:06.000Z</time>
      </trkpt>
      <trkpt lat="43.19535" lon="5.75787">
        <ele>126.59999847412</ele>
        <time>2016-04-20T12:24:08.000Z</time>
      </trkpt>
      <trkpt lat="43.19533" lon="5.75794">
        <ele>126.40000152588</ele>
        <time>2016-04-20T12:24:11.000Z</time>
      </trkpt>
      <trkpt lat="43.19534" lon="5.75799">
        <ele>126.40000152588</ele>
        <time>2016-04-20T12:24:12.000Z</time>
      </trkpt>
      <trkpt lat="43.19534" lon="5.75819">
        <ele>125.59999847412</ele>
        <time>2016-04-20T12:24:17.000Z</time>
      </trkpt>
      <trkpt lat="43.19533" lon="5.7582">
        <ele>125.40000152588</ele>
        <time>2016-04-20T12:24:18.000Z</time>
      </trkpt>
      <trkpt lat="43.19532" lon="5.75825">
        <ele>124.80000305176</ele>
        <time>2016-04-20T12:24:21.000Z</time>
      </trkpt>
      <trkpt lat="43.19531" lon="5.75827">
        <ele>124.80000305176</ele>
        <time>2016-04-20T12:24:22.000Z</time>
      </trkpt>
      <trkpt lat="43.19525" lon="5.75837">
        <ele>123.40000152588</ele>
        <time>2016-04-20T12:24:27.000Z</time>
      </trkpt>
      <trkpt lat="43.19517" lon="5.75851">
        <ele>121.80000305176</ele>
        <time>2016-04-20T12:24:30.000Z</time>
      </trkpt>
      <trkpt lat="43.19513" lon="5.75856">
        <ele>121</ele>
        <time>2016-04-20T12:24:31.000Z</time>
      </trkpt>
      <trkpt lat="43.19509" lon="5.75861">
        <ele>120.19999694824</ele>
        <time>2016-04-20T12:24:32.000Z</time>
      </trkpt>
      <trkpt lat="43.19506" lon="5.75868">
        <ele>119.19999694824</ele>
        <time>2016-04-20T12:24:33.000Z</time>
      </trkpt>
      <trkpt lat="43.19503" lon="5.75876">
        <ele>118.40000152588</ele>
        <time>2016-04-20T12:24:34.000Z</time>
      </trkpt>
      <trkpt lat="43.19497" lon="5.75889">
        <ele>116.40000152588</ele>
        <time>2016-04-20T12:24:36.000Z</time>
      </trkpt>
      <trkpt lat="43.1949" lon="5.75899">
        <ele>115</ele>
        <time>2016-04-20T12:24:38.000Z</time>
      </trkpt>
      <trkpt lat="43.19481" lon="5.75905">
        <ele>113.40000152588</ele>
        <time>2016-04-20T12:24:40.000Z</time>
      </trkpt>
      <trkpt lat="43.19471" lon="5.75903">
        <ele>111.40000152588</ele>
        <time>2016-04-20T12:24:42.000Z</time>
      </trkpt>
      <trkpt lat="43.19465" lon="5.75898">
        <ele>110.59999847412</ele>
        <time>2016-04-20T12:24:43.000Z</time>
      </trkpt>
      <trkpt lat="43.19461" lon="5.75893">
        <ele>109.80000305176</ele>
        <time>2016-04-20T12:24:44.000Z</time>
      </trkpt>
      <trkpt lat="43.19454" lon="5.75881">
        <ele>109.19999694824</ele>
        <time>2016-04-20T12:24:46.000Z</time>
      </trkpt>
      <trkpt lat="43.19454" lon="5.75874">
        <ele>109.80000305176</ele>
        <time>2016-04-20T12:24:47.000Z</time>
      </trkpt>
      <trkpt lat="43.19456" lon="5.7586">
        <ele>111.19999694824</ele>
        <time>2016-04-20T12:24:49.000Z</time>
      </trkpt>
      <trkpt lat="43.19456" lon="5.75853">
        <ele>112</ele>
        <time>2016-04-20T12:24:50.000Z</time>
      </trkpt>
      <trkpt lat="43.19457" lon="5.75839">
        <ele>113.40000152588</ele>
        <time>2016-04-20T12:24:52.000Z</time>
      </trkpt>
      <trkpt lat="43.19458" lon="5.75806">
        <ele>115.59999847412</ele>
        <time>2016-04-20T12:24:57.000Z</time>
      </trkpt>
      <trkpt lat="43.19461" lon="5.75789">
        <ele>116.40000152588</ele>
        <time>2016-04-20T12:25:00.000Z</time>
      </trkpt>
      <trkpt lat="43.19467" lon="5.75772">
        <ele>117.40000152588</ele>
        <time>2016-04-20T12:25:03.000Z</time>
      </trkpt>
      <trkpt lat="43.19471" lon="5.75762">
        <ele>118.19999694824</ele>
        <time>2016-04-20T12:25:05.000Z</time>
      </trkpt>
      <trkpt lat="43.19478" lon="5.75742">
        <ele>119.59999847412</ele>
        <time>2016-04-20T12:25:09.000Z</time>
      </trkpt>
      <trkpt lat="43.19482" lon="5.75724">
        <ele>120.40000152588</ele>
        <time>2016-04-20T12:25:12.000Z</time>
      </trkpt>
      <trkpt lat="43.19483" lon="5.75718">
        <ele>120.59999847412</ele>
        <time>2016-04-20T12:25:13.000Z</time>
      </trkpt>
      <trkpt lat="43.19483" lon="5.75707">
        <ele>121</ele>
        <time>2016-04-20T12:25:15.000Z</time>
      </trkpt>
      <trkpt lat="43.19482" lon="5.75696">
        <ele>121.19999694824</ele>
        <time>2016-04-20T12:25:17.000Z</time>
      </trkpt>
      <trkpt lat="43.1948" lon="5.75686">
        <ele>121.19999694824</ele>
        <time>2016-04-20T12:25:19.000Z</time>
      </trkpt>
      <trkpt lat="43.19476" lon="5.75666">
        <ele>121.19999694824</ele>
        <time>2016-04-20T12:25:23.000Z</time>
      </trkpt>
      <trkpt lat="43.19475" lon="5.75661">
        <ele>121.19999694824</ele>
        <time>2016-04-20T12:25:24.000Z</time>
      </trkpt>
      <trkpt lat="43.19472" lon="5.75632">
        <ele>121.40000152588</ele>
        <time>2016-04-20T12:25:30.000Z</time>
      </trkpt>
      <trkpt lat="43.19474" lon="5.75627">
        <ele>121.80000305176</ele>
        <time>2016-04-20T12:25:31.000Z</time>
      </trkpt>
      <trkpt lat="43.19481" lon="5.75605">
        <ele>123.40000152588</ele>
        <time>2016-04-20T12:25:36.000Z</time>
      </trkpt>
      <trkpt lat="43.19485" lon="5.75597">
        <ele>124.19999694824</ele>
        <time>2016-04-20T12:25:38.000Z</time>
      </trkpt>
      <trkpt lat="43.19491" lon="5.75585">
        <ele>125.40000152588</ele>
        <time>2016-04-20T12:25:41.000Z</time>
      </trkpt>
      <trkpt lat="43.195" lon="5.75564">
        <ele>127</ele>
        <time>2016-04-20T12:25:46.000Z</time>
      </trkpt>
      <trkpt lat="43.19502" lon="5.75556">
        <ele>127.59999847412</ele>
        <time>2016-04-20T12:25:48.000Z</time>
      </trkpt>
      <trkpt lat="43.19506" lon="5.75537">
        <ele>128.60000610352</ele>
        <time>2016-04-20T12:25:52.000Z</time>
      </trkpt>
      <trkpt lat="43.19507" lon="5.75527">
        <ele>128.80000305176</ele>
        <time>2016-04-20T12:25:54.000Z</time>
      </trkpt>
      <trkpt lat="43.19509" lon="5.75506">
        <ele>129.19999694824</ele>
        <time>2016-04-20T12:25:58.000Z</time>
      </trkpt>
      <trkpt lat="43.19512" lon="5.75476">
        <ele>130</ele>
        <time>2016-04-20T12:26:04.000Z</time>
      </trkpt>
      <trkpt lat="43.19512" lon="5.75471">
        <ele>130.19999694824</ele>
        <time>2016-04-20T12:26:05.000Z</time>
      </trkpt>
      <trkpt lat="43.19515" lon="5.75446">
        <ele>132</ele>
        <time>2016-04-20T12:26:10.000Z</time>
      </trkpt>
      <trkpt lat="43.19518" lon="5.75426">
        <ele>133.39999389648</ele>
        <time>2016-04-20T12:26:14.000Z</time>
      </trkpt>
      <trkpt lat="43.19521" lon="5.754">
        <ele>135.19999694824</ele>
        <time>2016-04-20T12:26:19.000Z</time>
      </trkpt>
      <trkpt lat="43.19525" lon="5.75375">
        <ele>136.39999389648</ele>
        <time>2016-04-20T12:26:24.000Z</time>
      </trkpt>
      <trkpt lat="43.19525" lon="5.75366">
        <ele>136.19999694824</ele>
        <time>2016-04-20T12:26:26.000Z</time>
      </trkpt>
      <trkpt lat="43.19527" lon="5.75352">
        <ele>136.60000610352</ele>
        <time>2016-04-20T12:26:29.000Z</time>
      </trkpt>
      <trkpt lat="43.19528" lon="5.75338">
        <ele>136.60000610352</ele>
        <time>2016-04-20T12:26:32.000Z</time>
      </trkpt>
      <trkpt lat="43.19529" lon="5.75314">
        <ele>136.80000305176</ele>
        <time>2016-04-20T12:26:37.000Z</time>
      </trkpt>
      <trkpt lat="43.1953" lon="5.75304">
        <ele>137.19999694824</ele>
        <time>2016-04-20T12:26:39.000Z</time>
      </trkpt>
      <trkpt lat="43.19533" lon="5.75281">
        <ele>137.39999389648</ele>
        <time>2016-04-20T12:26:44.000Z</time>
      </trkpt>
      <trkpt lat="43.19535" lon="5.75267">
        <ele>137.39999389648</ele>
        <time>2016-04-20T12:26:47.000Z</time>
      </trkpt>
      <trkpt lat="43.19537" lon="5.75254">
        <ele>137.60000610352</ele>
        <time>2016-04-20T12:26:50.000Z</time>
      </trkpt>
      <trkpt lat="43.19541" lon="5.75237">
        <ele>138.39999389648</ele>
        <time>2016-04-20T12:26:54.000Z</time>
      </trkpt>
      <trkpt lat="43.19542" lon="5.75209">
        <ele>139.19999694824</ele>
        <time>2016-04-20T12:27:00.000Z</time>
      </trkpt>
      <trkpt lat="43.19543" lon="5.75205">
        <ele>139.39999389648</ele>
        <time>2016-04-20T12:27:01.000Z</time>
      </trkpt>
      <trkpt lat="43.19552" lon="5.75193">
        <ele>142</ele>
        <time>2016-04-20T12:27:05.000Z</time>
      </trkpt>
      <trkpt lat="43.19555" lon="5.75194">
        <ele>142.80000305176</ele>
        <time>2016-04-20T12:27:06.000Z</time>
      </trkpt>
      <trkpt lat="43.19561" lon="5.75198">
        <ele>144.39999389648</ele>
        <time>2016-04-20T12:27:08.000Z</time>
      </trkpt>
      <trkpt lat="43.19564" lon="5.75206">
        <ele>145</ele>
        <time>2016-04-20T12:27:10.000Z</time>
      </trkpt>
      <trkpt lat="43.19565" lon="5.75214">
        <ele>145.19999694824</ele>
        <time>2016-04-20T12:27:12.000Z</time>
      </trkpt>
      <trkpt lat="43.19566" lon="5.75218">
        <ele>145.39999389648</ele>
        <time>2016-04-20T12:27:13.000Z</time>
      </trkpt>
      <trkpt lat="43.19567" lon="5.75225">
        <ele>145.39999389648</ele>
        <time>2016-04-20T12:27:15.000Z</time>
      </trkpt>
      <trkpt lat="43.19566" lon="5.75238">
        <ele>145.19999694824</ele>
        <time>2016-04-20T12:27:18.000Z</time>
      </trkpt>
      <trkpt lat="43.19566" lon="5.75242">
        <ele>145.19999694824</ele>
        <time>2016-04-20T12:27:19.000Z</time>
      </trkpt>
      <trkpt lat="43.19568" lon="5.75261">
        <ele>145.39999389648</ele>
        <time>2016-04-20T12:27:23.000Z</time>
      </trkpt>
      <trkpt lat="43.19569" lon="5.7527">
        <ele>145.39999389648</ele>
        <time>2016-04-20T12:27:25.000Z</time>
      </trkpt>
      <trkpt lat="43.19571" lon="5.75283">
        <ele>146</ele>
        <time>2016-04-20T12:27:28.000Z</time>
      </trkpt>
      <trkpt lat="43.19572" lon="5.75306">
        <ele>146.60000610352</ele>
        <time>2016-04-20T12:27:33.000Z</time>
      </trkpt>
      <trkpt lat="43.19572" lon="5.75311">
        <ele>146.60000610352</ele>
        <time>2016-04-20T12:27:34.000Z</time>
      </trkpt>
      <trkpt lat="43.19574" lon="5.75335">
        <ele>146.60000610352</ele>
        <time>2016-04-20T12:27:39.000Z</time>
      </trkpt>
      <trkpt lat="43.19576" lon="5.75345">
        <ele>146.80000305176</ele>
        <time>2016-04-20T12:27:41.000Z</time>
      </trkpt>
      <trkpt lat="43.19581" lon="5.75356">
        <ele>147.60000610352</ele>
        <time>2016-04-20T12:27:44.000Z</time>
      </trkpt>
      <trkpt lat="43.19588" lon="5.75365">
        <ele>149</ele>
        <time>2016-04-20T12:27:47.000Z</time>
      </trkpt>
      <trkpt lat="43.19595" lon="5.75373">
        <ele>150.39999389648</ele>
        <time>2016-04-20T12:27:51.000Z</time>
      </trkpt>
      <trkpt lat="43.19598" lon="5.75377">
        <ele>151</ele>
        <time>2016-04-20T12:27:53.000Z</time>
      </trkpt>
      <trkpt lat="43.19608" lon="5.75385">
        <ele>152.80000305176</ele>
        <time>2016-04-20T12:27:58.000Z</time>
      </trkpt>
      <trkpt lat="43.1961" lon="5.75388">
        <ele>153.19999694824</ele>
        <time>2016-04-20T12:27:59.000Z</time>
      </trkpt>
      <trkpt lat="43.1962" lon="5.75406">
        <ele>155.60000610352</ele>
        <time>2016-04-20T12:28:04.000Z</time>
      </trkpt>
      <trkpt lat="43.19621" lon="5.75409">
        <ele>155.80000305176</ele>
        <time>2016-04-20T12:28:05.000Z</time>
      </trkpt>
      <trkpt lat="43.19628" lon="5.75412">
        <ele>157.39999389648</ele>
        <time>2016-04-20T12:31:31.000Z</time>
      </trkpt>
      <trkpt lat="43.1963" lon="5.75417">
        <ele>158</ele>
        <time>2016-04-20T12:31:34.000Z</time>
      </trkpt>
      <trkpt lat="43.19631" lon="5.75419">
        <ele>158.19999694824</ele>
        <time>2016-04-20T12:31:35.000Z</time>
      </trkpt>
      <trkpt lat="43.19632" lon="5.75426">
        <ele>158.60000610352</ele>
        <time>2016-04-20T12:31:39.000Z</time>
      </trkpt>
      <trkpt lat="43.19633" lon="5.75437">
        <ele>158</ele>
        <time>2016-04-20T12:34:38.000Z</time>
      </trkpt>
      <trkpt lat="43.19632" lon="5.7544">
        <ele>157.60000610352</ele>
        <time>2016-04-20T12:34:39.000Z</time>
      </trkpt>
      <trkpt lat="43.19629" lon="5.75453">
        <ele>156.39999389648</ele>
        <time>2016-04-20T12:34:42.000Z</time>
      </trkpt>
      <trkpt lat="43.19628" lon="5.75463">
        <ele>155.60000610352</ele>
        <time>2016-04-20T12:34:44.000Z</time>
      </trkpt>
      <trkpt lat="43.19627" lon="5.75492">
        <ele>154</ele>
        <time>2016-04-20T12:34:49.000Z</time>
      </trkpt>
      <trkpt lat="43.19625" lon="5.75511">
        <ele>153.19999694824</ele>
        <time>2016-04-20T12:34:52.000Z</time>
      </trkpt>
      <trkpt lat="43.19622" lon="5.75537">
        <ele>153</ele>
        <time>2016-04-20T12:34:56.000Z</time>
      </trkpt>
      <trkpt lat="43.19622" lon="5.75547">
        <ele>153.19999694824</ele>
        <time>2016-04-20T12:34:58.000Z</time>
      </trkpt>
      <trkpt lat="43.19625" lon="5.75559">
        <ele>153.39999389648</ele>
        <time>2016-04-20T12:35:01.000Z</time>
      </trkpt>
      <trkpt lat="43.19633" lon="5.75591">
        <ele>152.60000610352</ele>
        <time>2016-04-20T12:35:09.000Z</time>
      </trkpt>
      <trkpt lat="43.19636" lon="5.75613">
        <ele>152.80000305176</ele>
        <time>2016-04-20T12:35:16.000Z</time>
      </trkpt>
      <trkpt lat="43.1964" lon="5.75633">
        <ele>153.19999694824</ele>
        <time>2016-04-20T12:35:22.000Z</time>
      </trkpt>
      <trkpt lat="43.19644" lon="5.75651">
        <ele>152.19999694824</ele>
        <time>2016-04-20T12:35:28.000Z</time>
      </trkpt>
      <trkpt lat="43.19653" lon="5.75678">
        <ele>150.80000305176</ele>
        <time>2016-04-20T12:35:35.000Z</time>
      </trkpt>
      <trkpt lat="43.19662" lon="5.75706">
        <ele>149.19999694824</ele>
        <time>2016-04-20T12:35:42.000Z</time>
      </trkpt>
      <trkpt lat="43.19668" lon="5.75721">
        <ele>148.80000305176</ele>
        <time>2016-04-20T12:35:47.000Z</time>
      </trkpt>
      <trkpt lat="43.1967" lon="5.75722">
        <ele>148.80000305176</ele>
        <time>2016-04-20T12:35:48.000Z</time>
      </trkpt>
      <trkpt lat="43.19671" lon="5.75723">
        <ele>149</ele>
        <time>2016-04-20T12:35:49.000Z</time>
      </trkpt>
      <trkpt lat="43.19675" lon="5.75718">
        <ele>149.80000305176</ele>
        <time>2016-04-20T12:35:51.000Z</time>
      </trkpt>
      <trkpt lat="43.19683" lon="5.75721">
        <ele>148.60000610352</ele>
        <time>2016-04-20T12:35:54.000Z</time>
      </trkpt>
      <trkpt lat="43.19688" lon="5.75725">
        <ele>146.80000305176</ele>
        <time>2016-04-20T12:36:03.000Z</time>
      </trkpt>
      <trkpt lat="43.1969" lon="5.75724">
        <ele>146.60000610352</ele>
        <time>2016-04-20T12:36:04.000Z</time>
      </trkpt>
      <trkpt lat="43.19697" lon="5.75713">
        <ele>145.60000610352</ele>
        <time>2016-04-20T12:36:08.000Z</time>
      </trkpt>
      <trkpt lat="43.19699" lon="5.7571">
        <ele>145.39999389648</ele>
        <time>2016-04-20T12:36:09.000Z</time>
      </trkpt>
      <trkpt lat="43.19706" lon="5.75699">
        <ele>144.80000305176</ele>
        <time>2016-04-20T12:36:13.000Z</time>
      </trkpt>
      <trkpt lat="43.19707" lon="5.75694">
        <ele>144.80000305176</ele>
        <time>2016-04-20T12:36:14.000Z</time>
      </trkpt>
      <trkpt lat="43.19714" lon="5.75676">
        <ele>145</ele>
        <time>2016-04-20T12:36:17.000Z</time>
      </trkpt>
      <trkpt lat="43.19717" lon="5.75669">
        <ele>144.80000305176</ele>
        <time>2016-04-20T12:36:18.000Z</time>
      </trkpt>
      <trkpt lat="43.19723" lon="5.75651">
        <ele>143.80000305176</ele>
        <time>2016-04-20T12:36:20.000Z</time>
      </trkpt>
      <trkpt lat="43.19726" lon="5.75641">
        <ele>143.39999389648</ele>
        <time>2016-04-20T12:36:21.000Z</time>
      </trkpt>
      <trkpt lat="43.19729" lon="5.75632">
        <ele>143.19999694824</ele>
        <time>2016-04-20T12:36:22.000Z</time>
      </trkpt>
      <trkpt lat="43.19735" lon="5.75612">
        <ele>142.80000305176</ele>
        <time>2016-04-20T12:36:24.000Z</time>
      </trkpt>
      <trkpt lat="43.19741" lon="5.75593">
        <ele>143.39999389648</ele>
        <time>2016-04-20T12:36:26.000Z</time>
      </trkpt>
      <trkpt lat="43.19746" lon="5.75577">
        <ele>143.80000305176</ele>
        <time>2016-04-20T12:36:28.000Z</time>
      </trkpt>
      <trkpt lat="43.19749" lon="5.7557">
        <ele>143.80000305176</ele>
        <time>2016-04-20T12:36:29.000Z</time>
      </trkpt>
      <trkpt lat="43.19759" lon="5.75541">
        <ele>144.39999389648</ele>
        <time>2016-04-20T12:36:33.000Z</time>
      </trkpt>
      <trkpt lat="43.19775" lon="5.75497">
        <ele>144.80000305176</ele>
        <time>2016-04-20T12:36:39.000Z</time>
      </trkpt>
      <trkpt lat="43.19778" lon="5.75489">
        <ele>144.80000305176</ele>
        <time>2016-04-20T12:36:40.000Z</time>
      </trkpt>
      <trkpt lat="43.19791" lon="5.75456">
        <ele>142.60000610352</ele>
        <time>2016-04-20T12:36:44.000Z</time>
      </trkpt>
      <trkpt lat="43.19799" lon="5.75432">
        <ele>142.19999694824</ele>
        <time>2016-04-20T12:36:47.000Z</time>
      </trkpt>
      <trkpt lat="43.19798" lon="5.75411">
        <ele>145.60000610352</ele>
        <time>2016-04-20T12:36:50.000Z</time>
      </trkpt>
      <trkpt lat="43.198" lon="5.75389">
        <ele>147.19999694824</ele>
        <time>2016-04-20T12:36:54.000Z</time>
      </trkpt>
      <trkpt lat="43.19812" lon="5.75356">
        <ele>145.80000305176</ele>
        <time>2016-04-20T12:37:00.000Z</time>
      </trkpt>
      <trkpt lat="43.19814" lon="5.75349">
        <ele>145.80000305176</ele>
        <time>2016-04-20T12:37:01.000Z</time>
      </trkpt>
      <trkpt lat="43.19825" lon="5.75319">
        <ele>145</ele>
        <time>2016-04-20T12:37:05.000Z</time>
      </trkpt>
      <trkpt lat="43.19833" lon="5.75293">
        <ele>144</ele>
        <time>2016-04-20T12:37:08.000Z</time>
      </trkpt>
      <trkpt lat="43.19845" lon="5.75255">
        <ele>141.60000610352</ele>
        <time>2016-04-20T12:37:12.000Z</time>
      </trkpt>
      <trkpt lat="43.19851" lon="5.75235">
        <ele>140.39999389648</ele>
        <time>2016-04-20T12:37:14.000Z</time>
      </trkpt>
      <trkpt lat="43.19859" lon="5.75199">
        <ele>139.60000610352</ele>
        <time>2016-04-20T12:37:17.000Z</time>
      </trkpt>
      <trkpt lat="43.19864" lon="5.75162">
        <ele>139.60000610352</ele>
        <time>2016-04-20T12:37:20.000Z</time>
      </trkpt>
      <trkpt lat="43.19871" lon="5.75109">
        <ele>136.80000305176</ele>
        <time>2016-04-20T12:37:24.000Z</time>
      </trkpt>
      <trkpt lat="43.19872" lon="5.75068">
        <ele>135.19999694824</ele>
        <time>2016-04-20T12:37:27.000Z</time>
      </trkpt>
      <trkpt lat="43.19874" lon="5.75041">
        <ele>133.19999694824</ele>
        <time>2016-04-20T12:37:29.000Z</time>
      </trkpt>
      <trkpt lat="43.19874" lon="5.75027">
        <ele>132.19999694824</ele>
        <time>2016-04-20T12:37:30.000Z</time>
      </trkpt>
      <trkpt lat="43.19875" lon="5.74985">
        <ele>130</ele>
        <time>2016-04-20T12:37:33.000Z</time>
      </trkpt>
      <trkpt lat="43.19876" lon="5.74956">
        <ele>129.39999389648</ele>
        <time>2016-04-20T12:37:35.000Z</time>
      </trkpt>
      <trkpt lat="43.19877" lon="5.74942">
        <ele>128.60000610352</ele>
        <time>2016-04-20T12:37:36.000Z</time>
      </trkpt>
      <trkpt lat="43.19878" lon="5.74928">
        <ele>127.59999847412</ele>
        <time>2016-04-20T12:37:37.000Z</time>
      </trkpt>
      <trkpt lat="43.19883" lon="5.74901">
        <ele>125.59999847412</ele>
        <time>2016-04-20T12:37:39.000Z</time>
      </trkpt>
      <trkpt lat="43.19887" lon="5.74888">
        <ele>124.40000152588</ele>
        <time>2016-04-20T12:37:40.000Z</time>
      </trkpt>
      <trkpt lat="43.19897" lon="5.74863">
        <ele>121.40000152588</ele>
        <time>2016-04-20T12:37:42.000Z</time>
      </trkpt>
      <trkpt lat="43.19907" lon="5.74837">
        <ele>118.40000152588</ele>
        <time>2016-04-20T12:37:44.000Z</time>
      </trkpt>
      <trkpt lat="43.19913" lon="5.74824">
        <ele>116.80000305176</ele>
        <time>2016-04-20T12:37:45.000Z</time>
      </trkpt>
      <trkpt lat="43.19918" lon="5.74812">
        <ele>115.19999694824</ele>
        <time>2016-04-20T12:37:46.000Z</time>
      </trkpt>
      <trkpt lat="43.1993" lon="5.74785">
        <ele>112.59999847412</ele>
        <time>2016-04-20T12:37:48.000Z</time>
      </trkpt>
      <trkpt lat="43.19942" lon="5.74759">
        <ele>112</ele>
        <time>2016-04-20T12:37:50.000Z</time>
      </trkpt>
      <trkpt lat="43.1996" lon="5.74719">
        <ele>110.40000152588</ele>
        <time>2016-04-20T12:37:53.000Z</time>
      </trkpt>
      <trkpt lat="43.19972" lon="5.74692">
        <ele>109.59999847412</ele>
        <time>2016-04-20T12:37:55.000Z</time>
      </trkpt>
      <trkpt lat="43.19987" lon="5.74666">
        <ele>107.40000152588</ele>
        <time>2016-04-20T12:37:57.000Z</time>
      </trkpt>
      <trkpt lat="43.20005" lon="5.74643">
        <ele>104.19999694824</ele>
        <time>2016-04-20T12:37:59.000Z</time>
      </trkpt>
      <trkpt lat="43.20031" lon="5.74609">
        <ele>102.59999847412</ele>
        <time>2016-04-20T12:38:02.000Z</time>
      </trkpt>
      <trkpt lat="43.20058" lon="5.74575">
        <ele>101</ele>
        <time>2016-04-20T12:38:05.000Z</time>
      </trkpt>
      <trkpt lat="43.20066" lon="5.74563">
        <ele>100</ele>
        <time>2016-04-20T12:38:06.000Z</time>
      </trkpt>
      <trkpt lat="43.20075" lon="5.74552">
        <ele>99</ele>
        <time>2016-04-20T12:38:07.000Z</time>
      </trkpt>
      <trkpt lat="43.20084" lon="5.74541">
        <ele>98</ele>
        <time>2016-04-20T12:38:08.000Z</time>
      </trkpt>
      <trkpt lat="43.20101" lon="5.74519">
        <ele>96.800003051758</ele>
        <time>2016-04-20T12:38:10.000Z</time>
      </trkpt>
      <trkpt lat="43.20116" lon="5.74495">
        <ele>96.199996948242</ele>
        <time>2016-04-20T12:38:12.000Z</time>
      </trkpt>
      <trkpt lat="43.20123" lon="5.74482">
        <ele>96</ele>
        <time>2016-04-20T12:38:13.000Z</time>
      </trkpt>
      <trkpt lat="43.20129" lon="5.74469">
        <ele>95.800003051758</ele>
        <time>2016-04-20T12:38:14.000Z</time>
      </trkpt>
      <trkpt lat="43.20145" lon="5.7443">
        <ele>94.800003051758</ele>
        <time>2016-04-20T12:38:17.000Z</time>
      </trkpt>
      <trkpt lat="43.20151" lon="5.74417">
        <ele>95</ele>
        <time>2016-04-20T12:38:18.000Z</time>
      </trkpt>
      <trkpt lat="43.20161" lon="5.74391">
        <ele>95</ele>
        <time>2016-04-20T12:38:20.000Z</time>
      </trkpt>
      <trkpt lat="43.2018" lon="5.74342">
        <ele>95.599998474121</ele>
        <time>2016-04-20T12:38:24.000Z</time>
      </trkpt>
      <trkpt lat="43.20192" lon="5.74307">
        <ele>96.199996948242</ele>
        <time>2016-04-20T12:38:27.000Z</time>
      </trkpt>
      <trkpt lat="43.20201" lon="5.74274">
        <ele>96.400001525879</ele>
        <time>2016-04-20T12:38:30.000Z</time>
      </trkpt>
      <trkpt lat="43.20216" lon="5.74215">
        <ele>96.599998474121</ele>
        <time>2016-04-20T12:38:36.000Z</time>
      </trkpt>
      <trkpt lat="43.20231" lon="5.74164">
        <ele>97.199996948242</ele>
        <time>2016-04-20T12:38:42.000Z</time>
      </trkpt>
      <trkpt lat="43.20236" lon="5.74142">
        <ele>97.400001525879</ele>
        <time>2016-04-20T12:38:45.000Z</time>
      </trkpt>
      <trkpt lat="43.20238" lon="5.74128">
        <ele>97.400001525879</ele>
        <time>2016-04-20T12:38:47.000Z</time>
      </trkpt>
      <trkpt lat="43.20243" lon="5.74074">
        <ele>98.199996948242</ele>
        <time>2016-04-20T12:38:55.000Z</time>
      </trkpt>
      <trkpt lat="43.20244" lon="5.74038">
        <ele>98.599998474121</ele>
        <time>2016-04-20T12:39:02.000Z</time>
      </trkpt>
      <trkpt lat="43.20245" lon="5.74015">
        <ele>98.800003051758</ele>
        <time>2016-04-20T12:39:09.000Z</time>
      </trkpt>
      <trkpt lat="43.20245" lon="5.73995">
        <ele>99</ele>
        <time>2016-04-20T12:39:17.000Z</time>
      </trkpt>
      <trkpt lat="43.20248" lon="5.7399">
        <ele>99</ele>
        <time>2016-04-20T12:39:20.000Z</time>
      </trkpt>
      <trkpt lat="43.20249" lon="5.73989">
        <ele>98.800003051758</ele>
        <time>2016-04-20T12:40:09.000Z</time>
      </trkpt>
      <trkpt lat="43.2026" lon="5.73983">
        <ele>98</ele>
        <time>2016-04-20T12:40:13.000Z</time>
      </trkpt>
      <trkpt lat="43.20264" lon="5.73983">
        <ele>97.599998474121</ele>
        <time>2016-04-20T12:40:14.000Z</time>
      </trkpt>
      <trkpt lat="43.20279" lon="5.73983">
        <ele>96.599998474121</ele>
        <time>2016-04-20T12:40:17.000Z</time>
      </trkpt>
      <trkpt lat="43.20284" lon="5.73983">
        <ele>96.199996948242</ele>
        <time>2016-04-20T12:40:18.000Z</time>
      </trkpt>
      <trkpt lat="43.20313" lon="5.73982">
        <ele>94.199996948242</ele>
        <time>2016-04-20T12:40:24.000Z</time>
      </trkpt>
      <trkpt lat="43.20316" lon="5.73981">
        <ele>94</ele>
        <time>2016-04-20T12:40:25.000Z</time>
      </trkpt>
      <trkpt lat="43.20318" lon="5.73972">
        <ele>94</ele>
        <time>2016-04-20T12:40:27.000Z</time>
      </trkpt>
      <trkpt lat="43.20317" lon="5.73966">
        <ele>94</ele>
        <time>2016-04-20T12:40:28.000Z</time>
      </trkpt>
      <trkpt lat="43.20316" lon="5.73947">
        <ele>94</ele>
        <time>2016-04-20T12:40:31.000Z</time>
      </trkpt>
      <trkpt lat="43.20315" lon="5.73932">
        <ele>94.199996948242</ele>
        <time>2016-04-20T12:40:33.000Z</time>
      </trkpt>
      <trkpt lat="43.20314" lon="5.73899">
        <ele>94.800003051758</ele>
        <time>2016-04-20T12:40:37.000Z</time>
      </trkpt>
      <trkpt lat="43.20313" lon="5.73881">
        <ele>95</ele>
        <time>2016-04-20T12:40:39.000Z</time>
      </trkpt>
      <trkpt lat="43.20311" lon="5.73827">
        <ele>94.199996948242</ele>
        <time>2016-04-20T12:40:45.000Z</time>
      </trkpt>
      <trkpt lat="43.2031" lon="5.73809">
        <ele>93.599998474121</ele>
        <time>2016-04-20T12:40:47.000Z</time>
      </trkpt>
      <trkpt lat="43.20309" lon="5.73763">
        <ele>93</ele>
        <time>2016-04-20T12:40:52.000Z</time>
      </trkpt>
      <trkpt lat="43.20308" lon="5.73728">
        <ele>93.199996948242</ele>
        <time>2016-04-20T12:40:56.000Z</time>
      </trkpt>
      <trkpt lat="43.20307" lon="5.73687">
        <ele>91.599998474121</ele>
        <time>2016-04-20T12:41:01.000Z</time>
      </trkpt>
      <trkpt lat="43.20306" lon="5.73663">
        <ele>91.199996948242</ele>
        <time>2016-04-20T12:41:04.000Z</time>
      </trkpt>
      <trkpt lat="43.20305" lon="5.73606">
        <ele>89.800003051758</ele>
        <time>2016-04-20T12:41:11.000Z</time>
      </trkpt>
      <trkpt lat="43.20305" lon="5.73598">
        <ele>89.599998474121</ele>
        <time>2016-04-20T12:41:12.000Z</time>
      </trkpt>
      <trkpt lat="43.20304" lon="5.73518">
        <ele>87.199996948242</ele>
        <time>2016-04-20T12:41:21.000Z</time>
      </trkpt>
      <trkpt lat="43.20303" lon="5.73488">
        <ele>86.400001525879</ele>
        <time>2016-04-20T12:41:24.000Z</time>
      </trkpt>
      <trkpt lat="43.20302" lon="5.73446">
        <ele>85.400001525879</ele>
        <time>2016-04-20T12:41:28.000Z</time>
      </trkpt>
      <trkpt lat="43.20301" lon="5.73424">
        <ele>84.800003051758</ele>
        <time>2016-04-20T12:41:30.000Z</time>
      </trkpt>
      <trkpt lat="43.203" lon="5.73377">
        <ele>83.199996948242</ele>
        <time>2016-04-20T12:41:34.000Z</time>
      </trkpt>
      <trkpt lat="43.20299" lon="5.73354">
        <ele>82.400001525879</ele>
        <time>2016-04-20T12:41:36.000Z</time>
      </trkpt>
      <trkpt lat="43.20298" lon="5.73317">
        <ele>82.199996948242</ele>
        <time>2016-04-20T12:41:39.000Z</time>
      </trkpt>
      <trkpt lat="43.20296" lon="5.73277">
        <ele>81.400001525879</ele>
        <time>2016-04-20T12:41:42.000Z</time>
      </trkpt>
      <trkpt lat="43.20295" lon="5.73264">
        <ele>81</ele>
        <time>2016-04-20T12:41:43.000Z</time>
      </trkpt>
      <trkpt lat="43.20294" lon="5.73238">
        <ele>79.800003051758</ele>
        <time>2016-04-20T12:41:45.000Z</time>
      </trkpt>
      <trkpt lat="43.20293" lon="5.73197">
        <ele>78.800003051758</ele>
        <time>2016-04-20T12:41:48.000Z</time>
      </trkpt>
      <trkpt lat="43.20295" lon="5.73168">
        <ele>78.199996948242</ele>
        <time>2016-04-20T12:41:50.000Z</time>
      </trkpt>
      <trkpt lat="43.20298" lon="5.73154">
        <ele>77.599998474121</ele>
        <time>2016-04-20T12:41:51.000Z</time>
      </trkpt>
      <trkpt lat="43.20309" lon="5.73111">
        <ele>75.400001525879</ele>
        <time>2016-04-20T12:41:54.000Z</time>
      </trkpt>
      <trkpt lat="43.20322" lon="5.7307">
        <ele>74.400001525879</ele>
        <time>2016-04-20T12:41:57.000Z</time>
      </trkpt>
      <trkpt lat="43.20336" lon="5.73015">
        <ele>72.599998474121</ele>
        <time>2016-04-20T12:42:01.000Z</time>
      </trkpt>
      <trkpt lat="43.20339" lon="5.73001">
        <ele>72.199996948242</ele>
        <time>2016-04-20T12:42:02.000Z</time>
      </trkpt>
      <trkpt lat="43.20346" lon="5.72975">
        <ele>71.199996948242</ele>
        <time>2016-04-20T12:42:04.000Z</time>
      </trkpt>
      <trkpt lat="43.20354" lon="5.7295">
        <ele>70.599998474121</ele>
        <time>2016-04-20T12:42:06.000Z</time>
      </trkpt>
      <trkpt lat="43.20362" lon="5.72926">
        <ele>70.199996948242</ele>
        <time>2016-04-20T12:42:08.000Z</time>
      </trkpt>
      <trkpt lat="43.20374" lon="5.72892">
        <ele>69.400001525879</ele>
        <time>2016-04-20T12:42:11.000Z</time>
      </trkpt>
      <trkpt lat="43.20383" lon="5.72858">
        <ele>69.400001525879</ele>
        <time>2016-04-20T12:42:14.000Z</time>
      </trkpt>
      <trkpt lat="43.20388" lon="5.72823">
        <ele>69</ele>
        <time>2016-04-20T12:42:17.000Z</time>
      </trkpt>
      <trkpt lat="43.2039" lon="5.728">
        <ele>68.400001525879</ele>
        <time>2016-04-20T12:42:19.000Z</time>
      </trkpt>
      <trkpt lat="43.20392" lon="5.72777">
        <ele>68.199996948242</ele>
        <time>2016-04-20T12:42:21.000Z</time>
      </trkpt>
      <trkpt lat="43.20398" lon="5.72726">
        <ele>69.199996948242</ele>
        <time>2016-04-20T12:42:26.000Z</time>
      </trkpt>
      <trkpt lat="43.20399" lon="5.72709">
        <ele>69</ele>
        <time>2016-04-20T12:42:28.000Z</time>
      </trkpt>
      <trkpt lat="43.20395" lon="5.72694">
        <ele>68.599998474121</ele>
        <time>2016-04-20T12:42:30.000Z</time>
      </trkpt>
      <trkpt lat="43.20377" lon="5.72634">
        <ele>68.199996948242</ele>
        <time>2016-04-20T12:42:38.000Z</time>
      </trkpt>
      <trkpt lat="43.20363" lon="5.72588">
        <ele>66.800003051758</ele>
        <time>2016-04-20T12:42:44.000Z</time>
      </trkpt>
      <trkpt lat="43.20356" lon="5.72565">
        <ele>66</ele>
        <time>2016-04-20T12:42:47.000Z</time>
      </trkpt>
      <trkpt lat="43.20332" lon="5.7249">
        <ele>66.800003051758</ele>
        <time>2016-04-20T12:42:57.000Z</time>
      </trkpt>
      <trkpt lat="43.2033" lon="5.72483">
        <ele>67</ele>
        <time>2016-04-20T12:42:58.000Z</time>
      </trkpt>
      <trkpt lat="43.20308" lon="5.72428">
        <ele>68.199996948242</ele>
        <time>2016-04-20T12:43:06.000Z</time>
      </trkpt>
      <trkpt lat="43.20306" lon="5.72421">
        <ele>68.199996948242</ele>
        <time>2016-04-20T12:43:07.000Z</time>
      </trkpt>
      <trkpt lat="43.20302" lon="5.72406">
        <ele>68.599998474121</ele>
        <time>2016-04-20T12:43:09.000Z</time>
      </trkpt>
      <trkpt lat="43.20298" lon="5.72392">
        <ele>68.800003051758</ele>
        <time>2016-04-20T12:43:11.000Z</time>
      </trkpt>
      <trkpt lat="43.20286" lon="5.72351">
        <ele>69.800003051758</ele>
        <time>2016-04-20T12:43:17.000Z</time>
      </trkpt>
      <trkpt lat="43.20284" lon="5.72345">
        <ele>70</ele>
        <time>2016-04-20T12:43:18.000Z</time>
      </trkpt>
      <trkpt lat="43.20281" lon="5.72339">
        <ele>70.199996948242</ele>
        <time>2016-04-20T12:43:19.000Z</time>
      </trkpt>
      <trkpt lat="43.2027" lon="5.72318">
        <ele>70.599998474121</ele>
        <time>2016-04-20T12:43:23.000Z</time>
      </trkpt>
      <trkpt lat="43.20267" lon="5.72312">
        <ele>70.800003051758</ele>
        <time>2016-04-20T12:43:24.000Z</time>
      </trkpt>
      <trkpt lat="43.20261" lon="5.72294">
        <ele>71</ele>
        <time>2016-04-20T12:43:28.000Z</time>
      </trkpt>
      <trkpt lat="43.20258" lon="5.72282">
        <ele>70.599998474121</ele>
        <time>2016-04-20T12:43:33.000Z</time>
      </trkpt>
      <trkpt lat="43.20253" lon="5.72272">
        <ele>70.199996948242</ele>
        <time>2016-04-20T12:43:40.000Z</time>
      </trkpt>
      <trkpt lat="43.20249" lon="5.72257">
        <ele>69.800003051758</ele>
        <time>2016-04-20T12:43:46.000Z</time>
      </trkpt>
      <trkpt lat="43.20243" lon="5.72238">
        <ele>69.199996948242</ele>
        <time>2016-04-20T12:43:53.000Z</time>
      </trkpt>
      <trkpt lat="43.2024" lon="5.72225">
        <ele>68.800003051758</ele>
        <time>2016-04-20T12:44:42.000Z</time>
      </trkpt>
      <trkpt lat="43.20239" lon="5.72222">
        <ele>68.800003051758</ele>
        <time>2016-04-20T12:44:43.000Z</time>
      </trkpt>
      <trkpt lat="43.20233" lon="5.722">
        <ele>68.400001525879</ele>
        <time>2016-04-20T12:44:50.000Z</time>
      </trkpt>
      <trkpt lat="43.20232" lon="5.72195">
        <ele>68.400001525879</ele>
        <time>2016-04-20T12:44:55.000Z</time>
      </trkpt>
      <trkpt lat="43.20231" lon="5.72193">
        <ele>68.400001525879</ele>
        <time>2016-04-20T12:44:56.000Z</time>
      </trkpt>
      <trkpt lat="43.20228" lon="5.72184">
        <ele>68.400001525879</ele>
        <time>2016-04-20T12:45:03.000Z</time>
      </trkpt>
      <trkpt lat="43.20224" lon="5.72177">
        <ele>68.199996948242</ele>
        <time>2016-04-20T12:45:12.000Z</time>
      </trkpt>
      <trkpt lat="43.20223" lon="5.72175">
        <ele>68</ele>
        <time>2016-04-20T12:45:13.000Z</time>
      </trkpt>
      <trkpt lat="43.20212" lon="5.72159">
        <ele>67.400001525879</ele>
        <time>2016-04-20T12:45:18.000Z</time>
      </trkpt>
      <trkpt lat="43.20202" lon="5.72139">
        <ele>67</ele>
        <time>2016-04-20T12:45:22.000Z</time>
      </trkpt>
      <trkpt lat="43.20198" lon="5.72127">
        <ele>66.800003051758</ele>
        <time>2016-04-20T12:45:24.000Z</time>
      </trkpt>
      <trkpt lat="43.20189" lon="5.72095">
        <ele>66.400001525879</ele>
        <time>2016-04-20T12:45:29.000Z</time>
      </trkpt>
      <trkpt lat="43.20189" lon="5.72087">
        <ele>66.599998474121</ele>
        <time>2016-04-20T12:45:30.000Z</time>
      </trkpt>
      <trkpt lat="43.20188" lon="5.72063">
        <ele>67</ele>
        <time>2016-04-20T12:45:33.000Z</time>
      </trkpt>
      <trkpt lat="43.20189" lon="5.72043">
        <ele>66.599998474121</ele>
        <time>2016-04-20T12:45:35.000Z</time>
      </trkpt>
      <trkpt lat="43.20193" lon="5.71978">
        <ele>64</ele>
        <time>2016-04-20T12:45:42.000Z</time>
      </trkpt>
      <trkpt lat="43.20194" lon="5.71953">
        <ele>62.799999237061</ele>
        <time>2016-04-20T12:45:45.000Z</time>
      </trkpt>
      <trkpt lat="43.20195" lon="5.71938">
        <ele>62.599998474121</ele>
        <time>2016-04-20T12:45:47.000Z</time>
      </trkpt>
      <trkpt lat="43.20196" lon="5.71932">
        <ele>62.599998474121</ele>
        <time>2016-04-20T12:45:48.000Z</time>
      </trkpt>
      <trkpt lat="43.20202" lon="5.71921">
        <ele>62.400001525879</ele>
        <time>2016-04-20T12:45:50.000Z</time>
      </trkpt>
      <trkpt lat="43.20217" lon="5.71913">
        <ele>62.400001525879</ele>
        <time>2016-04-20T12:45:53.000Z</time>
      </trkpt>
      <trkpt lat="43.20222" lon="5.71897">
        <ele>62.200000762939</ele>
        <time>2016-04-20T12:45:56.000Z</time>
      </trkpt>
      <trkpt lat="43.20221" lon="5.71878">
        <ele>62.599998474121</ele>
        <time>2016-04-20T12:45:59.000Z</time>
      </trkpt>
      <trkpt lat="43.2022" lon="5.71866">
        <ele>63.200000762939</ele>
        <time>2016-04-20T12:46:01.000Z</time>
      </trkpt>
      <trkpt lat="43.20219" lon="5.71853">
        <ele>64</ele>
        <time>2016-04-20T12:46:03.000Z</time>
      </trkpt>
      <trkpt lat="43.20216" lon="5.7184">
        <ele>64.800003051758</ele>
        <time>2016-04-20T12:46:05.000Z</time>
      </trkpt>
      <trkpt lat="43.20212" lon="5.71828">
        <ele>65.199996948242</ele>
        <time>2016-04-20T12:46:07.000Z</time>
      </trkpt>
      <trkpt lat="43.20202" lon="5.71802">
        <ele>66</ele>
        <time>2016-04-20T12:46:12.000Z</time>
      </trkpt>
      <trkpt lat="43.20198" lon="5.71793">
        <ele>66.400001525879</ele>
        <time>2016-04-20T12:46:14.000Z</time>
      </trkpt>
      <trkpt lat="43.20196" lon="5.71788">
        <ele>66.599998474121</ele>
        <time>2016-04-20T12:46:15.000Z</time>
      </trkpt>
      <trkpt lat="43.2019" lon="5.71766">
        <ele>67.400001525879</ele>
        <time>2016-04-20T12:46:20.000Z</time>
      </trkpt>
      <trkpt lat="43.20188" lon="5.71758">
        <ele>67.599998474121</ele>
        <time>2016-04-20T12:46:22.000Z</time>
      </trkpt>
      <trkpt lat="43.20186" lon="5.7175">
        <ele>68</ele>
        <time>2016-04-20T12:46:24.000Z</time>
      </trkpt>
      <trkpt lat="43.2018" lon="5.71731">
        <ele>68.599998474121</ele>
        <time>2016-04-20T12:46:29.000Z</time>
      </trkpt>
      <trkpt lat="43.20179" lon="5.71727">
        <ele>68.800003051758</ele>
        <time>2016-04-20T12:46:30.000Z</time>
      </trkpt>
      <trkpt lat="43.20174" lon="5.71707">
        <ele>69.199996948242</ele>
        <time>2016-04-20T12:46:35.000Z</time>
      </trkpt>
      <trkpt lat="43.2017" lon="5.71695">
        <ele>69.599998474121</ele>
        <time>2016-04-20T12:46:38.000Z</time>
      </trkpt>
      <trkpt lat="43.20165" lon="5.71679">
        <ele>69.800003051758</ele>
        <time>2016-04-20T12:46:42.000Z</time>
      </trkpt>
      <trkpt lat="43.2016" lon="5.71663">
        <ele>70.199996948242</ele>
        <time>2016-04-20T12:46:46.000Z</time>
      </trkpt>
      <trkpt lat="43.20152" lon="5.71641">
        <ele>70.599998474121</ele>
        <time>2016-04-20T12:46:51.000Z</time>
      </trkpt>
      <trkpt lat="43.20146" lon="5.71623">
        <ele>71</ele>
        <time>2016-04-20T12:46:55.000Z</time>
      </trkpt>
      <trkpt lat="43.20137" lon="5.716">
        <ele>71.400001525879</ele>
        <time>2016-04-20T12:47:00.000Z</time>
      </trkpt>
      <trkpt lat="43.20125" lon="5.71569">
        <ele>72</ele>
        <time>2016-04-20T12:47:07.000Z</time>
      </trkpt>
      <trkpt lat="43.20119" lon="5.71555">
        <ele>72.199996948242</ele>
        <time>2016-04-20T12:47:10.000Z</time>
      </trkpt>
      <trkpt lat="43.20108" lon="5.71534">
        <ele>72.400001525879</ele>
        <time>2016-04-20T12:47:15.000Z</time>
      </trkpt>
      <trkpt lat="43.20105" lon="5.7153">
        <ele>72.400001525879</ele>
        <time>2016-04-20T12:47:16.000Z</time>
      </trkpt>
      <trkpt lat="43.20097" lon="5.71517">
        <ele>72.400001525879</ele>
        <time>2016-04-20T12:47:19.000Z</time>
      </trkpt>
      <trkpt lat="43.20094" lon="5.71511">
        <ele>72.400001525879</ele>
        <time>2016-04-20T12:47:20.000Z</time>
      </trkpt>
      <trkpt lat="43.20081" lon="5.71474">
        <ele>72.400001525879</ele>
        <time>2016-04-20T12:47:27.000Z</time>
      </trkpt>
      <trkpt lat="43.20069" lon="5.71431">
        <ele>73.400001525879</ele>
        <time>2016-04-20T12:47:35.000Z</time>
      </trkpt>
      <trkpt lat="43.20059" lon="5.7139">
        <ele>74.599998474121</ele>
        <time>2016-04-20T12:47:43.000Z</time>
      </trkpt>
      <trkpt lat="43.20054" lon="5.71355">
        <ele>74.599998474121</ele>
        <time>2016-04-20T12:47:50.000Z</time>
      </trkpt>
      <trkpt lat="43.2005" lon="5.71325">
        <ele>74.599998474121</ele>
        <time>2016-04-20T12:47:56.000Z</time>
      </trkpt>
      <trkpt lat="43.20048" lon="5.71314">
        <ele>74.599998474121</ele>
        <time>2016-04-20T12:47:58.000Z</time>
      </trkpt>
      <trkpt lat="43.20048" lon="5.71277">
        <ele>74.400001525879</ele>
        <time>2016-04-20T12:48:04.000Z</time>
      </trkpt>
      <trkpt lat="43.20049" lon="5.7124">
        <ele>74</ele>
        <time>2016-04-20T12:48:09.000Z</time>
      </trkpt>
      <trkpt lat="43.20047" lon="5.71225">
        <ele>73.800003051758</ele>
        <time>2016-04-20T12:48:11.000Z</time>
      </trkpt>
      <trkpt lat="43.20045" lon="5.71211">
        <ele>73.599998474121</ele>
        <time>2016-04-20T12:48:13.000Z</time>
      </trkpt>
      <trkpt lat="43.20043" lon="5.71204">
        <ele>73.800003051758</ele>
        <time>2016-04-20T12:48:14.000Z</time>
      </trkpt>
      <trkpt lat="43.20039" lon="5.71184">
        <ele>73.800003051758</ele>
        <time>2016-04-20T12:48:17.000Z</time>
      </trkpt>
      <trkpt lat="43.20031" lon="5.71166">
        <ele>73.599998474121</ele>
        <time>2016-04-20T12:48:20.000Z</time>
      </trkpt>
      <trkpt lat="43.20023" lon="5.71149">
        <ele>73.400001525879</ele>
        <time>2016-04-20T12:48:23.000Z</time>
      </trkpt>
      <trkpt lat="43.20003" lon="5.71108">
        <ele>73.400001525879</ele>
        <time>2016-04-20T12:48:31.000Z</time>
      </trkpt>
      <trkpt lat="43.19989" lon="5.71065">
        <ele>73.599998474121</ele>
        <time>2016-04-20T12:48:39.000Z</time>
      </trkpt>
      <trkpt lat="43.19981" lon="5.7104">
        <ele>73.400001525879</ele>
        <time>2016-04-20T12:48:44.000Z</time>
      </trkpt>
      <trkpt lat="43.19977" lon="5.71027">
        <ele>73</ele>
        <time>2016-04-20T12:48:49.000Z</time>
      </trkpt>
      <trkpt lat="43.19973" lon="5.71011">
        <ele>72.599998474121</ele>
        <time>2016-04-20T12:48:54.000Z</time>
      </trkpt>
      <trkpt lat="43.19971" lon="5.71006">
        <ele>72.400001525879</ele>
        <time>2016-04-20T12:48:55.000Z</time>
      </trkpt>
      <trkpt lat="43.19967" lon="5.7099">
        <ele>71.599998474121</ele>
        <time>2016-04-20T12:48:58.000Z</time>
      </trkpt>
      <trkpt lat="43.19965" lon="5.70981">
        <ele>71.199996948242</ele>
        <time>2016-04-20T12:49:00.000Z</time>
      </trkpt>
      <trkpt lat="43.19965" lon="5.70979">
        <ele>71.199996948242</ele>
        <time>2016-04-20T12:49:01.000Z</time>
      </trkpt>
      <trkpt lat="43.19963" lon="5.70973">
        <ele>71</ele>
        <time>2016-04-20T12:49:03.000Z</time>
      </trkpt>
      <trkpt lat="43.19962" lon="5.70968">
        <ele>70.599998474121</ele>
        <time>2016-04-20T12:49:04.000Z</time>
      </trkpt>
      <trkpt lat="43.19961" lon="5.70963">
        <ele>70.199996948242</ele>
        <time>2016-04-20T12:49:05.000Z</time>
      </trkpt>
      <trkpt lat="43.19958" lon="5.70944">
        <ele>68.599998474121</ele>
        <time>2016-04-20T12:49:08.000Z</time>
      </trkpt>
      <trkpt lat="43.19957" lon="5.70938">
        <ele>68</ele>
        <time>2016-04-20T12:49:09.000Z</time>
      </trkpt>
      <trkpt lat="43.19956" lon="5.70927">
        <ele>67</ele>
        <time>2016-04-20T12:49:11.000Z</time>
      </trkpt>
      <trkpt lat="43.19954" lon="5.70918">
        <ele>66.199996948242</ele>
        <time>2016-04-20T12:49:13.000Z</time>
      </trkpt>
      <trkpt lat="43.19951" lon="5.70914">
        <ele>65.800003051758</ele>
        <time>2016-04-20T12:49:14.000Z</time>
      </trkpt>
      <trkpt lat="43.19947" lon="5.7091">
        <ele>65.400001525879</ele>
        <time>2016-04-20T12:49:15.000Z</time>
      </trkpt>
      <trkpt lat="43.19934" lon="5.70891">
        <ele>63.599998474121</ele>
        <time>2016-04-20T12:49:18.000Z</time>
      </trkpt>
      <trkpt lat="43.19927" lon="5.70876">
        <ele>62.599998474121</ele>
        <time>2016-04-20T12:49:20.000Z</time>
      </trkpt>
      <trkpt lat="43.19923" lon="5.70869">
        <ele>62.400001525879</ele>
        <time>2016-04-20T12:49:21.000Z</time>
      </trkpt>
      <trkpt lat="43.19918" lon="5.70865">
        <ele>62.200000762939</ele>
        <time>2016-04-20T12:49:22.000Z</time>
      </trkpt>
      <trkpt lat="43.19909" lon="5.70857">
        <ele>62</ele>
        <time>2016-04-20T12:49:24.000Z</time>
      </trkpt>
      <trkpt lat="43.19905" lon="5.70852">
        <ele>61.799999237061</ele>
        <time>2016-04-20T12:49:25.000Z</time>
      </trkpt>
      <trkpt lat="43.19898" lon="5.70843">
        <ele>61.400001525879</ele>
        <time>2016-04-20T12:49:27.000Z</time>
      </trkpt>
      <trkpt lat="43.19891" lon="5.70833">
        <ele>61</ele>
        <time>2016-04-20T12:49:29.000Z</time>
      </trkpt>
      <trkpt lat="43.19875" lon="5.70818">
        <ele>60.599998474121</ele>
        <time>2016-04-20T12:49:33.000Z</time>
      </trkpt>
      <trkpt lat="43.19868" lon="5.7081">
        <ele>60.200000762939</ele>
        <time>2016-04-20T12:49:35.000Z</time>
      </trkpt>
      <trkpt lat="43.19863" lon="5.70799">
        <ele>60</ele>
        <time>2016-04-20T12:49:37.000Z</time>
      </trkpt>
      <trkpt lat="43.19859" lon="5.70778">
        <ele>60.400001525879</ele>
        <time>2016-04-20T12:49:41.000Z</time>
      </trkpt>
      <trkpt lat="43.19855" lon="5.70769">
        <ele>60.400001525879</ele>
        <time>2016-04-20T12:49:43.000Z</time>
      </trkpt>
      <trkpt lat="43.1985" lon="5.70757">
        <ele>60.599998474121</ele>
        <time>2016-04-20T12:49:46.000Z</time>
      </trkpt>
      <trkpt lat="43.19847" lon="5.70749">
        <ele>60.599998474121</ele>
        <time>2016-04-20T12:49:48.000Z</time>
      </trkpt>
      <trkpt lat="43.19844" lon="5.70741">
        <ele>60.799999237061</ele>
        <time>2016-04-20T12:49:50.000Z</time>
      </trkpt>
      <trkpt lat="43.19832" lon="5.70706">
        <ele>61.200000762939</ele>
        <time>2016-04-20T12:49:57.000Z</time>
      </trkpt>
      <trkpt lat="43.19817" lon="5.70664">
        <ele>62</ele>
        <time>2016-04-20T12:50:05.000Z</time>
      </trkpt>
      <trkpt lat="43.19813" lon="5.70654">
        <ele>62.200000762939</ele>
        <time>2016-04-20T12:50:07.000Z</time>
      </trkpt>
      <trkpt lat="43.19796" lon="5.70635">
        <ele>62.599998474121</ele>
        <time>2016-04-20T12:50:12.000Z</time>
      </trkpt>
      <trkpt lat="43.19792" lon="5.70631">
        <ele>62.799999237061</ele>
        <time>2016-04-20T12:50:13.000Z</time>
      </trkpt>
      <trkpt lat="43.1977" lon="5.70609">
        <ele>64</ele>
        <time>2016-04-20T12:50:19.000Z</time>
      </trkpt>
      <trkpt lat="43.19767" lon="5.70605">
        <ele>64.400001525879</ele>
        <time>2016-04-20T12:50:20.000Z</time>
      </trkpt>
      <trkpt lat="43.19761" lon="5.7059">
        <ele>65.400001525879</ele>
        <time>2016-04-20T12:50:23.000Z</time>
      </trkpt>
      <trkpt lat="43.19755" lon="5.70574">
        <ele>66.199996948242</ele>
        <time>2016-04-20T12:50:26.000Z</time>
      </trkpt>
      <trkpt lat="43.19749" lon="5.70554">
        <ele>67.400001525879</ele>
        <time>2016-04-20T12:50:30.000Z</time>
      </trkpt>
      <trkpt lat="43.19741" lon="5.70533">
        <ele>67.199996948242</ele>
        <time>2016-04-20T12:50:34.000Z</time>
      </trkpt>
      <trkpt lat="43.19721" lon="5.70481">
        <ele>66.599998474121</ele>
        <time>2016-04-20T12:50:44.000Z</time>
      </trkpt>
      <trkpt lat="43.19717" lon="5.70472">
        <ele>66.400001525879</ele>
        <time>2016-04-20T12:50:46.000Z</time>
      </trkpt>
      <trkpt lat="43.19703" lon="5.70437">
        <ele>66.599998474121</ele>
        <time>2016-04-20T12:50:53.000Z</time>
      </trkpt>
      <trkpt lat="43.19686" lon="5.70394">
        <ele>67.199996948242</ele>
        <time>2016-04-20T12:51:01.000Z</time>
      </trkpt>
      <trkpt lat="43.19682" lon="5.70383">
        <ele>67.199996948242</ele>
        <time>2016-04-20T12:51:03.000Z</time>
      </trkpt>
      <trkpt lat="43.19669" lon="5.70339">
        <ele>67</ele>
        <time>2016-04-20T12:51:11.000Z</time>
      </trkpt>
      <trkpt lat="43.19667" lon="5.70328">
        <ele>66.800003051758</ele>
        <time>2016-04-20T12:51:13.000Z</time>
      </trkpt>
      <trkpt lat="43.19662" lon="5.703">
        <ele>67</ele>
        <time>2016-04-20T12:51:17.000Z</time>
      </trkpt>
      <trkpt lat="43.19655" lon="5.70252">
        <ele>68.199996948242</ele>
        <time>2016-04-20T12:51:23.000Z</time>
      </trkpt>
      <trkpt lat="43.19654" lon="5.70244">
        <ele>68.400001525879</ele>
        <time>2016-04-20T12:51:24.000Z</time>
      </trkpt>
      <trkpt lat="43.19651" lon="5.70212">
        <ele>69.199996948242</ele>
        <time>2016-04-20T12:51:29.000Z</time>
      </trkpt>
      <trkpt lat="43.19649" lon="5.70197">
        <ele>69.199996948242</ele>
        <time>2016-04-20T12:51:32.000Z</time>
      </trkpt>
      <trkpt lat="43.19646" lon="5.70177">
        <ele>69.400001525879</ele>
        <time>2016-04-20T12:51:36.000Z</time>
      </trkpt>
      <trkpt lat="43.19646" lon="5.70172">
        <ele>69.599998474121</ele>
        <time>2016-04-20T12:51:37.000Z</time>
      </trkpt>
      <trkpt lat="43.19642" lon="5.70138">
        <ele>70.400001525879</ele>
        <time>2016-04-20T12:51:44.000Z</time>
      </trkpt>
      <trkpt lat="43.19634" lon="5.70097">
        <ele>70.599998474121</ele>
        <time>2016-04-20T12:51:51.000Z</time>
      </trkpt>
      <trkpt lat="43.19625" lon="5.70052">
        <ele>70.199996948242</ele>
        <time>2016-04-20T12:51:58.000Z</time>
      </trkpt>
      <trkpt lat="43.19623" lon="5.70044">
        <ele>70.199996948242</ele>
        <time>2016-04-20T12:51:59.000Z</time>
      </trkpt>
      <trkpt lat="43.19615" lon="5.70008">
        <ele>70.599998474121</ele>
        <time>2016-04-20T12:52:04.000Z</time>
      </trkpt>
      <trkpt lat="43.19609" lon="5.69977">
        <ele>70.599998474121</ele>
        <time>2016-04-20T12:52:08.000Z</time>
      </trkpt>
      <trkpt lat="43.19594" lon="5.69909">
        <ele>70</ele>
        <time>2016-04-20T12:52:17.000Z</time>
      </trkpt>
      <trkpt lat="43.19583" lon="5.69855">
        <ele>69.199996948242</ele>
        <time>2016-04-20T12:52:24.000Z</time>
      </trkpt>
      <trkpt lat="43.19574" lon="5.69815">
        <ele>68.800003051758</ele>
        <time>2016-04-20T12:52:28.000Z</time>
      </trkpt>
      <trkpt lat="43.19572" lon="5.69805">
        <ele>68.800003051758</ele>
        <time>2016-04-20T12:52:29.000Z</time>
      </trkpt>
      <trkpt lat="43.19568" lon="5.69784">
        <ele>68.800003051758</ele>
        <time>2016-04-20T12:52:31.000Z</time>
      </trkpt>
      <trkpt lat="43.19563" lon="5.69758">
        <ele>68.400001525879</ele>
        <time>2016-04-20T12:52:34.000Z</time>
      </trkpt>
      <trkpt lat="43.19557" lon="5.69717">
        <ele>67.199996948242</ele>
        <time>2016-04-20T12:52:40.000Z</time>
      </trkpt>
      <trkpt lat="43.19553" lon="5.69698">
        <ele>67.199996948242</ele>
        <time>2016-04-20T12:52:43.000Z</time>
      </trkpt>
      <trkpt lat="43.19548" lon="5.69663">
        <ele>67.400001525879</ele>
        <time>2016-04-20T12:52:48.000Z</time>
      </trkpt>
      <trkpt lat="43.19537" lon="5.696">
        <ele>65.800003051758</ele>
        <time>2016-04-20T12:52:56.000Z</time>
      </trkpt>
      <trkpt lat="43.19524" lon="5.69531">
        <ele>64.400001525879</ele>
        <time>2016-04-20T12:53:04.000Z</time>
      </trkpt>
      <trkpt lat="43.19518" lon="5.69492">
        <ele>64.199996948242</ele>
        <time>2016-04-20T12:53:08.000Z</time>
      </trkpt>
      <trkpt lat="43.19516" lon="5.69482">
        <ele>64.199996948242</ele>
        <time>2016-04-20T12:53:09.000Z</time>
      </trkpt>
      <trkpt lat="43.19511" lon="5.69452">
        <ele>64.400001525879</ele>
        <time>2016-04-20T12:53:12.000Z</time>
      </trkpt>
      <trkpt lat="43.19504" lon="5.69414">
        <ele>64.800003051758</ele>
        <time>2016-04-20T12:53:16.000Z</time>
      </trkpt>
      <trkpt lat="43.19502" lon="5.69405">
        <ele>65</ele>
        <time>2016-04-20T12:53:17.000Z</time>
      </trkpt>
      <trkpt lat="43.19493" lon="5.69343">
        <ele>66</ele>
        <time>2016-04-20T12:53:24.000Z</time>
      </trkpt>
      <trkpt lat="43.19486" lon="5.69297">
        <ele>67</ele>
        <time>2016-04-20T12:53:30.000Z</time>
      </trkpt>
      <trkpt lat="43.19482" lon="5.69267">
        <ele>67</ele>
        <time>2016-04-20T12:53:34.000Z</time>
      </trkpt>
      <trkpt lat="43.19479" lon="5.69248">
        <ele>67</ele>
        <time>2016-04-20T12:53:37.000Z</time>
      </trkpt>
      <trkpt lat="43.19477" lon="5.69227">
        <ele>67</ele>
        <time>2016-04-20T12:53:41.000Z</time>
      </trkpt>
      <trkpt lat="43.19476" lon="5.69221">
        <ele>67</ele>
        <time>2016-04-20T12:53:43.000Z</time>
      </trkpt>
      <trkpt lat="43.19476" lon="5.69219">
        <ele>67</ele>
        <time>2016-04-20T12:53:44.000Z</time>
      </trkpt>
      <trkpt lat="43.19474" lon="5.69215">
        <ele>67</ele>
        <time>2016-04-20T12:53:57.000Z</time>
      </trkpt>
      <trkpt lat="43.19463" lon="5.69216">
        <ele>66</ele>
        <time>2016-04-20T12:54:01.000Z</time>
      </trkpt>
      <trkpt lat="43.19438" lon="5.69225">
        <ele>63.799999237061</ele>
        <time>2016-04-20T12:54:08.000Z</time>
      </trkpt>
      <trkpt lat="43.19406" lon="5.69238">
        <ele>61.400001525879</ele>
        <time>2016-04-20T12:54:15.000Z</time>
      </trkpt>
      <trkpt lat="43.1938" lon="5.69252">
        <ele>59.799999237061</ele>
        <time>2016-04-20T12:54:20.000Z</time>
      </trkpt>
      <trkpt lat="43.1937" lon="5.6926">
        <ele>59</ele>
        <time>2016-04-20T12:54:22.000Z</time>
      </trkpt>
      <trkpt lat="43.19359" lon="5.69267">
        <ele>58.200000762939</ele>
        <time>2016-04-20T12:54:24.000Z</time>
      </trkpt>
      <trkpt lat="43.19347" lon="5.69277">
        <ele>57.400001525879</ele>
        <time>2016-04-20T12:54:26.000Z</time>
      </trkpt>
      <trkpt lat="43.19335" lon="5.69287">
        <ele>56.799999237061</ele>
        <time>2016-04-20T12:54:28.000Z</time>
      </trkpt>
      <trkpt lat="43.19329" lon="5.69292">
        <ele>56.599998474121</ele>
        <time>2016-04-20T12:54:29.000Z</time>
      </trkpt>
      <trkpt lat="43.19323" lon="5.69297">
        <ele>56.400001525879</ele>
        <time>2016-04-20T12:54:30.000Z</time>
      </trkpt>
      <trkpt lat="43.1931" lon="5.69305">
        <ele>55.799999237061</ele>
        <time>2016-04-20T12:54:32.000Z</time>
      </trkpt>
      <trkpt lat="43.19297" lon="5.69313">
        <ele>55.200000762939</ele>
        <time>2016-04-20T12:54:34.000Z</time>
      </trkpt>
      <trkpt lat="43.1929" lon="5.69317">
        <ele>54.799999237061</ele>
        <time>2016-04-20T12:54:35.000Z</time>
      </trkpt>
      <trkpt lat="43.19277" lon="5.69325">
        <ele>54.200000762939</ele>
        <time>2016-04-20T12:54:37.000Z</time>
      </trkpt>
      <trkpt lat="43.19256" lon="5.69338">
        <ele>53</ele>
        <time>2016-04-20T12:54:40.000Z</time>
      </trkpt>
      <trkpt lat="43.19242" lon="5.69346">
        <ele>52</ele>
        <time>2016-04-20T12:54:42.000Z</time>
      </trkpt>
      <trkpt lat="43.19229" lon="5.69353">
        <ele>51.200000762939</ele>
        <time>2016-04-20T12:54:44.000Z</time>
      </trkpt>
      <trkpt lat="43.19214" lon="5.69361">
        <ele>50.599998474121</ele>
        <time>2016-04-20T12:54:47.000Z</time>
      </trkpt>
      <trkpt lat="43.19211" lon="5.69362">
        <ele>50.400001525879</ele>
        <time>2016-04-20T12:54:48.000Z</time>
      </trkpt>
      <trkpt lat="43.19204" lon="5.69361">
        <ele>50.200000762939</ele>
        <time>2016-04-20T12:54:51.000Z</time>
      </trkpt>
      <trkpt lat="43.19203" lon="5.69361">
        <ele>50.200000762939</ele>
        <time>2016-04-20T12:54:52.000Z</time>
      </trkpt>
      <trkpt lat="43.19202" lon="5.69355">
        <ele>50.200000762939</ele>
        <time>2016-04-20T12:55:16.000Z</time>
      </trkpt>
      <trkpt lat="43.19202" lon="5.69352">
        <ele>50.200000762939</ele>
        <time>2016-04-20T12:55:17.000Z</time>
      </trkpt>
      <trkpt lat="43.19202" lon="5.6933">
        <ele>50.599998474121</ele>
        <time>2016-04-20T12:55:23.000Z</time>
      </trkpt>
      <trkpt lat="43.19203" lon="5.69293">
        <ele>52</ele>
        <time>2016-04-20T12:55:31.000Z</time>
      </trkpt>
      <trkpt lat="43.19202" lon="5.69267">
        <ele>53.799999237061</ele>
        <time>2016-04-20T12:55:36.000Z</time>
      </trkpt>
      <trkpt lat="43.19202" lon="5.69245">
        <ele>55.400001525879</ele>
        <time>2016-04-20T12:55:40.000Z</time>
      </trkpt>
      <trkpt lat="43.19202" lon="5.69222">
        <ele>55.599998474121</ele>
        <time>2016-04-20T12:55:44.000Z</time>
      </trkpt>
      <trkpt lat="43.19201" lon="5.69212">
        <ele>56</ele>
        <time>2016-04-20T12:55:46.000Z</time>
      </trkpt>
      <trkpt lat="43.192" lon="5.69196">
        <ele>56.599998474121</ele>
        <time>2016-04-20T12:55:49.000Z</time>
      </trkpt>
      <trkpt lat="43.19198" lon="5.6918">
        <ele>57.200000762939</ele>
        <time>2016-04-20T12:55:52.000Z</time>
      </trkpt>
      <trkpt lat="43.19195" lon="5.69144">
        <ele>58.400001525879</ele>
        <time>2016-04-20T12:55:59.000Z</time>
      </trkpt>
      <trkpt lat="43.19195" lon="5.69139">
        <ele>58.599998474121</ele>
        <time>2016-04-20T12:56:00.000Z</time>
      </trkpt>
      <trkpt lat="43.192" lon="5.69125">
        <ele>58</ele>
        <time>2016-04-20T12:56:03.000Z</time>
      </trkpt>
      <trkpt lat="43.19207" lon="5.69101">
        <ele>56.599998474121</ele>
        <time>2016-04-20T12:56:08.000Z</time>
      </trkpt>
      <trkpt lat="43.19207" lon="5.6909">
        <ele>56</ele>
        <time>2016-04-20T12:56:10.000Z</time>
      </trkpt>
      <trkpt lat="43.19205" lon="5.69076">
        <ele>55.599998474121</ele>
        <time>2016-04-20T12:56:13.000Z</time>
      </trkpt>
      <trkpt lat="43.19201" lon="5.69045">
        <ele>55</ele>
        <time>2016-04-20T12:56:19.000Z</time>
      </trkpt>
      <trkpt lat="43.19195" lon="5.69012">
        <ele>55.400001525879</ele>
        <time>2016-04-20T12:56:25.000Z</time>
      </trkpt>
      <trkpt lat="43.19195" lon="5.69006">
        <ele>55.599998474121</ele>
        <time>2016-04-20T12:56:26.000Z</time>
      </trkpt>
      <trkpt lat="43.19196" lon="5.68964">
        <ele>55.400001525879</ele>
        <time>2016-04-20T12:56:33.000Z</time>
      </trkpt>
      <trkpt lat="43.19199" lon="5.68939">
        <ele>54.799999237061</ele>
        <time>2016-04-20T12:56:37.000Z</time>
      </trkpt>
      <trkpt lat="43.19202" lon="5.68916">
        <ele>54.200000762939</ele>
        <time>2016-04-20T12:56:41.000Z</time>
      </trkpt>
      <trkpt lat="43.19202" lon="5.68898">
        <ele>54</ele>
        <time>2016-04-20T12:56:44.000Z</time>
      </trkpt>
      <trkpt lat="43.19201" lon="5.68883">
        <ele>54</ele>
        <time>2016-04-20T12:56:47.000Z</time>
      </trkpt>
      <trkpt lat="43.19199" lon="5.68852">
        <ele>53.599998474121</ele>
        <time>2016-04-20T12:56:54.000Z</time>
      </trkpt>
      <trkpt lat="43.19199" lon="5.68848">
        <ele>53.599998474121</ele>
        <time>2016-04-20T12:56:55.000Z</time>
      </trkpt>
      <trkpt lat="43.19197" lon="5.68839">
        <ele>53.400001525879</ele>
        <time>2016-04-20T12:56:57.000Z</time>
      </trkpt>
      <trkpt lat="43.19193" lon="5.68819">
        <ele>53.200000762939</ele>
        <time>2016-04-20T12:57:02.000Z</time>
      </trkpt>
      <trkpt lat="43.19187" lon="5.68789">
        <ele>53</ele>
        <time>2016-04-20T12:57:07.000Z</time>
      </trkpt>
      <trkpt lat="43.19171" lon="5.68746">
        <ele>51.200000762939</ele>
        <time>2016-04-20T12:57:13.000Z</time>
      </trkpt>
      <trkpt lat="43.19163" lon="5.68734">
        <ele>50.599998474121</ele>
        <time>2016-04-20T12:57:15.000Z</time>
      </trkpt>
      <trkpt lat="43.1916" lon="5.68728">
        <ele>50.400001525879</ele>
        <time>2016-04-20T12:57:16.000Z</time>
      </trkpt>
      <trkpt lat="43.19157" lon="5.6872">
        <ele>50</ele>
        <time>2016-04-20T12:57:17.000Z</time>
      </trkpt>
      <trkpt lat="43.19156" lon="5.68711">
        <ele>50.400001525879</ele>
        <time>2016-04-20T12:57:18.000Z</time>
      </trkpt>
      <trkpt lat="43.19157" lon="5.68702">
        <ele>50.799999237061</ele>
        <time>2016-04-20T12:57:19.000Z</time>
      </trkpt>
      <trkpt lat="43.19158" lon="5.68692">
        <ele>51.400001525879</ele>
        <time>2016-04-20T12:57:20.000Z</time>
      </trkpt>
      <trkpt lat="43.19157" lon="5.68675">
        <ele>52.200000762939</ele>
        <time>2016-04-20T12:57:22.000Z</time>
      </trkpt>
      <trkpt lat="43.19157" lon="5.68667">
        <ele>52.400001525879</ele>
        <time>2016-04-20T12:57:23.000Z</time>
      </trkpt>
      <trkpt lat="43.19155" lon="5.68642">
        <ele>53.599998474121</ele>
        <time>2016-04-20T12:57:27.000Z</time>
      </trkpt>
      <trkpt lat="43.19159" lon="5.68618">
        <ele>56.599998474121</ele>
        <time>2016-04-20T12:57:32.000Z</time>
      </trkpt>
      <trkpt lat="43.19162" lon="5.68608">
        <ele>57.200000762939</ele>
        <time>2016-04-20T12:57:36.000Z</time>
      </trkpt>
      <trkpt lat="43.19167" lon="5.68587">
        <ele>58.799999237061</ele>
        <time>2016-04-20T12:57:41.000Z</time>
      </trkpt>
      <trkpt lat="43.1917" lon="5.68573">
        <ele>59.599998474121</ele>
        <time>2016-04-20T12:57:44.000Z</time>
      </trkpt>
      <trkpt lat="43.19176" lon="5.68546">
        <ele>61.599998474121</ele>
        <time>2016-04-20T12:57:49.000Z</time>
      </trkpt>
      <trkpt lat="43.19179" lon="5.68536">
        <ele>62.400001525879</ele>
        <time>2016-04-20T12:57:51.000Z</time>
      </trkpt>
      <trkpt lat="43.19187" lon="5.68511">
        <ele>64.599998474121</ele>
        <time>2016-04-20T12:57:56.000Z</time>
      </trkpt>
      <trkpt lat="43.19192" lon="5.68492">
        <ele>66.199996948242</ele>
        <time>2016-04-20T12:58:00.000Z</time>
      </trkpt>
      <trkpt lat="43.19194" lon="5.6848">
        <ele>67.199996948242</ele>
        <time>2016-04-20T12:58:03.000Z</time>
      </trkpt>
      <trkpt lat="43.19195" lon="5.68476">
        <ele>67.599998474121</ele>
        <time>2016-04-20T12:58:04.000Z</time>
      </trkpt>
      <trkpt lat="43.19198" lon="5.68465">
        <ele>68.599998474121</ele>
        <time>2016-04-20T12:58:07.000Z</time>
      </trkpt>
      <trkpt lat="43.19199" lon="5.68458">
        <ele>69.199996948242</ele>
        <time>2016-04-20T12:58:09.000Z</time>
      </trkpt>
      <trkpt lat="43.19201" lon="5.68451">
        <ele>69.800003051758</ele>
        <time>2016-04-20T12:58:11.000Z</time>
      </trkpt>
      <trkpt lat="43.19204" lon="5.68435">
        <ele>71.199996948242</ele>
        <time>2016-04-20T12:58:15.000Z</time>
      </trkpt>
      <trkpt lat="43.19206" lon="5.68426">
        <ele>72</ele>
        <time>2016-04-20T12:58:17.000Z</time>
      </trkpt>
      <trkpt lat="43.19208" lon="5.68418">
        <ele>72.599998474121</ele>
        <time>2016-04-20T12:58:19.000Z</time>
      </trkpt>
      <trkpt lat="43.19211" lon="5.68399">
        <ele>72.800003051758</ele>
        <time>2016-04-20T12:58:23.000Z</time>
      </trkpt>
      <trkpt lat="43.19216" lon="5.6838">
        <ele>73.400001525879</ele>
        <time>2016-04-20T12:58:27.000Z</time>
      </trkpt>
      <trkpt lat="43.19219" lon="5.68366">
        <ele>74.599998474121</ele>
        <time>2016-04-20T12:58:30.000Z</time>
      </trkpt>
      <trkpt lat="43.19221" lon="5.68351">
        <ele>75.800003051758</ele>
        <time>2016-04-20T12:58:33.000Z</time>
      </trkpt>
      <trkpt lat="43.19224" lon="5.68336">
        <ele>76.599998474121</ele>
        <time>2016-04-20T12:58:36.000Z</time>
      </trkpt>
      <trkpt lat="43.19225" lon="5.68331">
        <ele>76.599998474121</ele>
        <time>2016-04-20T12:58:37.000Z</time>
      </trkpt>
      <trkpt lat="43.19227" lon="5.68322">
        <ele>76.800003051758</ele>
        <time>2016-04-20T12:58:39.000Z</time>
      </trkpt>
      <trkpt lat="43.1923" lon="5.68308">
        <ele>77.199996948242</ele>
        <time>2016-04-20T12:58:42.000Z</time>
      </trkpt>
      <trkpt lat="43.19234" lon="5.68294">
        <ele>77.599998474121</ele>
        <time>2016-04-20T12:58:45.000Z</time>
      </trkpt>
      <trkpt lat="43.19237" lon="5.68279">
        <ele>78.400001525879</ele>
        <time>2016-04-20T12:58:48.000Z</time>
      </trkpt>
      <trkpt lat="43.19239" lon="5.68266">
        <ele>79</ele>
        <time>2016-04-20T12:58:51.000Z</time>
      </trkpt>
      <trkpt lat="43.19239" lon="5.68261">
        <ele>79.199996948242</ele>
        <time>2016-04-20T12:58:52.000Z</time>
      </trkpt>
      <trkpt lat="43.19239" lon="5.68252">
        <ele>79.800003051758</ele>
        <time>2016-04-20T12:58:54.000Z</time>
      </trkpt>
      <trkpt lat="43.1924" lon="5.68238">
        <ele>80.599998474121</ele>
        <time>2016-04-20T12:58:57.000Z</time>
      </trkpt>
      <trkpt lat="43.1924" lon="5.68233">
        <ele>80.800003051758</ele>
        <time>2016-04-20T12:58:58.000Z</time>
      </trkpt>
      <trkpt lat="43.19239" lon="5.68224">
        <ele>81.400001525879</ele>
        <time>2016-04-20T12:59:00.000Z</time>
      </trkpt>
      <trkpt lat="43.19239" lon="5.68209">
        <ele>82.199996948242</ele>
        <time>2016-04-20T12:59:03.000Z</time>
      </trkpt>
      <trkpt lat="43.19239" lon="5.682">
        <ele>82.400001525879</ele>
        <time>2016-04-20T12:59:05.000Z</time>
      </trkpt>
      <trkpt lat="43.19239" lon="5.68195">
        <ele>82.599998474121</ele>
        <time>2016-04-20T12:59:06.000Z</time>
      </trkpt>
      <trkpt lat="43.19239" lon="5.68181">
        <ele>83.400001525879</ele>
        <time>2016-04-20T12:59:09.000Z</time>
      </trkpt>
      <trkpt lat="43.19239" lon="5.68168">
        <ele>84.199996948242</ele>
        <time>2016-04-20T12:59:12.000Z</time>
      </trkpt>
      <trkpt lat="43.19238" lon="5.68156">
        <ele>85.199996948242</ele>
        <time>2016-04-20T12:59:15.000Z</time>
      </trkpt>
      <trkpt lat="43.19237" lon="5.68142">
        <ele>86</ele>
        <time>2016-04-20T12:59:19.000Z</time>
      </trkpt>
      <trkpt lat="43.19238" lon="5.6813">
        <ele>86.199996948242</ele>
        <time>2016-04-20T12:59:23.000Z</time>
      </trkpt>
      <trkpt lat="43.19238" lon="5.68126">
        <ele>86.199996948242</ele>
        <time>2016-04-20T12:59:25.000Z</time>
      </trkpt>
      <trkpt lat="43.19238" lon="5.68117">
        <ele>86</ele>
        <time>2016-04-20T13:00:43.000Z</time>
      </trkpt>
      <trkpt lat="43.19237" lon="5.68111">
        <ele>86</ele>
        <time>2016-04-20T13:00:45.000Z</time>
      </trkpt>
      <trkpt lat="43.19237" lon="5.68103">
        <ele>86</ele>
        <time>2016-04-20T13:00:47.000Z</time>
      </trkpt>
      <trkpt lat="43.19236" lon="5.68087">
        <ele>86.199996948242</ele>
        <time>2016-04-20T13:00:51.000Z</time>
      </trkpt>
      <trkpt lat="43.19233" lon="5.68055">
        <ele>86.400001525879</ele>
        <time>2016-04-20T13:00:57.000Z</time>
      </trkpt>
      <trkpt lat="43.19232" lon="5.68009">
        <ele>83.199996948242</ele>
        <time>2016-04-20T13:01:03.000Z</time>
      </trkpt>
      <trkpt lat="43.1923" lon="5.67986">
        <ele>82.400001525879</ele>
        <time>2016-04-20T13:01:06.000Z</time>
      </trkpt>
      <trkpt lat="43.19226" lon="5.67972">
        <ele>81.800003051758</ele>
        <time>2016-04-20T13:01:08.000Z</time>
      </trkpt>
      <trkpt lat="43.19224" lon="5.67966">
        <ele>81.599998474121</ele>
        <time>2016-04-20T13:01:09.000Z</time>
      </trkpt>
      <trkpt lat="43.19216" lon="5.67945">
        <ele>80.400001525879</ele>
        <time>2016-04-20T13:01:12.000Z</time>
      </trkpt>
      <trkpt lat="43.19214" lon="5.67939">
        <ele>80</ele>
        <time>2016-04-20T13:01:13.000Z</time>
      </trkpt>
      <trkpt lat="43.19205" lon="5.67918">
        <ele>79</ele>
        <time>2016-04-20T13:01:16.000Z</time>
      </trkpt>
      <trkpt lat="43.19197" lon="5.67898">
        <ele>78.400001525879</ele>
        <time>2016-04-20T13:01:19.000Z</time>
      </trkpt>
      <trkpt lat="43.19196" lon="5.67892">
        <ele>78.400001525879</ele>
        <time>2016-04-20T13:01:20.000Z</time>
      </trkpt>
      <trkpt lat="43.19193" lon="5.67886">
        <ele>78.400001525879</ele>
        <time>2016-04-20T13:01:21.000Z</time>
      </trkpt>
      <trkpt lat="43.19187" lon="5.67875">
        <ele>78</ele>
        <time>2016-04-20T13:01:23.000Z</time>
      </trkpt>
      <trkpt lat="43.19183" lon="5.6787">
        <ele>78</ele>
        <time>2016-04-20T13:01:24.000Z</time>
      </trkpt>
      <trkpt lat="43.19181" lon="5.67865">
        <ele>77.800003051758</ele>
        <time>2016-04-20T13:01:25.000Z</time>
      </trkpt>
      <trkpt lat="43.19175" lon="5.67854">
        <ele>77.599998474121</ele>
        <time>2016-04-20T13:01:27.000Z</time>
      </trkpt>
      <trkpt lat="43.19171" lon="5.67848">
        <ele>77.599998474121</ele>
        <time>2016-04-20T13:01:28.000Z</time>
      </trkpt>
      <trkpt lat="43.19157" lon="5.67823">
        <ele>77.400001525879</ele>
        <time>2016-04-20T13:01:33.000Z</time>
      </trkpt>
      <trkpt lat="43.19151" lon="5.67812">
        <ele>77.400001525879</ele>
        <time>2016-04-20T13:01:35.000Z</time>
      </trkpt>
      <trkpt lat="43.19146" lon="5.67801">
        <ele>77.400001525879</ele>
        <time>2016-04-20T13:01:37.000Z</time>
      </trkpt>
      <trkpt lat="43.19145" lon="5.67795">
        <ele>77.599998474121</ele>
        <time>2016-04-20T13:01:38.000Z</time>
      </trkpt>
      <trkpt lat="43.19141" lon="5.67784">
        <ele>78.199996948242</ele>
        <time>2016-04-20T13:01:40.000Z</time>
      </trkpt>
      <trkpt lat="43.19139" lon="5.6776">
        <ele>78.800003051758</ele>
        <time>2016-04-20T13:01:45.000Z</time>
      </trkpt>
      <trkpt lat="43.19138" lon="5.67719">
        <ele>77.400001525879</ele>
        <time>2016-04-20T13:01:53.000Z</time>
      </trkpt>
      <trkpt lat="43.19131" lon="5.67699">
        <ele>77.400001525879</ele>
        <time>2016-04-20T13:01:58.000Z</time>
      </trkpt>
      <trkpt lat="43.19116" lon="5.67674">
        <ele>78.199996948242</ele>
        <time>2016-04-20T13:02:04.000Z</time>
      </trkpt>
      <trkpt lat="43.19103" lon="5.67655">
        <ele>78.800003051758</ele>
        <time>2016-04-20T13:02:08.000Z</time>
      </trkpt>
      <trkpt lat="43.19095" lon="5.67646">
        <ele>79.199996948242</ele>
        <time>2016-04-20T13:02:10.000Z</time>
      </trkpt>
      <trkpt lat="43.19091" lon="5.67641">
        <ele>79.400001525879</ele>
        <time>2016-04-20T13:02:11.000Z</time>
      </trkpt>
      <trkpt lat="43.19078" lon="5.67624">
        <ele>78</ele>
        <time>2016-04-20T13:02:14.000Z</time>
      </trkpt>
      <trkpt lat="43.19065" lon="5.67608">
        <ele>75.400001525879</ele>
        <time>2016-04-20T13:02:17.000Z</time>
      </trkpt>
      <trkpt lat="43.19057" lon="5.67598">
        <ele>74</ele>
        <time>2016-04-20T13:02:19.000Z</time>
      </trkpt>
      <trkpt lat="43.19053" lon="5.67593">
        <ele>73.199996948242</ele>
        <time>2016-04-20T13:02:20.000Z</time>
      </trkpt>
      <trkpt lat="43.19044" lon="5.67581">
        <ele>71.599998474121</ele>
        <time>2016-04-20T13:02:22.000Z</time>
      </trkpt>
      <trkpt lat="43.19027" lon="5.67564">
        <ele>69.400001525879</ele>
        <time>2016-04-20T13:02:25.000Z</time>
      </trkpt>
      <trkpt lat="43.19016" lon="5.67552">
        <ele>67.800003051758</ele>
        <time>2016-04-20T13:02:27.000Z</time>
      </trkpt>
      <trkpt lat="43.1901" lon="5.67547">
        <ele>66.800003051758</ele>
        <time>2016-04-20T13:02:28.000Z</time>
      </trkpt>
      <trkpt lat="43.18998" lon="5.67534">
        <ele>64</ele>
        <time>2016-04-20T13:02:30.000Z</time>
      </trkpt>
      <trkpt lat="43.18986" lon="5.67522">
        <ele>61.400001525879</ele>
        <time>2016-04-20T13:02:32.000Z</time>
      </trkpt>
      <trkpt lat="43.18981" lon="5.67516">
        <ele>60.200000762939</ele>
        <time>2016-04-20T13:02:33.000Z</time>
      </trkpt>
      <trkpt lat="43.18975" lon="5.67511">
        <ele>59</ele>
        <time>2016-04-20T13:02:34.000Z</time>
      </trkpt>
      <trkpt lat="43.1897" lon="5.67506">
        <ele>58</ele>
        <time>2016-04-20T13:02:35.000Z</time>
      </trkpt>
      <trkpt lat="43.18962" lon="5.67497">
        <ele>56.200000762939</ele>
        <time>2016-04-20T13:02:37.000Z</time>
      </trkpt>
      <trkpt lat="43.18956" lon="5.67491">
        <ele>54.799999237061</ele>
        <time>2016-04-20T13:02:39.000Z</time>
      </trkpt>
      <trkpt lat="43.18949" lon="5.67483">
        <ele>53</ele>
        <time>2016-04-20T13:02:41.000Z</time>
      </trkpt>
      <trkpt lat="43.18942" lon="5.67473">
        <ele>51</ele>
        <time>2016-04-20T13:02:43.000Z</time>
      </trkpt>
      <trkpt lat="43.18936" lon="5.67462">
        <ele>49.799999237061</ele>
        <time>2016-04-20T13:02:45.000Z</time>
      </trkpt>
      <trkpt lat="43.1893" lon="5.6745">
        <ele>49.200000762939</ele>
        <time>2016-04-20T13:02:47.000Z</time>
      </trkpt>
      <trkpt lat="43.18925" lon="5.67439">
        <ele>49</ele>
        <time>2016-04-20T13:02:49.000Z</time>
      </trkpt>
      <trkpt lat="43.18924" lon="5.67433">
        <ele>49.200000762939</ele>
        <time>2016-04-20T13:02:50.000Z</time>
      </trkpt>
      <trkpt lat="43.18923" lon="5.67427">
        <ele>49</ele>
        <time>2016-04-20T13:02:51.000Z</time>
      </trkpt>
      <trkpt lat="43.18923" lon="5.67417">
        <ele>48.400001525879</ele>
        <time>2016-04-20T13:02:53.000Z</time>
      </trkpt>
      <trkpt lat="43.18924" lon="5.67412">
        <ele>48.200000762939</ele>
        <time>2016-04-20T13:02:54.000Z</time>
      </trkpt>
      <trkpt lat="43.18924" lon="5.67408">
        <ele>47.799999237061</ele>
        <time>2016-04-20T13:02:55.000Z</time>
      </trkpt>
      <trkpt lat="43.18927" lon="5.674">
        <ele>47</ele>
        <time>2016-04-20T13:02:57.000Z</time>
      </trkpt>
      <trkpt lat="43.18928" lon="5.67394">
        <ele>46.400001525879</ele>
        <time>2016-04-20T13:02:59.000Z</time>
      </trkpt>
      <trkpt lat="43.18928" lon="5.67392">
        <ele>46.200000762939</ele>
        <time>2016-04-20T13:03:00.000Z</time>
      </trkpt>
      <trkpt lat="43.18927" lon="5.67389">
        <ele>46.200000762939</ele>
        <time>2016-04-20T13:03:01.000Z</time>
      </trkpt>
      <trkpt lat="43.18924" lon="5.67385">
        <ele>46.599998474121</ele>
        <time>2016-04-20T13:03:03.000Z</time>
      </trkpt>
      <trkpt lat="43.18921" lon="5.67384">
        <ele>47</ele>
        <time>2016-04-20T13:03:04.000Z</time>
      </trkpt>
      <trkpt lat="43.18913" lon="5.67379">
        <ele>47.599998474121</ele>
        <time>2016-04-20T13:03:06.000Z</time>
      </trkpt>
      <trkpt lat="43.18909" lon="5.67377">
        <ele>47.799999237061</ele>
        <time>2016-04-20T13:03:07.000Z</time>
      </trkpt>
      <trkpt lat="43.18901" lon="5.6737">
        <ele>48</ele>
        <time>2016-04-20T13:03:09.000Z</time>
      </trkpt>
      <trkpt lat="43.18892" lon="5.67361">
        <ele>48</ele>
        <time>2016-04-20T13:03:11.000Z</time>
      </trkpt>
      <trkpt lat="43.18889" lon="5.67355">
        <ele>47.599998474121</ele>
        <time>2016-04-20T13:03:12.000Z</time>
      </trkpt>
      <trkpt lat="43.18885" lon="5.67345">
        <ele>46.400001525879</ele>
        <time>2016-04-20T13:03:14.000Z</time>
      </trkpt>
      <trkpt lat="43.18881" lon="5.67332">
        <ele>45.599998474121</ele>
        <time>2016-04-20T13:03:17.000Z</time>
      </trkpt>
      <trkpt lat="43.18877" lon="5.6732">
        <ele>45</ele>
        <time>2016-04-20T13:03:20.000Z</time>
      </trkpt>
      <trkpt lat="43.18875" lon="5.67312">
        <ele>44.400001525879</ele>
        <time>2016-04-20T13:03:22.000Z</time>
      </trkpt>
      <trkpt lat="43.18874" lon="5.67308">
        <ele>44.200000762939</ele>
        <time>2016-04-20T13:03:23.000Z</time>
      </trkpt>
      <trkpt lat="43.18871" lon="5.67296">
        <ele>43.200000762939</ele>
        <time>2016-04-20T13:03:26.000Z</time>
      </trkpt>
      <trkpt lat="43.1887" lon="5.6728">
        <ele>41</ele>
        <time>2016-04-20T13:03:29.000Z</time>
      </trkpt>
      <trkpt lat="43.18873" lon="5.67225">
        <ele>35.200000762939</ele>
        <time>2016-04-20T13:03:39.000Z</time>
      </trkpt>
      <trkpt lat="43.18875" lon="5.67185">
        <ele>33.799999237061</ele>
        <time>2016-04-20T13:03:46.000Z</time>
      </trkpt>
      <trkpt lat="43.18879" lon="5.67128">
        <ele>33</ele>
        <time>2016-04-20T13:03:54.000Z</time>
      </trkpt>
      <trkpt lat="43.1888" lon="5.67121">
        <ele>33</ele>
        <time>2016-04-20T13:03:55.000Z</time>
      </trkpt>
      <trkpt lat="43.18881" lon="5.67108">
        <ele>32.799999237061</ele>
        <time>2016-04-20T13:03:57.000Z</time>
      </trkpt>
      <trkpt lat="43.18882" lon="5.67084">
        <ele>32.400001525879</ele>
        <time>2016-04-20T13:04:01.000Z</time>
      </trkpt>
      <trkpt lat="43.18881" lon="5.67074">
        <ele>31.60000038147</ele>
        <time>2016-04-20T13:04:03.000Z</time>
      </trkpt>
      <trkpt lat="43.1888" lon="5.67058">
        <ele>30.799999237061</ele>
        <time>2016-04-20T13:04:06.000Z</time>
      </trkpt>
      <trkpt lat="43.18877" lon="5.67035">
        <ele>29.799999237061</ele>
        <time>2016-04-20T13:04:10.000Z</time>
      </trkpt>
      <trkpt lat="43.18872" lon="5.66996">
        <ele>28.200000762939</ele>
        <time>2016-04-20T13:04:16.000Z</time>
      </trkpt>
      <trkpt lat="43.1887" lon="5.66981">
        <ele>27.799999237061</ele>
        <time>2016-04-20T13:04:18.000Z</time>
      </trkpt>
      <trkpt lat="43.18867" lon="5.66958">
        <ele>27.200000762939</ele>
        <time>2016-04-20T13:04:21.000Z</time>
      </trkpt>
      <trkpt lat="43.18863" lon="5.66928">
        <ele>26</ele>
        <time>2016-04-20T13:04:25.000Z</time>
      </trkpt>
      <trkpt lat="43.18859" lon="5.66901">
        <ele>24.799999237061</ele>
        <time>2016-04-20T13:04:29.000Z</time>
      </trkpt>
      <trkpt lat="43.18858" lon="5.66894">
        <ele>24.799999237061</ele>
        <time>2016-04-20T13:04:30.000Z</time>
      </trkpt>
      <trkpt lat="43.18856" lon="5.66882">
        <ele>24.60000038147</ele>
        <time>2016-04-20T13:04:32.000Z</time>
      </trkpt>
      <trkpt lat="43.18851" lon="5.66852">
        <ele>24.799999237061</ele>
        <time>2016-04-20T13:04:37.000Z</time>
      </trkpt>
      <trkpt lat="43.18845" lon="5.66818">
        <ele>24.799999237061</ele>
        <time>2016-04-20T13:04:43.000Z</time>
      </trkpt>
      <trkpt lat="43.18844" lon="5.66811">
        <ele>24.799999237061</ele>
        <time>2016-04-20T13:04:44.000Z</time>
      </trkpt>
      <trkpt lat="43.18842" lon="5.66799">
        <ele>25</ele>
        <time>2016-04-20T13:04:46.000Z</time>
      </trkpt>
      <trkpt lat="43.18839" lon="5.66768">
        <ele>25</ele>
        <time>2016-04-20T13:04:51.000Z</time>
      </trkpt>
      <trkpt lat="43.18838" lon="5.66728">
        <ele>25</ele>
        <time>2016-04-20T13:04:57.000Z</time>
      </trkpt>
      <trkpt lat="43.18837" lon="5.66714">
        <ele>25.200000762939</ele>
        <time>2016-04-20T13:04:59.000Z</time>
      </trkpt>
      <trkpt lat="43.18834" lon="5.66694">
        <ele>25.39999961853</ele>
        <time>2016-04-20T13:05:02.000Z</time>
      </trkpt>
      <trkpt lat="43.18829" lon="5.66676">
        <ele>25.799999237061</ele>
        <time>2016-04-20T13:05:05.000Z</time>
      </trkpt>
      <trkpt lat="43.18814" lon="5.66625">
        <ele>26.60000038147</ele>
        <time>2016-04-20T13:05:14.000Z</time>
      </trkpt>
      <trkpt lat="43.18812" lon="5.6662">
        <ele>26.799999237061</ele>
        <time>2016-04-20T13:05:15.000Z</time>
      </trkpt>
      <trkpt lat="43.18802" lon="5.66589">
        <ele>27.799999237061</ele>
        <time>2016-04-20T13:05:21.000Z</time>
      </trkpt>
      <trkpt lat="43.18792" lon="5.66556">
        <ele>29.200000762939</ele>
        <time>2016-04-20T13:05:28.000Z</time>
      </trkpt>
      <trkpt lat="43.1878" lon="5.66522">
        <ele>29.60000038147</ele>
        <time>2016-04-20T13:05:35.000Z</time>
      </trkpt>
      <trkpt lat="43.18766" lon="5.66483">
        <ele>29.799999237061</ele>
        <time>2016-04-20T13:05:42.000Z</time>
      </trkpt>
      <trkpt lat="43.1876" lon="5.66466">
        <ele>29.799999237061</ele>
        <time>2016-04-20T13:05:45.000Z</time>
      </trkpt>
      <trkpt lat="43.18749" lon="5.66437">
        <ele>27.799999237061</ele>
        <time>2016-04-20T13:05:49.000Z</time>
      </trkpt>
      <trkpt lat="43.18745" lon="5.66421">
        <ele>26.799999237061</ele>
        <time>2016-04-20T13:05:51.000Z</time>
      </trkpt>
      <trkpt lat="43.18743" lon="5.66414">
        <ele>26.39999961853</ele>
        <time>2016-04-20T13:05:52.000Z</time>
      </trkpt>
      <trkpt lat="43.18739" lon="5.66401">
        <ele>25.60000038147</ele>
        <time>2016-04-20T13:05:54.000Z</time>
      </trkpt>
      <trkpt lat="43.18735" lon="5.66388">
        <ele>24.799999237061</ele>
        <time>2016-04-20T13:05:56.000Z</time>
      </trkpt>
      <trkpt lat="43.18732" lon="5.66381">
        <ele>24.60000038147</ele>
        <time>2016-04-20T13:05:57.000Z</time>
      </trkpt>
      <trkpt lat="43.18721" lon="5.66363">
        <ele>23.799999237061</ele>
        <time>2016-04-20T13:06:00.000Z</time>
      </trkpt>
      <trkpt lat="43.18718" lon="5.66357">
        <ele>23.39999961853</ele>
        <time>2016-04-20T13:06:01.000Z</time>
      </trkpt>
      <trkpt lat="43.1871" lon="5.66341">
        <ele>23</ele>
        <time>2016-04-20T13:06:04.000Z</time>
      </trkpt>
      <trkpt lat="43.18706" lon="5.66336">
        <ele>22.60000038147</ele>
        <time>2016-04-20T13:06:05.000Z</time>
      </trkpt>
      <trkpt lat="43.18703" lon="5.66332">
        <ele>22.200000762939</ele>
        <time>2016-04-20T13:06:06.000Z</time>
      </trkpt>
      <trkpt lat="43.18691" lon="5.66319">
        <ele>21.200000762939</ele>
        <time>2016-04-20T13:06:09.000Z</time>
      </trkpt>
      <trkpt lat="43.18683" lon="5.66311">
        <ele>20.39999961853</ele>
        <time>2016-04-20T13:06:11.000Z</time>
      </trkpt>
      <trkpt lat="43.18671" lon="5.66296">
        <ele>19.799999237061</ele>
        <time>2016-04-20T13:06:14.000Z</time>
      </trkpt>
      <trkpt lat="43.1866" lon="5.66278">
        <ele>19.200000762939</ele>
        <time>2016-04-20T13:06:17.000Z</time>
      </trkpt>
      <trkpt lat="43.18651" lon="5.66258">
        <ele>18.799999237061</ele>
        <time>2016-04-20T13:06:20.000Z</time>
      </trkpt>
      <trkpt lat="43.18644" lon="5.66238">
        <ele>18.39999961853</ele>
        <time>2016-04-20T13:06:23.000Z</time>
      </trkpt>
      <trkpt lat="43.18641" lon="5.66232">
        <ele>18.200000762939</ele>
        <time>2016-04-20T13:06:24.000Z</time>
      </trkpt>
      <trkpt lat="43.18629" lon="5.66219">
        <ele>17.799999237061</ele>
        <time>2016-04-20T13:06:27.000Z</time>
      </trkpt>
      <trkpt lat="43.18624" lon="5.66215">
        <ele>17.60000038147</ele>
        <time>2016-04-20T13:06:28.000Z</time>
      </trkpt>
      <trkpt lat="43.18596" lon="5.66196">
        <ele>16.799999237061</ele>
        <time>2016-04-20T13:06:35.000Z</time>
      </trkpt>
      <trkpt lat="43.18587" lon="5.66192">
        <ele>17.200000762939</ele>
        <time>2016-04-20T13:06:37.000Z</time>
      </trkpt>
      <trkpt lat="43.18572" lon="5.66192">
        <ele>18</ele>
        <time>2016-04-20T13:06:40.000Z</time>
      </trkpt>
      <trkpt lat="43.18552" lon="5.66191">
        <ele>18.60000038147</ele>
        <time>2016-04-20T13:06:45.000Z</time>
      </trkpt>
      <trkpt lat="43.18548" lon="5.66189">
        <ele>18.60000038147</ele>
        <time>2016-04-20T13:06:46.000Z</time>
      </trkpt>
      <trkpt lat="43.18543" lon="5.6618">
        <ele>19</ele>
        <time>2016-04-20T13:06:48.000Z</time>
      </trkpt>
      <trkpt lat="43.18538" lon="5.66168">
        <ele>19.60000038147</ele>
        <time>2016-04-20T13:06:53.000Z</time>
      </trkpt>
      <trkpt lat="43.18538" lon="5.66164">
        <ele>19.60000038147</ele>
        <time>2016-04-20T13:07:10.000Z</time>
      </trkpt>
      <trkpt lat="43.1854" lon="5.66158">
        <ele>19.60000038147</ele>
        <time>2016-04-20T13:07:12.000Z</time>
      </trkpt>
      <trkpt lat="43.18544" lon="5.66144">
        <ele>19.200000762939</ele>
        <time>2016-04-20T13:07:15.000Z</time>
      </trkpt>
      <trkpt lat="43.18546" lon="5.66138">
        <ele>19</ele>
        <time>2016-04-20T13:07:16.000Z</time>
      </trkpt>
      <trkpt lat="43.18559" lon="5.66098">
        <ele>21.200000762939</ele>
        <time>2016-04-20T13:07:23.000Z</time>
      </trkpt>
      <trkpt lat="43.18562" lon="5.66092">
        <ele>21.200000762939</ele>
        <time>2016-04-20T13:07:24.000Z</time>
      </trkpt>
      <trkpt lat="43.18574" lon="5.66053">
        <ele>21.200000762939</ele>
        <time>2016-04-20T13:07:31.000Z</time>
      </trkpt>
      <trkpt lat="43.18576" lon="5.66047">
        <ele>21</ele>
        <time>2016-04-20T13:07:32.000Z</time>
      </trkpt>
      <trkpt lat="43.18589" lon="5.6601">
        <ele>20.39999961853</ele>
        <time>2016-04-20T13:07:38.000Z</time>
      </trkpt>
      <trkpt lat="43.18591" lon="5.66004">
        <ele>20.39999961853</ele>
        <time>2016-04-20T13:07:39.000Z</time>
      </trkpt>
      <trkpt lat="43.18603" lon="5.65965">
        <ele>21.39999961853</ele>
        <time>2016-04-20T13:07:45.000Z</time>
      </trkpt>
      <trkpt lat="43.18611" lon="5.65939">
        <ele>23.60000038147</ele>
        <time>2016-04-20T13:07:49.000Z</time>
      </trkpt>
      <trkpt lat="43.18624" lon="5.65899">
        <ele>25.60000038147</ele>
        <time>2016-04-20T13:07:55.000Z</time>
      </trkpt>
      <trkpt lat="43.18628" lon="5.65885">
        <ele>25.39999961853</ele>
        <time>2016-04-20T13:07:57.000Z</time>
      </trkpt>
      <trkpt lat="43.18639" lon="5.65851">
        <ele>26.60000038147</ele>
        <time>2016-04-20T13:08:02.000Z</time>
      </trkpt>
      <trkpt lat="43.1865" lon="5.65816">
        <ele>26.799999237061</ele>
        <time>2016-04-20T13:08:07.000Z</time>
      </trkpt>
      <trkpt lat="43.18652" lon="5.65809">
        <ele>26.799999237061</ele>
        <time>2016-04-20T13:08:08.000Z</time>
      </trkpt>
      <trkpt lat="43.18667" lon="5.65753">
        <ele>25.799999237061</ele>
        <time>2016-04-20T13:08:16.000Z</time>
      </trkpt>
      <trkpt lat="43.18681" lon="5.65679">
        <ele>25.799999237061</ele>
        <time>2016-04-20T13:08:26.000Z</time>
      </trkpt>
      <trkpt lat="43.18683" lon="5.65656">
        <ele>25.60000038147</ele>
        <time>2016-04-20T13:08:29.000Z</time>
      </trkpt>
      <trkpt lat="43.18686" lon="5.65604">
        <ele>26.39999961853</ele>
        <time>2016-04-20T13:08:36.000Z</time>
      </trkpt>
      <trkpt lat="43.18692" lon="5.6553">
        <ele>28.39999961853</ele>
        <time>2016-04-20T13:08:46.000Z</time>
      </trkpt>
      <trkpt lat="43.18692" lon="5.65523">
        <ele>28.60000038147</ele>
        <time>2016-04-20T13:08:47.000Z</time>
      </trkpt>
      <trkpt lat="43.18702" lon="5.65458">
        <ele>30.200000762939</ele>
        <time>2016-04-20T13:08:56.000Z</time>
      </trkpt>
      <trkpt lat="43.18703" lon="5.65451">
        <ele>30</ele>
        <time>2016-04-20T13:08:57.000Z</time>
      </trkpt>
      <trkpt lat="43.1872" lon="5.65404">
        <ele>28.799999237061</ele>
        <time>2016-04-20T13:09:04.000Z</time>
      </trkpt>
      <trkpt lat="43.18746" lon="5.65359">
        <ele>26.799999237061</ele>
        <time>2016-04-20T13:09:11.000Z</time>
      </trkpt>
      <trkpt lat="43.1878" lon="5.65317">
        <ele>26.39999961853</ele>
        <time>2016-04-20T13:09:18.000Z</time>
      </trkpt>
      <trkpt lat="43.18809" lon="5.65284">
        <ele>30.39999961853</ele>
        <time>2016-04-20T13:09:23.000Z</time>
      </trkpt>
      <trkpt lat="43.1882" lon="5.65271">
        <ele>30.60000038147</ele>
        <time>2016-04-20T13:09:25.000Z</time>
      </trkpt>
      <trkpt lat="43.18826" lon="5.65265">
        <ele>30.39999961853</ele>
        <time>2016-04-20T13:09:26.000Z</time>
      </trkpt>
      <trkpt lat="43.18844" lon="5.65245">
        <ele>29.60000038147</ele>
        <time>2016-04-20T13:09:29.000Z</time>
      </trkpt>
      <trkpt lat="43.18862" lon="5.65224">
        <ele>26.799999237061</ele>
        <time>2016-04-20T13:09:32.000Z</time>
      </trkpt>
      <trkpt lat="43.1888" lon="5.65202">
        <ele>26.39999961853</ele>
        <time>2016-04-20T13:09:35.000Z</time>
      </trkpt>
      <trkpt lat="43.18885" lon="5.65194">
        <ele>26.200000762939</ele>
        <time>2016-04-20T13:09:36.000Z</time>
      </trkpt>
      <trkpt lat="43.18902" lon="5.6517">
        <ele>24.200000762939</ele>
        <time>2016-04-20T13:09:39.000Z</time>
      </trkpt>
      <trkpt lat="43.18916" lon="5.65145">
        <ele>20.799999237061</ele>
        <time>2016-04-20T13:09:42.000Z</time>
      </trkpt>
      <trkpt lat="43.1892" lon="5.65137">
        <ele>19.60000038147</ele>
        <time>2016-04-20T13:09:43.000Z</time>
      </trkpt>
      <trkpt lat="43.18932" lon="5.6511">
        <ele>17</ele>
        <time>2016-04-20T13:09:46.000Z</time>
      </trkpt>
      <trkpt lat="43.18942" lon="5.65083">
        <ele>14</ele>
        <time>2016-04-20T13:09:49.000Z</time>
      </trkpt>
      <trkpt lat="43.18949" lon="5.6506">
        <ele>11.60000038147</ele>
        <time>2016-04-20T13:09:52.000Z</time>
      </trkpt>
      <trkpt lat="43.18951" lon="5.65047">
        <ele>11</ele>
        <time>2016-04-20T13:09:54.000Z</time>
      </trkpt>
      <trkpt lat="43.18954" lon="5.65036">
        <ele>10.800000190735</ele>
        <time>2016-04-20T13:09:56.000Z</time>
      </trkpt>
      <trkpt lat="43.18961" lon="5.65029">
        <ele>11</ele>
        <time>2016-04-20T13:09:58.000Z</time>
      </trkpt>
      <trkpt lat="43.18975" lon="5.65028">
        <ele>11.60000038147</ele>
        <time>2016-04-20T13:10:02.000Z</time>
      </trkpt>
      <trkpt lat="43.18979" lon="5.65028">
        <ele>11.800000190735</ele>
        <time>2016-04-20T13:10:03.000Z</time>
      </trkpt>
      <trkpt lat="43.18987" lon="5.65025">
        <ele>12.199999809265</ele>
        <time>2016-04-20T13:10:06.000Z</time>
      </trkpt>
      <trkpt lat="43.18989" lon="5.65022">
        <ele>12.199999809265</ele>
        <time>2016-04-20T13:10:07.000Z</time>
      </trkpt>
      <trkpt lat="43.18992" lon="5.65009">
        <ele>12.39999961853</ele>
        <time>2016-04-20T13:10:10.000Z</time>
      </trkpt>
      <trkpt lat="43.18993" lon="5.65005">
        <ele>12.39999961853</ele>
        <time>2016-04-20T13:10:11.000Z</time>
      </trkpt>
      <trkpt lat="43.18995" lon="5.64988">
        <ele>12.199999809265</ele>
        <time>2016-04-20T13:10:16.000Z</time>
      </trkpt>
      <trkpt lat="43.18995" lon="5.64966">
        <ele>12</ele>
        <time>2016-04-20T13:10:22.000Z</time>
      </trkpt>
      <trkpt lat="43.18996" lon="5.64952">
        <ele>12</ele>
        <time>2016-04-20T13:10:26.000Z</time>
      </trkpt>
      <trkpt lat="43.18997" lon="5.64938">
        <ele>12.199999809265</ele>
        <time>2016-04-20T13:10:30.000Z</time>
      </trkpt>
      <trkpt lat="43.18997" lon="5.64935">
        <ele>12.199999809265</ele>
        <time>2016-04-20T13:10:52.000Z</time>
      </trkpt>
      <trkpt lat="43.18996" lon="5.64927">
        <ele>12</ele>
        <time>2016-04-20T13:10:55.000Z</time>
      </trkpt>
      <trkpt lat="43.18992" lon="5.64923">
        <ele>11.800000190735</ele>
        <time>2016-04-20T13:10:57.000Z</time>
      </trkpt>
      <trkpt lat="43.18973" lon="5.6492">
        <ele>10.800000190735</ele>
        <time>2016-04-20T13:11:01.000Z</time>
      </trkpt>
      <trkpt lat="43.18963" lon="5.64922">
        <ele>10</ele>
        <time>2016-04-20T13:11:03.000Z</time>
      </trkpt>
      <trkpt lat="43.18942" lon="5.64929">
        <ele>8.8000001907349</ele>
        <time>2016-04-20T13:11:07.000Z</time>
      </trkpt>
      <trkpt lat="43.18938" lon="5.64933">
        <ele>8.6000003814697</ele>
        <time>2016-04-20T13:11:08.000Z</time>
      </trkpt>
      <trkpt lat="43.18924" lon="5.64957">
        <ele>7.8000001907349</ele>
        <time>2016-04-20T13:11:13.000Z</time>
      </trkpt>
      <trkpt lat="43.1892" lon="5.64982">
        <ele>8.1999998092651</ele>
        <time>2016-04-20T13:11:17.000Z</time>
      </trkpt>
      <trkpt lat="43.18919" lon="5.64988">
        <ele>8.1999998092651</ele>
        <time>2016-04-20T13:11:18.000Z</time>
      </trkpt>
      <trkpt lat="43.18909" lon="5.65003">
        <ele>8.3999996185303</ele>
        <time>2016-04-20T13:11:22.000Z</time>
      </trkpt>
      <trkpt lat="43.18901" lon="5.65004">
        <ele>8.1999998092651</ele>
        <time>2016-04-20T13:11:24.000Z</time>
      </trkpt>
      <trkpt lat="43.18893" lon="5.65002">
        <ele>8</ele>
        <time>2016-04-20T13:11:26.000Z</time>
      </trkpt>
      <trkpt lat="43.18873" lon="5.64999">
        <ele>7.4000000953674</ele>
        <time>2016-04-20T13:11:32.000Z</time>
      </trkpt>
      <trkpt lat="43.18867" lon="5.65003">
        <ele>7.4000000953674</ele>
        <time>2016-04-20T13:12:26.000Z</time>
      </trkpt>
      <trkpt lat="43.18865" lon="5.65004">
        <ele>7.4000000953674</ele>
        <time>2016-04-20T13:17:27.000Z</time>
      </trkpt>
      <trkpt lat="43.18867" lon="5.65016">
        <ele>8</ele>
        <time>2016-04-20T13:17:30.000Z</time>
      </trkpt>
      <trkpt lat="43.18872" lon="5.65047">
        <ele>9.1999998092651</ele>
        <time>2016-04-20T13:17:35.000Z</time>
      </trkpt>
      <trkpt lat="43.18875" lon="5.65072">
        <ele>11.60000038147</ele>
        <time>2016-04-20T13:17:39.000Z</time>
      </trkpt>
      <trkpt lat="43.18877" lon="5.65097">
        <ele>14.199999809265</ele>
        <time>2016-04-20T13:17:43.000Z</time>
      </trkpt>
      <trkpt lat="43.18879" lon="5.65109">
        <ele>15.199999809265</ele>
        <time>2016-04-20T13:17:45.000Z</time>
      </trkpt>
      <trkpt lat="43.18883" lon="5.65134">
        <ele>17.200000762939</ele>
        <time>2016-04-20T13:17:49.000Z</time>
      </trkpt>
      <trkpt lat="43.18885" lon="5.65146">
        <ele>19</ele>
        <time>2016-04-20T13:17:51.000Z</time>
      </trkpt>
      <trkpt lat="43.18886" lon="5.65157">
        <ele>21</ele>
        <time>2016-04-20T13:17:53.000Z</time>
      </trkpt>
      <trkpt lat="43.18888" lon="5.65168">
        <ele>23</ele>
        <time>2016-04-20T13:17:56.000Z</time>
      </trkpt>
      <trkpt lat="43.18889" lon="5.65169">
        <ele>23.200000762939</ele>
        <time>2016-04-20T13:17:57.000Z</time>
      </trkpt>
      <trkpt lat="43.18886" lon="5.65178">
        <ele>24.39999961853</ele>
        <time>2016-04-20T13:18:08.000Z</time>
      </trkpt>
      <trkpt lat="43.1888" lon="5.65185">
        <ele>24.39999961853</ele>
        <time>2016-04-20T13:18:11.000Z</time>
      </trkpt>
      <trkpt lat="43.18866" lon="5.65205">
        <ele>25</ele>
        <time>2016-04-20T13:18:18.000Z</time>
      </trkpt>
      <trkpt lat="43.18864" lon="5.65208">
        <ele>25.200000762939</ele>
        <time>2016-04-20T13:18:19.000Z</time>
      </trkpt>
      <trkpt lat="43.18851" lon="5.65227">
        <ele>25.799999237061</ele>
        <time>2016-04-20T13:18:25.000Z</time>
      </trkpt>
      <trkpt lat="43.18838" lon="5.65244">
        <ele>28.200000762939</ele>
        <time>2016-04-20T13:18:31.000Z</time>
      </trkpt>
      <trkpt lat="43.18826" lon="5.6526">
        <ele>29.200000762939</ele>
        <time>2016-04-20T13:18:36.000Z</time>
      </trkpt>
      <trkpt lat="43.1882" lon="5.65266">
        <ele>29.39999961853</ele>
        <time>2016-04-20T13:18:38.000Z</time>
      </trkpt>
      <trkpt lat="43.18811" lon="5.65276">
        <ele>29.39999961853</ele>
        <time>2016-04-20T13:18:41.000Z</time>
      </trkpt>
      <trkpt lat="43.18798" lon="5.65291">
        <ele>28.60000038147</ele>
        <time>2016-04-20T13:18:46.000Z</time>
      </trkpt>
      <trkpt lat="43.18792" lon="5.65298">
        <ele>28.200000762939</ele>
        <time>2016-04-20T13:18:48.000Z</time>
      </trkpt>
      <trkpt lat="43.18779" lon="5.65311">
        <ele>25.799999237061</ele>
        <time>2016-04-20T13:18:53.000Z</time>
      </trkpt>
      <trkpt lat="43.18774" lon="5.65317">
        <ele>24.799999237061</ele>
        <time>2016-04-20T13:18:55.000Z</time>
      </trkpt>
      <trkpt lat="43.18764" lon="5.65329">
        <ele>25.200000762939</ele>
        <time>2016-04-20T13:18:59.000Z</time>
      </trkpt>
      <trkpt lat="43.18751" lon="5.65344">
        <ele>25.39999961853</ele>
        <time>2016-04-20T13:19:04.000Z</time>
      </trkpt>
      <trkpt lat="43.18741" lon="5.65355">
        <ele>25.60000038147</ele>
        <time>2016-04-20T13:19:07.000Z</time>
      </trkpt>
      <trkpt lat="43.18727" lon="5.65373">
        <ele>26.200000762939</ele>
        <time>2016-04-20T13:19:11.000Z</time>
      </trkpt>
      <trkpt lat="43.18715" lon="5.65394">
        <ele>27.200000762939</ele>
        <time>2016-04-20T13:19:15.000Z</time>
      </trkpt>
      <trkpt lat="43.18706" lon="5.65417">
        <ele>27.799999237061</ele>
        <time>2016-04-20T13:19:19.000Z</time>
      </trkpt>
      <trkpt lat="43.18696" lon="5.65441">
        <ele>28</ele>
        <time>2016-04-20T13:19:23.000Z</time>
      </trkpt>
      <trkpt lat="43.18691" lon="5.6546">
        <ele>28.60000038147</ele>
        <time>2016-04-20T13:19:26.000Z</time>
      </trkpt>
      <trkpt lat="43.18684" lon="5.65513">
        <ele>27.39999961853</ele>
        <time>2016-04-20T13:19:34.000Z</time>
      </trkpt>
      <trkpt lat="43.18679" lon="5.65585">
        <ele>25.799999237061</ele>
        <time>2016-04-20T13:19:44.000Z</time>
      </trkpt>
      <trkpt lat="43.18677" lon="5.65625">
        <ele>25</ele>
        <time>2016-04-20T13:19:49.000Z</time>
      </trkpt>
      <trkpt lat="43.18675" lon="5.65657">
        <ele>25</ele>
        <time>2016-04-20T13:19:53.000Z</time>
      </trkpt>
      <trkpt lat="43.18667" lon="5.65714">
        <ele>25.60000038147</ele>
        <time>2016-04-20T13:20:00.000Z</time>
      </trkpt>
      <trkpt lat="43.18659" lon="5.65746">
        <ele>26</ele>
        <time>2016-04-20T13:20:04.000Z</time>
      </trkpt>
      <trkpt lat="43.1865" lon="5.65779">
        <ele>25.799999237061</ele>
        <time>2016-04-20T13:20:08.000Z</time>
      </trkpt>
      <trkpt lat="43.1863" lon="5.6584">
        <ele>27.60000038147</ele>
        <time>2016-04-20T13:20:16.000Z</time>
      </trkpt>
      <trkpt lat="43.18624" lon="5.65863">
        <ele>26.799999237061</ele>
        <time>2016-04-20T13:20:19.000Z</time>
      </trkpt>
      <trkpt lat="43.18608" lon="5.65913">
        <ele>25.39999961853</ele>
        <time>2016-04-20T13:20:25.000Z</time>
      </trkpt>
      <trkpt lat="43.186" lon="5.6594">
        <ele>23.200000762939</ele>
        <time>2016-04-20T13:20:28.000Z</time>
      </trkpt>
      <trkpt lat="43.18583" lon="5.65994">
        <ele>21.200000762939</ele>
        <time>2016-04-20T13:20:34.000Z</time>
      </trkpt>
      <trkpt lat="43.18568" lon="5.6604">
        <ele>21.60000038147</ele>
        <time>2016-04-20T13:20:39.000Z</time>
      </trkpt>
      <trkpt lat="43.18557" lon="5.66077">
        <ele>22.200000762939</ele>
        <time>2016-04-20T13:20:43.000Z</time>
      </trkpt>
      <trkpt lat="43.18552" lon="5.66096">
        <ele>22</ele>
        <time>2016-04-20T13:20:45.000Z</time>
      </trkpt>
      <trkpt lat="43.18542" lon="5.66123">
        <ele>20.200000762939</ele>
        <time>2016-04-20T13:20:48.000Z</time>
      </trkpt>
      <trkpt lat="43.18532" lon="5.66147">
        <ele>20</ele>
        <time>2016-04-20T13:20:51.000Z</time>
      </trkpt>
      <trkpt lat="43.18527" lon="5.66159">
        <ele>20</ele>
        <time>2016-04-20T13:20:53.000Z</time>
      </trkpt>
      <trkpt lat="43.18524" lon="5.66164">
        <ele>19.799999237061</ele>
        <time>2016-04-20T13:20:54.000Z</time>
      </trkpt>
      <trkpt lat="43.18521" lon="5.66168">
        <ele>19.799999237061</ele>
        <time>2016-04-20T13:20:55.000Z</time>
      </trkpt>
      <trkpt lat="43.18514" lon="5.66176">
        <ele>19.60000038147</ele>
        <time>2016-04-20T13:20:57.000Z</time>
      </trkpt>
      <trkpt lat="43.18502" lon="5.66189">
        <ele>19.200000762939</ele>
        <time>2016-04-20T13:21:00.000Z</time>
      </trkpt>
      <trkpt lat="43.18498" lon="5.66193">
        <ele>19</ele>
        <time>2016-04-20T13:21:01.000Z</time>
      </trkpt>
      <trkpt lat="43.18482" lon="5.66207">
        <ele>17.200000762939</ele>
        <time>2016-04-20T13:21:04.000Z</time>
      </trkpt>
      <trkpt lat="43.18469" lon="5.66217">
        <ele>15.199999809265</ele>
        <time>2016-04-20T13:21:06.000Z</time>
      </trkpt>
      <trkpt lat="43.18463" lon="5.66222">
        <ele>14.60000038147</ele>
        <time>2016-04-20T13:21:07.000Z</time>
      </trkpt>
      <trkpt lat="43.18428" lon="5.66251">
        <ele>13.60000038147</ele>
        <time>2016-04-20T13:21:13.000Z</time>
      </trkpt>
      <trkpt lat="43.18405" lon="5.66273">
        <ele>13.39999961853</ele>
        <time>2016-04-20T13:21:18.000Z</time>
      </trkpt>
      <trkpt lat="43.18402" lon="5.66277">
        <ele>13.39999961853</ele>
        <time>2016-04-20T13:21:19.000Z</time>
      </trkpt>
      <trkpt lat="43.18389" lon="5.66299">
        <ele>13</ele>
        <time>2016-04-20T13:21:24.000Z</time>
      </trkpt>
      <trkpt lat="43.18388" lon="5.66303">
        <ele>13</ele>
        <time>2016-04-20T13:21:25.000Z</time>
      </trkpt>
      <trkpt lat="43.18379" lon="5.66325">
        <ele>12.199999809265</ele>
        <time>2016-04-20T13:21:30.000Z</time>
      </trkpt>
      <trkpt lat="43.18373" lon="5.66339">
        <ele>12</ele>
        <time>2016-04-20T13:21:33.000Z</time>
      </trkpt>
      <trkpt lat="43.18364" lon="5.66367">
        <ele>12.800000190735</ele>
        <time>2016-04-20T13:21:38.000Z</time>
      </trkpt>
      <trkpt lat="43.18345" lon="5.6642">
        <ele>14.199999809265</ele>
        <time>2016-04-20T13:21:48.000Z</time>
      </trkpt>
      <trkpt lat="43.18334" lon="5.66451">
        <ele>15.60000038147</ele>
        <time>2016-04-20T13:21:54.000Z</time>
      </trkpt>
      <trkpt lat="43.18317" lon="5.66471">
        <ele>16.39999961853</ele>
        <time>2016-04-20T13:22:00.000Z</time>
      </trkpt>
      <trkpt lat="43.18306" lon="5.66478">
        <ele>17.200000762939</ele>
        <time>2016-04-20T13:22:05.000Z</time>
      </trkpt>
      <trkpt lat="43.18297" lon="5.66488">
        <ele>18.39999961853</ele>
        <time>2016-04-20T13:22:11.000Z</time>
      </trkpt>
      <trkpt lat="43.18285" lon="5.66509">
        <ele>18.799999237061</ele>
        <time>2016-04-20T13:22:18.000Z</time>
      </trkpt>
      <trkpt lat="43.18282" lon="5.66539">
        <ele>18.200000762939</ele>
        <time>2016-04-20T13:22:25.000Z</time>
      </trkpt>
      <trkpt lat="43.18279" lon="5.66563">
        <ele>18.39999961853</ele>
        <time>2016-04-20T13:22:31.000Z</time>
      </trkpt>
      <trkpt lat="43.18278" lon="5.66571">
        <ele>18.799999237061</ele>
        <time>2016-04-20T13:22:33.000Z</time>
      </trkpt>
      <trkpt lat="43.18275" lon="5.66594">
        <ele>18</ele>
        <time>2016-04-20T13:22:39.000Z</time>
      </trkpt>
      <trkpt lat="43.18275" lon="5.66598">
        <ele>17.799999237061</ele>
        <time>2016-04-20T13:22:40.000Z</time>
      </trkpt>
      <trkpt lat="43.18274" lon="5.66616">
        <ele>17.60000038147</ele>
        <time>2016-04-20T13:22:45.000Z</time>
      </trkpt>
      <trkpt lat="43.18273" lon="5.66623">
        <ele>17.200000762939</ele>
        <time>2016-04-20T13:22:47.000Z</time>
      </trkpt>
      <trkpt lat="43.18271" lon="5.66642">
        <ele>16.60000038147</ele>
        <time>2016-04-20T13:22:52.000Z</time>
      </trkpt>
      <trkpt lat="43.18266" lon="5.66665">
        <ele>16.799999237061</ele>
        <time>2016-04-20T13:22:59.000Z</time>
      </trkpt>
      <trkpt lat="43.18263" lon="5.66675">
        <ele>17</ele>
        <time>2016-04-20T13:26:25.000Z</time>
      </trkpt>
      <trkpt lat="43.18262" lon="5.66682">
        <ele>17.200000762939</ele>
        <time>2016-04-20T13:26:28.000Z</time>
      </trkpt>
      <trkpt lat="43.18255" lon="5.66708">
        <ele>18.39999961853</ele>
        <time>2016-04-20T13:26:35.000Z</time>
      </trkpt>
      <trkpt lat="43.18249" lon="5.66726">
        <ele>17.60000038147</ele>
        <time>2016-04-20T13:26:40.000Z</time>
      </trkpt>
      <trkpt lat="43.18246" lon="5.66734">
        <ele>17.39999961853</ele>
        <time>2016-04-20T13:26:42.000Z</time>
      </trkpt>
      <trkpt lat="43.18238" lon="5.66751">
        <ele>17</ele>
        <time>2016-04-20T13:26:48.000Z</time>
      </trkpt>
      <trkpt lat="43.18226" lon="5.66771">
        <ele>16</ele>
        <time>2016-04-20T13:26:55.000Z</time>
      </trkpt>
      <trkpt lat="43.18208" lon="5.66795">
        <ele>13.800000190735</ele>
        <time>2016-04-20T13:27:03.000Z</time>
      </trkpt>
      <trkpt lat="43.18201" lon="5.66805">
        <ele>13</ele>
        <time>2016-04-20T13:27:07.000Z</time>
      </trkpt>
      <trkpt lat="43.18199" lon="5.66808">
        <ele>12.60000038147</ele>
        <time>2016-04-20T13:27:09.000Z</time>
      </trkpt>
      <trkpt lat="43.18193" lon="5.66819">
        <ele>11.60000038147</ele>
        <time>2016-04-20T13:28:58.000Z</time>
      </trkpt>
      <trkpt lat="43.18182" lon="5.66836">
        <ele>12.800000190735</ele>
        <time>2016-04-20T13:29:03.000Z</time>
      </trkpt>
      <trkpt lat="43.18168" lon="5.66858">
        <ele>14.60000038147</ele>
        <time>2016-04-20T13:29:08.000Z</time>
      </trkpt>
      <trkpt lat="43.18166" lon="5.66861">
        <ele>14.800000190735</ele>
        <time>2016-04-20T13:29:09.000Z</time>
      </trkpt>
      <trkpt lat="43.18159" lon="5.66874">
        <ele>15.800000190735</ele>
        <time>2016-04-20T13:34:31.000Z</time>
      </trkpt>
      <trkpt lat="43.18154" lon="5.66881">
        <ele>16.39999961853</ele>
        <time>2016-04-20T13:34:33.000Z</time>
      </trkpt>
      <trkpt lat="43.18138" lon="5.66902">
        <ele>17</ele>
        <time>2016-04-20T13:34:38.000Z</time>
      </trkpt>
      <trkpt lat="43.18124" lon="5.66917">
        <ele>17</ele>
        <time>2016-04-20T13:34:41.000Z</time>
      </trkpt>
      <trkpt lat="43.18118" lon="5.66929">
        <ele>16</ele>
        <time>2016-04-20T13:34:43.000Z</time>
      </trkpt>
      <trkpt lat="43.18115" lon="5.66937">
        <ele>15.60000038147</ele>
        <time>2016-04-20T13:34:44.000Z</time>
      </trkpt>
      <trkpt lat="43.1811" lon="5.66954">
        <ele>14.60000038147</ele>
        <time>2016-04-20T13:34:46.000Z</time>
      </trkpt>
      <trkpt lat="43.18102" lon="5.66982">
        <ele>14</ele>
        <time>2016-04-20T13:34:49.000Z</time>
      </trkpt>
      <trkpt lat="43.181" lon="5.66991">
        <ele>14.199999809265</ele>
        <time>2016-04-20T13:34:50.000Z</time>
      </trkpt>
      <trkpt lat="43.18088" lon="5.6703">
        <ele>15.60000038147</ele>
        <time>2016-04-20T13:34:55.000Z</time>
      </trkpt>
      <trkpt lat="43.18074" lon="5.67074">
        <ele>16.60000038147</ele>
        <time>2016-04-20T13:35:02.000Z</time>
      </trkpt>
      <trkpt lat="43.18072" lon="5.67086">
        <ele>17</ele>
        <time>2016-04-20T13:35:04.000Z</time>
      </trkpt>
      <trkpt lat="43.1807" lon="5.67107">
        <ele>17.799999237061</ele>
        <time>2016-04-20T13:35:08.000Z</time>
      </trkpt>
      <trkpt lat="43.18067" lon="5.67134">
        <ele>19</ele>
        <time>2016-04-20T13:35:13.000Z</time>
      </trkpt>
      <trkpt lat="43.18067" lon="5.67148">
        <ele>19.200000762939</ele>
        <time>2016-04-20T13:35:16.000Z</time>
      </trkpt>
      <trkpt lat="43.18066" lon="5.67161">
        <ele>19.200000762939</ele>
        <time>2016-04-20T13:35:19.000Z</time>
      </trkpt>
      <trkpt lat="43.18067" lon="5.6717">
        <ele>19.39999961853</ele>
        <time>2016-04-20T13:35:22.000Z</time>
      </trkpt>
      <trkpt lat="43.18072" lon="5.67178">
        <ele>19.799999237061</ele>
        <time>2016-04-20T13:35:26.000Z</time>
      </trkpt>
      <trkpt lat="43.18072" lon="5.67179">
        <ele>20</ele>
        <time>2016-04-20T13:35:27.000Z</time>
      </trkpt>
      <trkpt lat="43.18072" lon="5.67182">
        <ele>20</ele>
        <time>2016-04-20T13:35:33.000Z</time>
      </trkpt>
      <trkpt lat="43.18072" lon="5.67186">
        <ele>20</ele>
        <time>2016-04-20T13:35:34.000Z</time>
      </trkpt>
      <trkpt lat="43.18066" lon="5.67203">
        <ele>20.39999961853</ele>
        <time>2016-04-20T13:35:38.000Z</time>
      </trkpt>
      <trkpt lat="43.18064" lon="5.67213">
        <ele>20.799999237061</ele>
        <time>2016-04-20T13:35:40.000Z</time>
      </trkpt>
      <trkpt lat="43.18061" lon="5.67223">
        <ele>21.39999961853</ele>
        <time>2016-04-20T13:35:42.000Z</time>
      </trkpt>
      <trkpt lat="43.18054" lon="5.67254">
        <ele>22.60000038147</ele>
        <time>2016-04-20T13:35:48.000Z</time>
      </trkpt>
      <trkpt lat="43.18046" lon="5.67299">
        <ele>24.60000038147</ele>
        <time>2016-04-20T13:35:56.000Z</time>
      </trkpt>
      <trkpt lat="43.18042" lon="5.67336">
        <ele>24.60000038147</ele>
        <time>2016-04-20T13:36:02.000Z</time>
      </trkpt>
      <trkpt lat="43.18031" lon="5.67394">
        <ele>23.60000038147</ele>
        <time>2016-04-20T13:36:11.000Z</time>
      </trkpt>
      <trkpt lat="43.18021" lon="5.67452">
        <ele>19.799999237061</ele>
        <time>2016-04-20T13:36:19.000Z</time>
      </trkpt>
      <trkpt lat="43.18015" lon="5.67489">
        <ele>17.799999237061</ele>
        <time>2016-04-20T13:36:24.000Z</time>
      </trkpt>
      <trkpt lat="43.18013" lon="5.67497">
        <ele>17.200000762939</ele>
        <time>2016-04-20T13:36:25.000Z</time>
      </trkpt>
      <trkpt lat="43.18003" lon="5.67554">
        <ele>14.800000190735</ele>
        <time>2016-04-20T13:36:32.000Z</time>
      </trkpt>
      <trkpt lat="43.18001" lon="5.6757">
        <ele>15</ele>
        <time>2016-04-20T13:36:34.000Z</time>
      </trkpt>
      <trkpt lat="43.17995" lon="5.67603">
        <ele>15.60000038147</ele>
        <time>2016-04-20T13:36:38.000Z</time>
      </trkpt>
      <trkpt lat="43.17986" lon="5.67659">
        <ele>14.199999809265</ele>
        <time>2016-04-20T13:36:45.000Z</time>
      </trkpt>
      <trkpt lat="43.17985" lon="5.67666">
        <ele>14</ele>
        <time>2016-04-20T13:36:46.000Z</time>
      </trkpt>
      <trkpt lat="43.17975" lon="5.67742">
        <ele>11.800000190735</ele>
        <time>2016-04-20T13:36:56.000Z</time>
      </trkpt>
      <trkpt lat="43.17975" lon="5.6775">
        <ele>11.39999961853</ele>
        <time>2016-04-20T13:36:57.000Z</time>
      </trkpt>
      <trkpt lat="43.17974" lon="5.67787">
        <ele>10.199999809265</ele>
        <time>2016-04-20T13:37:02.000Z</time>
      </trkpt>
      <trkpt lat="43.17975" lon="5.67793">
        <ele>10</ele>
        <time>2016-04-20T13:37:03.000Z</time>
      </trkpt>
      <trkpt lat="43.1798" lon="5.67818">
        <ele>9.1999998092651</ele>
        <time>2016-04-20T13:37:07.000Z</time>
      </trkpt>
      <trkpt lat="43.17981" lon="5.67824">
        <ele>9</ele>
        <time>2016-04-20T13:37:08.000Z</time>
      </trkpt>
      <trkpt lat="43.17983" lon="5.6783">
        <ele>8.8000001907349</ele>
        <time>2016-04-20T13:37:09.000Z</time>
      </trkpt>
      <trkpt lat="43.17989" lon="5.67851">
        <ele>7.8000001907349</ele>
        <time>2016-04-20T13:37:12.000Z</time>
      </trkpt>
      <trkpt lat="43.17989" lon="5.67859">
        <ele>7.4000000953674</ele>
        <time>2016-04-20T13:37:13.000Z</time>
      </trkpt>
      <trkpt lat="43.17985" lon="5.67882">
        <ele>6</ele>
        <time>2016-04-20T13:37:17.000Z</time>
      </trkpt>
      <trkpt lat="43.17984" lon="5.67889">
        <ele>5.5999999046326</ele>
        <time>2016-04-20T13:37:18.000Z</time>
      </trkpt>
      <trkpt lat="43.17985" lon="5.67909">
        <ele>5.8000001907349</ele>
        <time>2016-04-20T13:37:21.000Z</time>
      </trkpt>
      <trkpt lat="43.17987" lon="5.67922">
        <ele>5.8000001907349</ele>
        <time>2016-04-20T13:37:23.000Z</time>
      </trkpt>
      <trkpt lat="43.17988" lon="5.67929">
        <ele>6</ele>
        <time>2016-04-20T13:37:24.000Z</time>
      </trkpt>
      <trkpt lat="43.17992" lon="5.67945">
        <ele>6</ele>
        <time>2016-04-20T13:37:27.000Z</time>
      </trkpt>
      <trkpt lat="43.17997" lon="5.67967">
        <ele>6</ele>
        <time>2016-04-20T13:37:31.000Z</time>
      </trkpt>
      <trkpt lat="43.17998" lon="5.67979">
        <ele>6</ele>
        <time>2016-04-20T13:37:33.000Z</time>
      </trkpt>
      <trkpt lat="43.17999" lon="5.67985">
        <ele>6</ele>
        <time>2016-04-20T13:37:34.000Z</time>
      </trkpt>
      <trkpt lat="43.17999" lon="5.67997">
        <ele>6</ele>
        <time>2016-04-20T13:37:36.000Z</time>
      </trkpt>
      <trkpt lat="43.17998" lon="5.68003">
        <ele>6</ele>
        <time>2016-04-20T13:37:37.000Z</time>
      </trkpt>
      <trkpt lat="43.17996" lon="5.68044">
        <ele>5.5999999046326</ele>
        <time>2016-04-20T13:37:45.000Z</time>
      </trkpt>
      <trkpt lat="43.17995" lon="5.68047">
        <ele>5.4000000953674</ele>
        <time>2016-04-20T13:37:46.000Z</time>
      </trkpt>
      <trkpt lat="43.1799" lon="5.68051">
        <ele>5</ele>
        <time>2016-04-20T13:37:48.000Z</time>
      </trkpt>
      <trkpt lat="43.17987" lon="5.68052">
        <ele>4.5999999046326</ele>
        <time>2016-04-20T13:37:49.000Z</time>
      </trkpt>
      <trkpt lat="43.1798" lon="5.68049">
        <ele>4</ele>
        <time>2016-04-20T13:37:51.000Z</time>
      </trkpt>
      <trkpt lat="43.17973" lon="5.68039">
        <ele>3.4000000953674</ele>
        <time>2016-04-20T13:37:54.000Z</time>
      </trkpt>
      <trkpt lat="43.17971" lon="5.68035">
        <ele>3.4000000953674</ele>
        <time>2016-04-20T13:37:55.000Z</time>
      </trkpt>
      <trkpt lat="43.17966" lon="5.68029">
        <ele>3</ele>
        <time>2016-04-20T13:37:57.000Z</time>
      </trkpt>
      <trkpt lat="43.17962" lon="5.68028">
        <ele>2.5999999046326</ele>
        <time>2016-04-20T13:37:59.000Z</time>
      </trkpt>
      <trkpt lat="43.17958" lon="5.68033">
        <ele>2.2000000476837</ele>
        <time>2016-04-20T13:38:01.000Z</time>
      </trkpt>
      <trkpt lat="43.17958" lon="5.6804">
        <ele>2</ele>
        <time>2016-04-20T13:38:03.000Z</time>
      </trkpt>
      <trkpt lat="43.17962" lon="5.68049">
        <ele>2.4000000953674</ele>
        <time>2016-04-20T13:38:06.000Z</time>
      </trkpt>
      <trkpt lat="43.17965" lon="5.68059">
        <ele>2.5999999046326</ele>
        <time>2016-04-20T13:38:09.000Z</time>
      </trkpt>
      <trkpt lat="43.17971" lon="5.68075">
        <ele>3.2000000476837</ele>
        <time>2016-04-20T13:38:14.000Z</time>
      </trkpt>
      <trkpt lat="43.17973" lon="5.68081">
        <ele>3.2000000476837</ele>
        <time>2016-04-20T13:38:16.000Z</time>
      </trkpt>
      <trkpt lat="43.17975" lon="5.68088">
        <ele>3.5999999046326</ele>
        <time>2016-04-20T13:38:19.000Z</time>
      </trkpt>
      <trkpt lat="43.17977" lon="5.68092">
        <ele>3.7999999523163</ele>
        <time>2016-04-20T13:38:21.000Z</time>
      </trkpt>
      <trkpt lat="43.17979" lon="5.68098">
        <ele>3.7999999523163</ele>
        <time>2016-04-20T13:38:23.000Z</time>
      </trkpt>
      <trkpt lat="43.17984" lon="5.68115">
        <ele>4.4000000953674</ele>
        <time>2016-04-20T13:38:28.000Z</time>
      </trkpt>
      <trkpt lat="43.17988" lon="5.68132">
        <ele>4.8000001907349</ele>
        <time>2016-04-20T13:38:34.000Z</time>
      </trkpt>
      <trkpt lat="43.17988" lon="5.68134">
        <ele>4.8000001907349</ele>
        <time>2016-04-20T13:38:35.000Z</time>
      </trkpt>
      <trkpt lat="43.17982" lon="5.68145">
        <ele>4</ele>
        <time>2016-04-20T13:38:40.000Z</time>
      </trkpt>
      <trkpt lat="43.1798" lon="5.68157">
        <ele>3.4000000953674</ele>
        <time>2016-04-20T13:38:44.000Z</time>
      </trkpt>
      <trkpt lat="43.17981" lon="5.68174">
        <ele>3.2000000476837</ele>
        <time>2016-04-20T13:38:48.000Z</time>
      </trkpt>
      <trkpt lat="43.17983" lon="5.68188">
        <ele>3</ele>
        <time>2016-04-20T13:38:51.000Z</time>
      </trkpt>
      <trkpt lat="43.17989" lon="5.68236">
        <ele>3</ele>
        <time>2016-04-20T13:39:01.000Z</time>
      </trkpt>
      <trkpt lat="43.17991" lon="5.68252">
        <ele>2.7999999523163</ele>
        <time>2016-04-20T13:39:06.000Z</time>
      </trkpt>
      <trkpt lat="43.17994" lon="5.68267">
        <ele>2.5999999046326</ele>
        <time>2016-04-20T13:39:11.000Z</time>
      </trkpt>
      <trkpt lat="43.17996" lon="5.68269">
        <ele>2.7999999523163</ele>
        <time>2016-04-20T13:39:12.000Z</time>
      </trkpt>
      <trkpt lat="43.18008" lon="5.6828">
        <ele>3.2000000476837</ele>
        <time>2016-04-20T13:39:18.000Z</time>
      </trkpt>
      <trkpt lat="43.18018" lon="5.68294">
        <ele>3.7999999523163</ele>
        <time>2016-04-20T13:39:24.000Z</time>
      </trkpt>
      <trkpt lat="43.1802" lon="5.68297">
        <ele>4</ele>
        <time>2016-04-20T13:39:25.000Z</time>
      </trkpt>
      <trkpt lat="43.18027" lon="5.68306">
        <ele>4.4000000953674</ele>
        <time>2016-04-20T13:39:30.000Z</time>
      </trkpt>
      <trkpt lat="43.18028" lon="5.68308">
        <ele>4.5999999046326</ele>
        <time>2016-04-20T13:39:31.000Z</time>
      </trkpt>
      <trkpt lat="43.18033" lon="5.68315">
        <ele>5</ele>
        <time>2016-04-20T13:39:37.000Z</time>
      </trkpt>
      <trkpt lat="43.18035" lon="5.68319">
        <ele>5</ele>
        <time>2016-04-20T13:39:39.000Z</time>
      </trkpt>
      <trkpt lat="43.18035" lon="5.68325">
        <ele>5</ele>
        <time>2016-04-20T13:39:42.000Z</time>
      </trkpt>
      <trkpt lat="43.18035" lon="5.68328">
        <ele>5</ele>
        <time>2016-04-20T13:39:43.000Z</time>
      </trkpt>
      <trkpt lat="43.18037" lon="5.6835">
        <ele>5.4000000953674</ele>
        <time>2016-04-20T13:39:50.000Z</time>
      </trkpt>
      <trkpt lat="43.1804" lon="5.68371">
        <ele>5.8000001907349</ele>
        <time>2016-04-20T13:39:58.000Z</time>
      </trkpt>
      <trkpt lat="43.18043" lon="5.68394">
        <ele>6.1999998092651</ele>
        <time>2016-04-20T13:40:05.000Z</time>
      </trkpt>
      <trkpt lat="43.1805" lon="5.68424">
        <ele>5.8000001907349</ele>
        <time>2016-04-20T13:40:14.000Z</time>
      </trkpt>
      <trkpt lat="43.18052" lon="5.68447">
        <ele>6.1999998092651</ele>
        <time>2016-04-20T13:40:21.000Z</time>
      </trkpt>
      <trkpt lat="43.18058" lon="5.68465">
        <ele>6.5999999046326</ele>
        <time>2016-04-20T13:40:27.000Z</time>
      </trkpt>
      <trkpt lat="43.18066" lon="5.68486">
        <ele>6.8000001907349</ele>
        <time>2016-04-20T13:40:32.000Z</time>
      </trkpt>
      <trkpt lat="43.18071" lon="5.68518">
        <ele>6.5999999046326</ele>
        <time>2016-04-20T13:40:39.000Z</time>
      </trkpt>
      <trkpt lat="43.18072" lon="5.68524">
        <ele>6.5999999046326</ele>
        <time>2016-04-20T13:40:41.000Z</time>
      </trkpt>
      <trkpt lat="43.18072" lon="5.68531">
        <ele>6.4000000953674</ele>
        <time>2016-04-20T13:40:43.000Z</time>
      </trkpt>
      <trkpt lat="43.18066" lon="5.68558">
        <ele>6.1999998092651</ele>
        <time>2016-04-20T13:40:49.000Z</time>
      </trkpt>
      <trkpt lat="43.18058" lon="5.68593">
        <ele>6.5999999046326</ele>
        <time>2016-04-20T13:40:56.000Z</time>
      </trkpt>
      <trkpt lat="43.18052" lon="5.68615">
        <ele>7.1999998092651</ele>
        <time>2016-04-20T13:41:01.000Z</time>
      </trkpt>
      <trkpt lat="43.18047" lon="5.68643">
        <ele>8</ele>
        <time>2016-04-20T13:41:07.000Z</time>
      </trkpt>
      <trkpt lat="43.18038" lon="5.68676">
        <ele>8.3999996185303</ele>
        <time>2016-04-20T13:41:13.000Z</time>
      </trkpt>
      <trkpt lat="43.18027" lon="5.6872">
        <ele>7.1999998092651</ele>
        <time>2016-04-20T13:41:21.000Z</time>
      </trkpt>
      <trkpt lat="43.18021" lon="5.68747">
        <ele>6.4000000953674</ele>
        <time>2016-04-20T13:41:27.000Z</time>
      </trkpt>
      <trkpt lat="43.18011" lon="5.68768">
        <ele>4.8000001907349</ele>
        <time>2016-04-20T13:41:32.000Z</time>
      </trkpt>
      <trkpt lat="43.1799" lon="5.68804">
        <ele>4</ele>
        <time>2016-04-20T13:41:40.000Z</time>
      </trkpt>
      <trkpt lat="43.17966" lon="5.68847">
        <ele>5.8000001907349</ele>
        <time>2016-04-20T13:41:49.000Z</time>
      </trkpt>
      <trkpt lat="43.17944" lon="5.68878">
        <ele>8.1999998092651</ele>
        <time>2016-04-20T13:41:57.000Z</time>
      </trkpt>
      <trkpt lat="43.17936" lon="5.68889">
        <ele>8.8000001907349</ele>
        <time>2016-04-20T13:42:01.000Z</time>
      </trkpt>
      <trkpt lat="43.17932" lon="5.68896">
        <ele>9</ele>
        <time>2016-04-20T13:42:06.000Z</time>
      </trkpt>
      <trkpt lat="43.17932" lon="5.68913">
        <ele>9</ele>
        <time>2016-04-20T13:42:11.000Z</time>
      </trkpt>
      <trkpt lat="43.17932" lon="5.68923">
        <ele>9</ele>
        <time>2016-04-20T13:42:13.000Z</time>
      </trkpt>
      <trkpt lat="43.17931" lon="5.68934">
        <ele>9</ele>
        <time>2016-04-20T13:42:15.000Z</time>
      </trkpt>
      <trkpt lat="43.17928" lon="5.68954">
        <ele>9</ele>
        <time>2016-04-20T13:42:19.000Z</time>
      </trkpt>
      <trkpt lat="43.17927" lon="5.68959">
        <ele>9</ele>
        <time>2016-04-20T13:42:20.000Z</time>
      </trkpt>
      <trkpt lat="43.17916" lon="5.68981">
        <ele>8.1999998092651</ele>
        <time>2016-04-20T13:42:25.000Z</time>
      </trkpt>
      <trkpt lat="43.17888" lon="5.69013">
        <ele>6</ele>
        <time>2016-04-20T13:42:33.000Z</time>
      </trkpt>
      <trkpt lat="43.1788" lon="5.69023">
        <ele>5.8000001907349</ele>
        <time>2016-04-20T13:42:35.000Z</time>
      </trkpt>
      <trkpt lat="43.1786" lon="5.69043">
        <ele>5.4000000953674</ele>
        <time>2016-04-20T13:42:40.000Z</time>
      </trkpt>
      <trkpt lat="43.17857" lon="5.69047">
        <ele>5.4000000953674</ele>
        <time>2016-04-20T13:42:41.000Z</time>
      </trkpt>
      <trkpt lat="43.17835" lon="5.69068">
        <ele>5</ele>
        <time>2016-04-20T13:42:46.000Z</time>
      </trkpt>
      <trkpt lat="43.17803" lon="5.69098">
        <ele>5.1999998092651</ele>
        <time>2016-04-20T13:42:54.000Z</time>
      </trkpt>
      <trkpt lat="43.1778" lon="5.6912">
        <ele>6.1999998092651</ele>
        <time>2016-04-20T13:43:00.000Z</time>
      </trkpt>
      <trkpt lat="43.17749" lon="5.69151">
        <ele>6.1999998092651</ele>
        <time>2016-04-20T13:43:08.000Z</time>
      </trkpt>
      <trkpt lat="43.17723" lon="5.69177">
        <ele>4.5999999046326</ele>
        <time>2016-04-20T13:43:15.000Z</time>
      </trkpt>
      <trkpt lat="43.17697" lon="5.69204">
        <ele>5.4000000953674</ele>
        <time>2016-04-20T13:43:23.000Z</time>
      </trkpt>
      <trkpt lat="43.1767" lon="5.69231">
        <ele>5.5999999046326</ele>
        <time>2016-04-20T13:43:30.000Z</time>
      </trkpt>
      <trkpt lat="43.17637" lon="5.69264">
        <ele>4</ele>
        <time>2016-04-20T13:43:38.000Z</time>
      </trkpt>
      <trkpt lat="43.17615" lon="5.69286">
        <ele>5</ele>
        <time>2016-04-20T13:43:44.000Z</time>
      </trkpt>
      <trkpt lat="43.17595" lon="5.69292">
        <ele>5.8000001907349</ele>
        <time>2016-04-20T13:43:49.000Z</time>
      </trkpt>
      <trkpt lat="43.17564" lon="5.69285">
        <ele>5</ele>
        <time>2016-04-20T13:43:56.000Z</time>
      </trkpt>
      <trkpt lat="43.1755" lon="5.6927">
        <ele>4.1999998092651</ele>
        <time>2016-04-20T13:44:01.000Z</time>
      </trkpt>
      <trkpt lat="43.17544" lon="5.69267">
        <ele>4</ele>
        <time>2016-04-20T13:44:03.000Z</time>
      </trkpt>
      <trkpt lat="43.17539" lon="5.69269">
        <ele>4</ele>
        <time>2016-04-20T13:44:05.000Z</time>
      </trkpt>
      <trkpt lat="43.17533" lon="5.69277">
        <ele>4.4000000953674</ele>
        <time>2016-04-20T13:44:08.000Z</time>
      </trkpt>
      <trkpt lat="43.17531" lon="5.6928">
        <ele>4.4000000953674</ele>
        <time>2016-04-20T13:44:09.000Z</time>
      </trkpt>
      <trkpt lat="43.17519" lon="5.69298">
        <ele>5</ele>
        <time>2016-04-20T13:44:16.000Z</time>
      </trkpt>
      <trkpt lat="43.17502" lon="5.69317">
        <ele>4.4000000953674</ele>
        <time>2016-04-20T13:44:23.000Z</time>
      </trkpt>
      <trkpt lat="43.17478" lon="5.6934">
        <ele>3</ele>
        <time>2016-04-20T13:44:31.000Z</time>
      </trkpt>
      <trkpt lat="43.1745" lon="5.69367">
        <ele>4.4000000953674</ele>
        <time>2016-04-20T13:44:40.000Z</time>
      </trkpt>
      <trkpt lat="43.17416" lon="5.694">
        <ele>5.8000001907349</ele>
        <time>2016-04-20T13:44:50.000Z</time>
      </trkpt>
      <trkpt lat="43.1739" lon="5.69426">
        <ele>5.1999998092651</ele>
        <time>2016-04-20T13:44:58.000Z</time>
      </trkpt>
      <trkpt lat="43.17354" lon="5.69461">
        <ele>4.1999998092651</ele>
        <time>2016-04-20T13:45:09.000Z</time>
      </trkpt>
      <trkpt lat="43.17351" lon="5.69464">
        <ele>4.1999998092651</ele>
        <time>2016-04-20T13:45:10.000Z</time>
      </trkpt>
      <trkpt lat="43.17321" lon="5.69493">
        <ele>4.1999998092651</ele>
        <time>2016-04-20T13:45:19.000Z</time>
      </trkpt>
      <trkpt lat="43.17294" lon="5.69517">
        <ele>5</ele>
        <time>2016-04-20T13:45:27.000Z</time>
      </trkpt>
      <trkpt lat="43.17274" lon="5.69538">
        <ele>6.8000001907349</ele>
        <time>2016-04-20T13:45:33.000Z</time>
      </trkpt>
      <trkpt lat="43.17259" lon="5.69547">
        <ele>7.5999999046326</ele>
        <time>2016-04-20T13:45:37.000Z</time>
      </trkpt>
      <trkpt lat="43.1725" lon="5.6955">
        <ele>8</ele>
        <time>2016-04-20T13:45:39.000Z</time>
      </trkpt>
      <trkpt lat="43.17241" lon="5.69552">
        <ele>8.3999996185303</ele>
        <time>2016-04-20T13:45:41.000Z</time>
      </trkpt>
      <trkpt lat="43.17227" lon="5.69548">
        <ele>8.3999996185303</ele>
        <time>2016-04-20T13:45:44.000Z</time>
      </trkpt>
      <trkpt lat="43.17188" lon="5.69537">
        <ele>8.6000003814697</ele>
        <time>2016-04-20T13:45:52.000Z</time>
      </trkpt>
      <trkpt lat="43.17178" lon="5.69535">
        <ele>8.8000001907349</ele>
        <time>2016-04-20T13:45:54.000Z</time>
      </trkpt>
      <trkpt lat="43.17162" lon="5.69533">
        <ele>9.1999998092651</ele>
        <time>2016-04-20T13:45:57.000Z</time>
      </trkpt>
      <trkpt lat="43.17158" lon="5.69532">
        <ele>9.3999996185303</ele>
        <time>2016-04-20T13:45:58.000Z</time>
      </trkpt>
      <trkpt lat="43.17131" lon="5.6953">
        <ele>11.199999809265</ele>
        <time>2016-04-20T13:46:04.000Z</time>
      </trkpt>
      <trkpt lat="43.17127" lon="5.69529">
        <ele>11.39999961853</ele>
        <time>2016-04-20T13:46:05.000Z</time>
      </trkpt>
      <trkpt lat="43.17113" lon="5.69528">
        <ele>12.199999809265</ele>
        <time>2016-04-20T13:46:08.000Z</time>
      </trkpt>
      <trkpt lat="43.17103" lon="5.69528">
        <ele>13</ele>
        <time>2016-04-20T13:46:10.000Z</time>
      </trkpt>
      <trkpt lat="43.17089" lon="5.69528">
        <ele>13.199999809265</ele>
        <time>2016-04-20T13:46:13.000Z</time>
      </trkpt>
      <trkpt lat="43.17072" lon="5.69529">
        <ele>12</ele>
        <time>2016-04-20T13:46:17.000Z</time>
      </trkpt>
      <trkpt lat="43.17068" lon="5.69529">
        <ele>11.800000190735</ele>
        <time>2016-04-20T13:46:18.000Z</time>
      </trkpt>
      <trkpt lat="43.1706" lon="5.6953">
        <ele>11.800000190735</ele>
        <time>2016-04-20T13:46:20.000Z</time>
      </trkpt>
      <trkpt lat="43.17047" lon="5.69536">
        <ele>12.60000038147</ele>
        <time>2016-04-20T13:46:23.000Z</time>
      </trkpt>
      <trkpt lat="43.17042" lon="5.69539">
        <ele>13</ele>
        <time>2016-04-20T13:46:24.000Z</time>
      </trkpt>
      <trkpt lat="43.17034" lon="5.69545">
        <ele>14</ele>
        <time>2016-04-20T13:46:26.000Z</time>
      </trkpt>
      <trkpt lat="43.17027" lon="5.69552">
        <ele>15</ele>
        <time>2016-04-20T13:46:28.000Z</time>
      </trkpt>
      <trkpt lat="43.1702" lon="5.69558">
        <ele>15.60000038147</ele>
        <time>2016-04-20T13:46:30.000Z</time>
      </trkpt>
      <trkpt lat="43.17009" lon="5.69567">
        <ele>18.200000762939</ele>
        <time>2016-04-20T13:46:33.000Z</time>
      </trkpt>
      <trkpt lat="43.16996" lon="5.69577">
        <ele>20.799999237061</ele>
        <time>2016-04-20T13:46:37.000Z</time>
      </trkpt>
      <trkpt lat="43.16993" lon="5.69579">
        <ele>21.39999961853</ele>
        <time>2016-04-20T13:46:38.000Z</time>
      </trkpt>
      <trkpt lat="43.16986" lon="5.69582">
        <ele>22.200000762939</ele>
        <time>2016-04-20T13:46:40.000Z</time>
      </trkpt>
      <trkpt lat="43.16976" lon="5.69582">
        <ele>22.39999961853</ele>
        <time>2016-04-20T13:46:43.000Z</time>
      </trkpt>
      <trkpt lat="43.16969" lon="5.69579">
        <ele>21.60000038147</ele>
        <time>2016-04-20T13:46:45.000Z</time>
      </trkpt>
      <trkpt lat="43.16961" lon="5.69575">
        <ele>20.799999237061</ele>
        <time>2016-04-20T13:46:48.000Z</time>
      </trkpt>
      <trkpt lat="43.16955" lon="5.69573">
        <ele>20.39999961853</ele>
        <time>2016-04-20T13:46:50.000Z</time>
      </trkpt>
      <trkpt lat="43.16949" lon="5.69569">
        <ele>19.60000038147</ele>
        <time>2016-04-20T13:46:54.000Z</time>
      </trkpt>
      <trkpt lat="43.1693" lon="5.69566">
        <ele>19.200000762939</ele>
        <time>2016-04-20T13:55:29.000Z</time>
      </trkpt>
      <trkpt lat="43.16927" lon="5.69565">
        <ele>19.200000762939</ele>
        <time>2016-04-20T13:55:31.000Z</time>
      </trkpt>
      <trkpt lat="43.16916" lon="5.69565">
        <ele>18.799999237061</ele>
        <time>2016-04-20T13:55:38.000Z</time>
      </trkpt>
      <trkpt lat="43.16915" lon="5.69566">
        <ele>18.799999237061</ele>
        <time>2016-04-20T13:55:39.000Z</time>
      </trkpt>
      <trkpt lat="43.16907" lon="5.69569">
        <ele>19.39999961853</ele>
        <time>2016-04-20T13:55:45.000Z</time>
      </trkpt>
      <trkpt lat="43.16906" lon="5.6957">
        <ele>19.60000038147</ele>
        <time>2016-04-20T13:55:46.000Z</time>
      </trkpt>
      <trkpt lat="43.16897" lon="5.69576">
        <ele>20.60000038147</ele>
        <time>2016-04-20T13:55:52.000Z</time>
      </trkpt>
      <trkpt lat="43.16884" lon="5.69586">
        <ele>23</ele>
        <time>2016-04-20T13:56:22.000Z</time>
      </trkpt>
      <trkpt lat="43.16875" lon="5.69602">
        <ele>26</ele>
        <time>2016-04-20T13:56:26.000Z</time>
      </trkpt>
      <trkpt lat="43.16861" lon="5.69613">
        <ele>27.200000762939</ele>
        <time>2016-04-20T13:56:30.000Z</time>
      </trkpt>
      <trkpt lat="43.16856" lon="5.69614">
        <ele>27</ele>
        <time>2016-04-20T13:56:31.000Z</time>
      </trkpt>
      <trkpt lat="43.16836" lon="5.69616">
        <ele>27</ele>
        <time>2016-04-20T13:56:35.000Z</time>
      </trkpt>
      <trkpt lat="43.1683" lon="5.69615">
        <ele>27.200000762939</ele>
        <time>2016-04-20T13:56:36.000Z</time>
      </trkpt>
      <trkpt lat="43.16812" lon="5.69611">
        <ele>26.799999237061</ele>
        <time>2016-04-20T13:56:39.000Z</time>
      </trkpt>
      <trkpt lat="43.16793" lon="5.69606">
        <ele>25</ele>
        <time>2016-04-20T13:56:42.000Z</time>
      </trkpt>
      <trkpt lat="43.16774" lon="5.696">
        <ele>23.39999961853</ele>
        <time>2016-04-20T13:56:45.000Z</time>
      </trkpt>
      <trkpt lat="43.16768" lon="5.69596">
        <ele>22.60000038147</ele>
        <time>2016-04-20T13:56:46.000Z</time>
      </trkpt>
      <trkpt lat="43.16762" lon="5.6959">
        <ele>21.799999237061</ele>
        <time>2016-04-20T13:56:47.000Z</time>
      </trkpt>
      <trkpt lat="43.16751" lon="5.69574">
        <ele>20.39999961853</ele>
        <time>2016-04-20T13:56:50.000Z</time>
      </trkpt>
      <trkpt lat="43.16747" lon="5.69568">
        <ele>19.799999237061</ele>
        <time>2016-04-20T13:56:51.000Z</time>
      </trkpt>
      <trkpt lat="43.16742" lon="5.69554">
        <ele>18.799999237061</ele>
        <time>2016-04-20T13:56:53.000Z</time>
      </trkpt>
      <trkpt lat="43.16735" lon="5.69541">
        <ele>17.60000038147</ele>
        <time>2016-04-20T13:56:55.000Z</time>
      </trkpt>
      <trkpt lat="43.16731" lon="5.69535">
        <ele>17.200000762939</ele>
        <time>2016-04-20T13:56:56.000Z</time>
      </trkpt>
      <trkpt lat="43.16726" lon="5.69531">
        <ele>16.799999237061</ele>
        <time>2016-04-20T13:56:57.000Z</time>
      </trkpt>
      <trkpt lat="43.16712" lon="5.69528">
        <ele>16.200000762939</ele>
        <time>2016-04-20T13:56:59.000Z</time>
      </trkpt>
      <trkpt lat="43.16706" lon="5.69526">
        <ele>16</ele>
        <time>2016-04-20T13:57:00.000Z</time>
      </trkpt>
      <trkpt lat="43.16696" lon="5.69525">
        <ele>15.800000190735</ele>
        <time>2016-04-20T13:57:02.000Z</time>
      </trkpt>
      <trkpt lat="43.16692" lon="5.69523">
        <ele>15.60000038147</ele>
        <time>2016-04-20T13:57:03.000Z</time>
      </trkpt>
      <trkpt lat="43.16683" lon="5.69515">
        <ele>14.800000190735</ele>
        <time>2016-04-20T13:57:05.000Z</time>
      </trkpt>
      <trkpt lat="43.16674" lon="5.69502">
        <ele>13.60000038147</ele>
        <time>2016-04-20T13:57:07.000Z</time>
      </trkpt>
      <trkpt lat="43.1667" lon="5.69496">
        <ele>13</ele>
        <time>2016-04-20T13:57:08.000Z</time>
      </trkpt>
      <trkpt lat="43.16666" lon="5.6949">
        <ele>12.60000038147</ele>
        <time>2016-04-20T13:57:09.000Z</time>
      </trkpt>
      <trkpt lat="43.16658" lon="5.69473">
        <ele>11</ele>
        <time>2016-04-20T13:57:12.000Z</time>
      </trkpt>
      <trkpt lat="43.16656" lon="5.69468">
        <ele>10.60000038147</ele>
        <time>2016-04-20T13:57:13.000Z</time>
      </trkpt>
      <trkpt lat="43.16653" lon="5.69463">
        <ele>10</ele>
        <time>2016-04-20T13:57:14.000Z</time>
      </trkpt>
      <trkpt lat="43.16647" lon="5.6946">
        <ele>9.8000001907349</ele>
        <time>2016-04-20T13:57:15.000Z</time>
      </trkpt>
      <trkpt lat="43.16639" lon="5.69457">
        <ele>9.1999998092651</ele>
        <time>2016-04-20T13:57:17.000Z</time>
      </trkpt>
      <trkpt lat="43.16636" lon="5.69455">
        <ele>9</ele>
        <time>2016-04-20T13:57:18.000Z</time>
      </trkpt>
      <trkpt lat="43.16632" lon="5.69453">
        <ele>8.8000001907349</ele>
        <time>2016-04-20T13:57:19.000Z</time>
      </trkpt>
      <trkpt lat="43.16619" lon="5.69451">
        <ele>8.6000003814697</ele>
        <time>2016-04-20T13:57:23.000Z</time>
      </trkpt>
      <trkpt lat="43.166" lon="5.69449">
        <ele>8</ele>
        <time>2016-04-20T13:57:29.000Z</time>
      </trkpt>
      <trkpt lat="43.16577" lon="5.69448">
        <ele>10.199999809265</ele>
        <time>2016-04-20T13:57:35.000Z</time>
      </trkpt>
      <trkpt lat="43.16574" lon="5.69448">
        <ele>10.60000038147</ele>
        <time>2016-04-20T13:57:36.000Z</time>
      </trkpt>
      <trkpt lat="43.16564" lon="5.69452">
        <ele>11.60000038147</ele>
        <time>2016-04-20T13:57:39.000Z</time>
      </trkpt>
      <trkpt lat="43.16561" lon="5.69454">
        <ele>11.800000190735</ele>
        <time>2016-04-20T13:57:40.000Z</time>
      </trkpt>
      <trkpt lat="43.1655" lon="5.69461">
        <ele>12.800000190735</ele>
        <time>2016-04-20T13:57:43.000Z</time>
      </trkpt>
      <trkpt lat="43.16534" lon="5.69469">
        <ele>14.199999809265</ele>
        <time>2016-04-20T13:57:47.000Z</time>
      </trkpt>
      <trkpt lat="43.1653" lon="5.69471">
        <ele>14.60000038147</ele>
        <time>2016-04-20T13:57:48.000Z</time>
      </trkpt>
      <trkpt lat="43.1652" lon="5.69475">
        <ele>15.800000190735</ele>
        <time>2016-04-20T13:57:51.000Z</time>
      </trkpt>
      <trkpt lat="43.16514" lon="5.69478">
        <ele>16.39999961853</ele>
        <time>2016-04-20T13:57:53.000Z</time>
      </trkpt>
      <trkpt lat="43.16507" lon="5.69483">
        <ele>17.200000762939</ele>
        <time>2016-04-20T13:57:55.000Z</time>
      </trkpt>
      <trkpt lat="43.16494" lon="5.69495">
        <ele>20</ele>
        <time>2016-04-20T13:57:59.000Z</time>
      </trkpt>
      <trkpt lat="43.16491" lon="5.69499">
        <ele>20.799999237061</ele>
        <time>2016-04-20T13:58:00.000Z</time>
      </trkpt>
      <trkpt lat="43.16473" lon="5.69519">
        <ele>24.39999961853</ele>
        <time>2016-04-20T13:58:05.000Z</time>
      </trkpt>
      <trkpt lat="43.1647" lon="5.69523">
        <ele>24.39999961853</ele>
        <time>2016-04-20T13:58:06.000Z</time>
      </trkpt>
      <trkpt lat="43.16453" lon="5.69543">
        <ele>24</ele>
        <time>2016-04-20T13:58:11.000Z</time>
      </trkpt>
      <trkpt lat="43.16435" lon="5.69564">
        <ele>25.39999961853</ele>
        <time>2016-04-20T13:58:16.000Z</time>
      </trkpt>
      <trkpt lat="43.16425" lon="5.69575">
        <ele>27.200000762939</ele>
        <time>2016-04-20T13:58:19.000Z</time>
      </trkpt>
      <trkpt lat="43.16417" lon="5.69581">
        <ele>29.39999961853</ele>
        <time>2016-04-20T13:58:21.000Z</time>
      </trkpt>
      <trkpt lat="43.16402" lon="5.69591">
        <ele>33.599998474121</ele>
        <time>2016-04-20T13:58:25.000Z</time>
      </trkpt>
      <trkpt lat="43.16391" lon="5.69599">
        <ele>36.599998474121</ele>
        <time>2016-04-20T13:58:28.000Z</time>
      </trkpt>
      <trkpt lat="43.16372" lon="5.6961">
        <ele>37</ele>
        <time>2016-04-20T13:58:33.000Z</time>
      </trkpt>
      <trkpt lat="43.16362" lon="5.69618">
        <ele>36.799999237061</ele>
        <time>2016-04-20T13:58:36.000Z</time>
      </trkpt>
      <trkpt lat="43.16352" lon="5.69628">
        <ele>36.400001525879</ele>
        <time>2016-04-20T13:58:39.000Z</time>
      </trkpt>
      <trkpt lat="43.16348" lon="5.69631">
        <ele>36.200000762939</ele>
        <time>2016-04-20T13:58:40.000Z</time>
      </trkpt>
      <trkpt lat="43.16344" lon="5.69636">
        <ele>36.200000762939</ele>
        <time>2016-04-20T13:58:41.000Z</time>
      </trkpt>
      <trkpt lat="43.1633" lon="5.6965">
        <ele>39.200000762939</ele>
        <time>2016-04-20T13:58:45.000Z</time>
      </trkpt>
      <trkpt lat="43.16315" lon="5.69664">
        <ele>42.400001525879</ele>
        <time>2016-04-20T13:58:49.000Z</time>
      </trkpt>
      <trkpt lat="43.16312" lon="5.69668">
        <ele>43.200000762939</ele>
        <time>2016-04-20T13:58:50.000Z</time>
      </trkpt>
      <trkpt lat="43.16301" lon="5.69679">
        <ele>45.400001525879</ele>
        <time>2016-04-20T13:58:54.000Z</time>
      </trkpt>
      <trkpt lat="43.16299" lon="5.69683">
        <ele>45.200000762939</ele>
        <time>2016-04-20T13:58:55.000Z</time>
      </trkpt>
      <trkpt lat="43.16286" lon="5.69695">
        <ele>44.400001525879</ele>
        <time>2016-04-20T13:59:00.000Z</time>
      </trkpt>
      <trkpt lat="43.16267" lon="5.69704">
        <ele>43.400001525879</ele>
        <time>2016-04-20T13:59:04.000Z</time>
      </trkpt>
      <trkpt lat="43.16263" lon="5.69706">
        <ele>43.200000762939</ele>
        <time>2016-04-20T13:59:05.000Z</time>
      </trkpt>
      <trkpt lat="43.16246" lon="5.69713">
        <ele>44</ele>
        <time>2016-04-20T13:59:09.000Z</time>
      </trkpt>
      <trkpt lat="43.16238" lon="5.69718">
        <ele>43.799999237061</ele>
        <time>2016-04-20T13:59:11.000Z</time>
      </trkpt>
      <trkpt lat="43.16221" lon="5.69726">
        <ele>45.200000762939</ele>
        <time>2016-04-20T13:59:15.000Z</time>
      </trkpt>
      <trkpt lat="43.16198" lon="5.69737">
        <ele>47.799999237061</ele>
        <time>2016-04-20T13:59:20.000Z</time>
      </trkpt>
      <trkpt lat="43.16179" lon="5.69744">
        <ele>47.200000762939</ele>
        <time>2016-04-20T13:59:24.000Z</time>
      </trkpt>
      <trkpt lat="43.16168" lon="5.69748">
        <ele>48.599998474121</ele>
        <time>2016-04-20T13:59:27.000Z</time>
      </trkpt>
      <trkpt lat="43.16162" lon="5.6975">
        <ele>49.400001525879</ele>
        <time>2016-04-20T13:59:29.000Z</time>
      </trkpt>
      <trkpt lat="43.16147" lon="5.69752">
        <ele>51.400001525879</ele>
        <time>2016-04-20T13:59:33.000Z</time>
      </trkpt>
      <trkpt lat="43.16144" lon="5.69753">
        <ele>51.799999237061</ele>
        <time>2016-04-20T13:59:34.000Z</time>
      </trkpt>
      <trkpt lat="43.16134" lon="5.69758">
        <ele>53.400001525879</ele>
        <time>2016-04-20T13:59:37.000Z</time>
      </trkpt>
      <trkpt lat="43.16129" lon="5.69764">
        <ele>53.400001525879</ele>
        <time>2016-04-20T13:59:39.000Z</time>
      </trkpt>
      <trkpt lat="43.16124" lon="5.6977">
        <ele>53.200000762939</ele>
        <time>2016-04-20T13:59:41.000Z</time>
      </trkpt>
      <trkpt lat="43.16118" lon="5.6978">
        <ele>52.799999237061</ele>
        <time>2016-04-20T13:59:44.000Z</time>
      </trkpt>
      <trkpt lat="43.16113" lon="5.69785">
        <ele>52.599998474121</ele>
        <time>2016-04-20T13:59:46.000Z</time>
      </trkpt>
      <trkpt lat="43.16107" lon="5.6979">
        <ele>52.400001525879</ele>
        <time>2016-04-20T13:59:48.000Z</time>
      </trkpt>
      <trkpt lat="43.16097" lon="5.69797">
        <ele>52.200000762939</ele>
        <time>2016-04-20T13:59:51.000Z</time>
      </trkpt>
      <trkpt lat="43.16093" lon="5.69799">
        <ele>52.200000762939</ele>
        <time>2016-04-20T13:59:52.000Z</time>
      </trkpt>
      <trkpt lat="43.16075" lon="5.69811">
        <ele>54.599998474121</ele>
        <time>2016-04-20T13:59:57.000Z</time>
      </trkpt>
      <trkpt lat="43.16069" lon="5.69817">
        <ele>55.799999237061</ele>
        <time>2016-04-20T13:59:59.000Z</time>
      </trkpt>
      <trkpt lat="43.16057" lon="5.69828">
        <ele>58</ele>
        <time>2016-04-20T14:00:03.000Z</time>
      </trkpt>
      <trkpt lat="43.16051" lon="5.69836">
        <ele>59.400001525879</ele>
        <time>2016-04-20T14:00:06.000Z</time>
      </trkpt>
      <trkpt lat="43.16046" lon="5.69847">
        <ele>60.200000762939</ele>
        <time>2016-04-20T14:00:09.000Z</time>
      </trkpt>
      <trkpt lat="43.16035" lon="5.69863">
        <ele>60.799999237061</ele>
        <time>2016-04-20T14:00:13.000Z</time>
      </trkpt>
      <trkpt lat="43.16028" lon="5.69876">
        <ele>61.200000762939</ele>
        <time>2016-04-20T14:00:16.000Z</time>
      </trkpt>
      <trkpt lat="43.16021" lon="5.69893">
        <ele>61.400001525879</ele>
        <time>2016-04-20T14:00:20.000Z</time>
      </trkpt>
      <trkpt lat="43.16016" lon="5.69911">
        <ele>62.599998474121</ele>
        <time>2016-04-20T14:00:24.000Z</time>
      </trkpt>
      <trkpt lat="43.16013" lon="5.69924">
        <ele>63.599998474121</ele>
        <time>2016-04-20T14:00:27.000Z</time>
      </trkpt>
      <trkpt lat="43.16011" lon="5.69936">
        <ele>64.400001525879</ele>
        <time>2016-04-20T14:00:30.000Z</time>
      </trkpt>
      <trkpt lat="43.16011" lon="5.69951">
        <ele>65.199996948242</ele>
        <time>2016-04-20T14:00:34.000Z</time>
      </trkpt>
      <trkpt lat="43.16009" lon="5.6997">
        <ele>66.599998474121</ele>
        <time>2016-04-20T14:00:38.000Z</time>
      </trkpt>
      <trkpt lat="43.16007" lon="5.69978">
        <ele>67.400001525879</ele>
        <time>2016-04-20T14:00:40.000Z</time>
      </trkpt>
      <trkpt lat="43.16006" lon="5.69982">
        <ele>67.800003051758</ele>
        <time>2016-04-20T14:00:41.000Z</time>
      </trkpt>
      <trkpt lat="43.16005" lon="5.69991">
        <ele>68.599998474121</ele>
        <time>2016-04-20T14:00:43.000Z</time>
      </trkpt>
      <trkpt lat="43.16003" lon="5.70005">
        <ele>69.800003051758</ele>
        <time>2016-04-20T14:00:46.000Z</time>
      </trkpt>
      <trkpt lat="43.16001" lon="5.70019">
        <ele>71</ele>
        <time>2016-04-20T14:00:49.000Z</time>
      </trkpt>
      <trkpt lat="43.16" lon="5.70023">
        <ele>71.199996948242</ele>
        <time>2016-04-20T14:00:50.000Z</time>
      </trkpt>
      <trkpt lat="43.15998" lon="5.7004">
        <ele>72.400001525879</ele>
        <time>2016-04-20T14:00:54.000Z</time>
      </trkpt>
      <trkpt lat="43.15995" lon="5.70054">
        <ele>73.599998474121</ele>
        <time>2016-04-20T14:00:57.000Z</time>
      </trkpt>
      <trkpt lat="43.15993" lon="5.70069">
        <ele>74.599998474121</ele>
        <time>2016-04-20T14:01:00.000Z</time>
      </trkpt>
      <trkpt lat="43.15991" lon="5.70084">
        <ele>75.400001525879</ele>
        <time>2016-04-20T14:01:03.000Z</time>
      </trkpt>
      <trkpt lat="43.15991" lon="5.70094">
        <ele>75.800003051758</ele>
        <time>2016-04-20T14:01:05.000Z</time>
      </trkpt>
      <trkpt lat="43.15993" lon="5.70106">
        <ele>75.599998474121</ele>
        <time>2016-04-20T14:01:08.000Z</time>
      </trkpt>
      <trkpt lat="43.15994" lon="5.70113">
        <ele>75.199996948242</ele>
        <time>2016-04-20T14:01:10.000Z</time>
      </trkpt>
      <trkpt lat="43.15996" lon="5.7012">
        <ele>74.800003051758</ele>
        <time>2016-04-20T14:01:12.000Z</time>
      </trkpt>
      <trkpt lat="43.16" lon="5.70135">
        <ele>73.599998474121</ele>
        <time>2016-04-20T14:01:16.000Z</time>
      </trkpt>
      <trkpt lat="43.16002" lon="5.70165">
        <ele>73.599998474121</ele>
        <time>2016-04-20T14:01:23.000Z</time>
      </trkpt>
      <trkpt lat="43.16002" lon="5.70199">
        <ele>74.400001525879</ele>
        <time>2016-04-20T14:01:29.000Z</time>
      </trkpt>
      <trkpt lat="43.16" lon="5.7025">
        <ele>75.199996948242</ele>
        <time>2016-04-20T14:01:36.000Z</time>
      </trkpt>
      <trkpt lat="43.16" lon="5.70291">
        <ele>75.800003051758</ele>
        <time>2016-04-20T14:01:42.000Z</time>
      </trkpt>
      <trkpt lat="43.16" lon="5.70304">
        <ele>75</ele>
        <time>2016-04-20T14:01:44.000Z</time>
      </trkpt>
      <trkpt lat="43.15998" lon="5.7036">
        <ele>74.400001525879</ele>
        <time>2016-04-20T14:01:53.000Z</time>
      </trkpt>
      <trkpt lat="43.15999" lon="5.70372">
        <ele>74.199996948242</ele>
        <time>2016-04-20T14:01:55.000Z</time>
      </trkpt>
      <trkpt lat="43.16001" lon="5.70389">
        <ele>73.199996948242</ele>
        <time>2016-04-20T14:01:58.000Z</time>
      </trkpt>
      <trkpt lat="43.16003" lon="5.70393">
        <ele>73</ele>
        <time>2016-04-20T14:01:59.000Z</time>
      </trkpt>
      <trkpt lat="43.16011" lon="5.70404">
        <ele>72.400001525879</ele>
        <time>2016-04-20T14:02:02.000Z</time>
      </trkpt>
      <trkpt lat="43.16017" lon="5.70408">
        <ele>72.800003051758</ele>
        <time>2016-04-20T14:02:04.000Z</time>
      </trkpt>
      <trkpt lat="43.16038" lon="5.70422">
        <ele>74.400001525879</ele>
        <time>2016-04-20T14:02:10.000Z</time>
      </trkpt>
      <trkpt lat="43.16053" lon="5.70436">
        <ele>75.199996948242</ele>
        <time>2016-04-20T14:02:15.000Z</time>
      </trkpt>
      <trkpt lat="43.16059" lon="5.70444">
        <ele>75.599998474121</ele>
        <time>2016-04-20T14:02:18.000Z</time>
      </trkpt>
      <trkpt lat="43.16067" lon="5.70459">
        <ele>75.800003051758</ele>
        <time>2016-04-20T14:02:22.000Z</time>
      </trkpt>
      <trkpt lat="43.1607" lon="5.70465">
        <ele>75.800003051758</ele>
        <time>2016-04-20T14:02:24.000Z</time>
      </trkpt>
      <trkpt lat="43.16072" lon="5.70472">
        <ele>75.800003051758</ele>
        <time>2016-04-20T14:02:26.000Z</time>
      </trkpt>
      <trkpt lat="43.16076" lon="5.70487">
        <ele>76.400001525879</ele>
        <time>2016-04-20T14:02:30.000Z</time>
      </trkpt>
      <trkpt lat="43.16078" lon="5.70504">
        <ele>76.800003051758</ele>
        <time>2016-04-20T14:02:34.000Z</time>
      </trkpt>
      <trkpt lat="43.16079" lon="5.7052">
        <ele>77.199996948242</ele>
        <time>2016-04-20T14:02:38.000Z</time>
      </trkpt>
      <trkpt lat="43.16079" lon="5.70528">
        <ele>77.199996948242</ele>
        <time>2016-04-20T14:02:40.000Z</time>
      </trkpt>
      <trkpt lat="43.16082" lon="5.70556">
        <ele>77.599998474121</ele>
        <time>2016-04-20T14:02:46.000Z</time>
      </trkpt>
      <trkpt lat="43.16088" lon="5.70586">
        <ele>78.400001525879</ele>
        <time>2016-04-20T14:02:53.000Z</time>
      </trkpt>
      <trkpt lat="43.1609" lon="5.70595">
        <ele>78.599998474121</ele>
        <time>2016-04-20T14:02:55.000Z</time>
      </trkpt>
      <trkpt lat="43.16098" lon="5.70625">
        <ele>79.599998474121</ele>
        <time>2016-04-20T14:03:02.000Z</time>
      </trkpt>
      <trkpt lat="43.16108" lon="5.70672">
        <ele>81.800003051758</ele>
        <time>2016-04-20T14:03:12.000Z</time>
      </trkpt>
      <trkpt lat="43.16107" lon="5.70702">
        <ele>81</ele>
        <time>2016-04-20T14:03:18.000Z</time>
      </trkpt>
      <trkpt lat="43.16097" lon="5.70728">
        <ele>78.599998474121</ele>
        <time>2016-04-20T14:03:24.000Z</time>
      </trkpt>
      <trkpt lat="43.16092" lon="5.70761">
        <ele>77.199996948242</ele>
        <time>2016-04-20T14:03:30.000Z</time>
      </trkpt>
      <trkpt lat="43.16093" lon="5.70796">
        <ele>77</ele>
        <time>2016-04-20T14:03:35.000Z</time>
      </trkpt>
      <trkpt lat="43.16098" lon="5.70828">
        <ele>77</ele>
        <time>2016-04-20T14:03:39.000Z</time>
      </trkpt>
      <trkpt lat="43.16103" lon="5.70859">
        <ele>77</ele>
        <time>2016-04-20T14:03:43.000Z</time>
      </trkpt>
      <trkpt lat="43.16104" lon="5.70898">
        <ele>76</ele>
        <time>2016-04-20T14:03:48.000Z</time>
      </trkpt>
      <trkpt lat="43.16104" lon="5.70906">
        <ele>75.599998474121</ele>
        <time>2016-04-20T14:03:49.000Z</time>
      </trkpt>
      <trkpt lat="43.16102" lon="5.7093">
        <ele>74.800003051758</ele>
        <time>2016-04-20T14:03:52.000Z</time>
      </trkpt>
      <trkpt lat="43.16101" lon="5.70986">
        <ele>72.800003051758</ele>
        <time>2016-04-20T14:03:59.000Z</time>
      </trkpt>
      <trkpt lat="43.16105" lon="5.71038">
        <ele>70.199996948242</ele>
        <time>2016-04-20T14:04:05.000Z</time>
      </trkpt>
      <trkpt lat="43.16117" lon="5.71089">
        <ele>67.599998474121</ele>
        <time>2016-04-20T14:04:10.000Z</time>
      </trkpt>
      <trkpt lat="43.16138" lon="5.71129">
        <ele>66.800003051758</ele>
        <time>2016-04-20T14:04:14.000Z</time>
      </trkpt>
      <trkpt lat="43.16151" lon="5.7115">
        <ele>65.599998474121</ele>
        <time>2016-04-20T14:04:16.000Z</time>
      </trkpt>
      <trkpt lat="43.16163" lon="5.7117">
        <ele>63.799999237061</ele>
        <time>2016-04-20T14:04:18.000Z</time>
      </trkpt>
      <trkpt lat="43.16182" lon="5.71202">
        <ele>61.799999237061</ele>
        <time>2016-04-20T14:04:21.000Z</time>
      </trkpt>
      <trkpt lat="43.16194" lon="5.71222">
        <ele>61.799999237061</ele>
        <time>2016-04-20T14:04:23.000Z</time>
      </trkpt>
      <trkpt lat="43.162" lon="5.71232">
        <ele>61.400001525879</ele>
        <time>2016-04-20T14:04:24.000Z</time>
      </trkpt>
      <trkpt lat="43.16205" lon="5.7124">
        <ele>61.200000762939</ele>
        <time>2016-04-20T14:04:25.000Z</time>
      </trkpt>
      <trkpt lat="43.16213" lon="5.71256">
        <ele>60.200000762939</ele>
        <time>2016-04-20T14:04:27.000Z</time>
      </trkpt>
      <trkpt lat="43.16216" lon="5.71264">
        <ele>60.200000762939</ele>
        <time>2016-04-20T14:04:28.000Z</time>
      </trkpt>
      <trkpt lat="43.16218" lon="5.71274">
        <ele>59.799999237061</ele>
        <time>2016-04-20T14:04:29.000Z</time>
      </trkpt>
      <trkpt lat="43.16216" lon="5.71293">
        <ele>58.799999237061</ele>
        <time>2016-04-20T14:04:31.000Z</time>
      </trkpt>
      <trkpt lat="43.16212" lon="5.71314">
        <ele>57</ele>
        <time>2016-04-20T14:04:33.000Z</time>
      </trkpt>
      <trkpt lat="43.16209" lon="5.71324">
        <ele>56</ele>
        <time>2016-04-20T14:04:34.000Z</time>
      </trkpt>
      <trkpt lat="43.16204" lon="5.71344">
        <ele>54.400001525879</ele>
        <time>2016-04-20T14:04:36.000Z</time>
      </trkpt>
      <trkpt lat="43.16198" lon="5.71373">
        <ele>52.599998474121</ele>
        <time>2016-04-20T14:04:39.000Z</time>
      </trkpt>
      <trkpt lat="43.16196" lon="5.71383">
        <ele>52</ele>
        <time>2016-04-20T14:04:40.000Z</time>
      </trkpt>
      <trkpt lat="43.16195" lon="5.71401">
        <ele>51.200000762939</ele>
        <time>2016-04-20T14:04:42.000Z</time>
      </trkpt>
      <trkpt lat="43.16196" lon="5.71409">
        <ele>50.799999237061</ele>
        <time>2016-04-20T14:04:43.000Z</time>
      </trkpt>
      <trkpt lat="43.16199" lon="5.71417">
        <ele>50.599998474121</ele>
        <time>2016-04-20T14:04:44.000Z</time>
      </trkpt>
      <trkpt lat="43.16203" lon="5.71424">
        <ele>50.599998474121</ele>
        <time>2016-04-20T14:04:45.000Z</time>
      </trkpt>
      <trkpt lat="43.16213" lon="5.71436">
        <ele>50.599998474121</ele>
        <time>2016-04-20T14:04:47.000Z</time>
      </trkpt>
      <trkpt lat="43.16218" lon="5.71441">
        <ele>50.400001525879</ele>
        <time>2016-04-20T14:04:48.000Z</time>
      </trkpt>
      <trkpt lat="43.16223" lon="5.71447">
        <ele>50.400001525879</ele>
        <time>2016-04-20T14:04:49.000Z</time>
      </trkpt>
      <trkpt lat="43.16242" lon="5.71469">
        <ele>50.400001525879</ele>
        <time>2016-04-20T14:04:54.000Z</time>
      </trkpt>
      <trkpt lat="43.16244" lon="5.71473">
        <ele>50.400001525879</ele>
        <time>2016-04-20T14:04:55.000Z</time>
      </trkpt>
      <trkpt lat="43.16245" lon="5.71478">
        <ele>50.400001525879</ele>
        <time>2016-04-20T14:04:58.000Z</time>
      </trkpt>
      <trkpt lat="43.16246" lon="5.7148">
        <ele>50.400001525879</ele>
        <time>2016-04-20T14:05:03.000Z</time>
      </trkpt>
      <trkpt lat="43.16251" lon="5.71484">
        <ele>50.599998474121</ele>
        <time>2016-04-20T14:05:05.000Z</time>
      </trkpt>
      <trkpt lat="43.16269" lon="5.71489">
        <ele>51.200000762939</ele>
        <time>2016-04-20T14:05:10.000Z</time>
      </trkpt>
      <trkpt lat="43.16301" lon="5.71496">
        <ele>52.400001525879</ele>
        <time>2016-04-20T14:05:18.000Z</time>
      </trkpt>
      <trkpt lat="43.16305" lon="5.71496">
        <ele>52.599998474121</ele>
        <time>2016-04-20T14:05:19.000Z</time>
      </trkpt>
      <trkpt lat="43.16313" lon="5.71497">
        <ele>52.799999237061</ele>
        <time>2016-04-20T14:05:21.000Z</time>
      </trkpt>
      <trkpt lat="43.16339" lon="5.71499">
        <ele>53.799999237061</ele>
        <time>2016-04-20T14:05:27.000Z</time>
      </trkpt>
      <trkpt lat="43.16348" lon="5.71499">
        <ele>54</ele>
        <time>2016-04-20T14:05:29.000Z</time>
      </trkpt>
      <trkpt lat="43.16357" lon="5.715">
        <ele>54.200000762939</ele>
        <time>2016-04-20T14:05:31.000Z</time>
      </trkpt>
      <trkpt lat="43.16378" lon="5.715">
        <ele>55</ele>
        <time>2016-04-20T14:05:36.000Z</time>
      </trkpt>
      <trkpt lat="43.164" lon="5.71501">
        <ele>56.200000762939</ele>
        <time>2016-04-20T14:05:41.000Z</time>
      </trkpt>
      <trkpt lat="43.16417" lon="5.71502">
        <ele>57.200000762939</ele>
        <time>2016-04-20T14:05:45.000Z</time>
      </trkpt>
      <trkpt lat="43.16434" lon="5.71503">
        <ele>58.200000762939</ele>
        <time>2016-04-20T14:05:49.000Z</time>
      </trkpt>
      <trkpt lat="43.16446" lon="5.71504">
        <ele>58.599998474121</ele>
        <time>2016-04-20T14:05:52.000Z</time>
      </trkpt>
      <trkpt lat="43.16467" lon="5.71504">
        <ele>59.799999237061</ele>
        <time>2016-04-20T14:05:57.000Z</time>
      </trkpt>
      <trkpt lat="43.16479" lon="5.71505">
        <ele>60.400001525879</ele>
        <time>2016-04-20T14:06:00.000Z</time>
      </trkpt>
      <trkpt lat="43.16495" lon="5.71506">
        <ele>61.400001525879</ele>
        <time>2016-04-20T14:06:04.000Z</time>
      </trkpt>
      <trkpt lat="43.16518" lon="5.71506">
        <ele>63.200000762939</ele>
        <time>2016-04-20T14:06:10.000Z</time>
      </trkpt>
      <trkpt lat="43.16533" lon="5.71507">
        <ele>65.199996948242</ele>
        <time>2016-04-20T14:06:14.000Z</time>
      </trkpt>
      <trkpt lat="43.16546" lon="5.71507">
        <ele>66.800003051758</ele>
        <time>2016-04-20T14:06:17.000Z</time>
      </trkpt>
      <trkpt lat="43.16554" lon="5.71508">
        <ele>67.800003051758</ele>
        <time>2016-04-20T14:06:19.000Z</time>
      </trkpt>
      <trkpt lat="43.16565" lon="5.71511">
        <ele>69.199996948242</ele>
        <time>2016-04-20T14:06:22.000Z</time>
      </trkpt>
      <trkpt lat="43.1657" lon="5.71518">
        <ele>69.599998474121</ele>
        <time>2016-04-20T14:06:24.000Z</time>
      </trkpt>
      <trkpt lat="43.16576" lon="5.71533">
        <ele>69.599998474121</ele>
        <time>2016-04-20T14:06:27.000Z</time>
      </trkpt>
      <trkpt lat="43.16577" lon="5.71539">
        <ele>69.400001525879</ele>
        <time>2016-04-20T14:06:28.000Z</time>
      </trkpt>
      <trkpt lat="43.16582" lon="5.71557">
        <ele>70</ele>
        <time>2016-04-20T14:06:32.000Z</time>
      </trkpt>
      <trkpt lat="43.16584" lon="5.71565">
        <ele>71.400001525879</ele>
        <time>2016-04-20T14:06:34.000Z</time>
      </trkpt>
      <trkpt lat="43.16586" lon="5.71574">
        <ele>73</ele>
        <time>2016-04-20T14:06:48.000Z</time>
      </trkpt>
      <trkpt lat="43.1659" lon="5.71582">
        <ele>74.800003051758</ele>
        <time>2016-04-20T14:06:50.000Z</time>
      </trkpt>
      <trkpt lat="43.16595" lon="5.71583">
        <ele>75.599998474121</ele>
        <time>2016-04-20T14:06:51.000Z</time>
      </trkpt>
      <trkpt lat="43.16604" lon="5.71586">
        <ele>76.400001525879</ele>
        <time>2016-04-20T14:06:53.000Z</time>
      </trkpt>
      <trkpt lat="43.16622" lon="5.71593">
        <ele>77.800003051758</ele>
        <time>2016-04-20T14:06:57.000Z</time>
      </trkpt>
      <trkpt lat="43.16645" lon="5.71603">
        <ele>80</ele>
        <time>2016-04-20T14:07:02.000Z</time>
      </trkpt>
      <trkpt lat="43.1665" lon="5.71605">
        <ele>80.599998474121</ele>
        <time>2016-04-20T14:07:03.000Z</time>
      </trkpt>
      <trkpt lat="43.16663" lon="5.71611">
        <ele>82.199996948242</ele>
        <time>2016-04-20T14:07:06.000Z</time>
      </trkpt>
      <trkpt lat="43.16681" lon="5.71619">
        <ele>84.199996948242</ele>
        <time>2016-04-20T14:07:10.000Z</time>
      </trkpt>
      <trkpt lat="43.16694" lon="5.71627">
        <ele>84.800003051758</ele>
        <time>2016-04-20T14:07:13.000Z</time>
      </trkpt>
      <trkpt lat="43.16703" lon="5.71633">
        <ele>85.400001525879</ele>
        <time>2016-04-20T14:07:15.000Z</time>
      </trkpt>
      <trkpt lat="43.1672" lon="5.71647">
        <ele>86</ele>
        <time>2016-04-20T14:07:19.000Z</time>
      </trkpt>
      <trkpt lat="43.16727" lon="5.71655">
        <ele>86.400001525879</ele>
        <time>2016-04-20T14:07:21.000Z</time>
      </trkpt>
      <trkpt lat="43.16743" lon="5.71673">
        <ele>87.400001525879</ele>
        <time>2016-04-20T14:07:25.000Z</time>
      </trkpt>
      <trkpt lat="43.16747" lon="5.71678">
        <ele>87.599998474121</ele>
        <time>2016-04-20T14:07:26.000Z</time>
      </trkpt>
      <trkpt lat="43.16768" lon="5.71703">
        <ele>87.599998474121</ele>
        <time>2016-04-20T14:07:32.000Z</time>
      </trkpt>
      <trkpt lat="43.1679" lon="5.71717">
        <ele>84</ele>
        <time>2016-04-20T14:07:36.000Z</time>
      </trkpt>
      <trkpt lat="43.16795" lon="5.71722">
        <ele>83</ele>
        <time>2016-04-20T14:07:37.000Z</time>
      </trkpt>
      <trkpt lat="43.16804" lon="5.71737">
        <ele>81.199996948242</ele>
        <time>2016-04-20T14:07:39.000Z</time>
      </trkpt>
      <trkpt lat="43.1681" lon="5.71758">
        <ele>80</ele>
        <time>2016-04-20T14:07:41.000Z</time>
      </trkpt>
      <trkpt lat="43.16812" lon="5.71767">
        <ele>79.599998474121</ele>
        <time>2016-04-20T14:07:42.000Z</time>
      </trkpt>
      <trkpt lat="43.16814" lon="5.71777">
        <ele>79.599998474121</ele>
        <time>2016-04-20T14:07:43.000Z</time>
      </trkpt>
      <trkpt lat="43.16822" lon="5.71828">
        <ele>80.800003051758</ele>
        <time>2016-04-20T14:07:48.000Z</time>
      </trkpt>
      <trkpt lat="43.16823" lon="5.71838">
        <ele>80.800003051758</ele>
        <time>2016-04-20T14:07:49.000Z</time>
      </trkpt>
      <trkpt lat="43.16826" lon="5.71859">
        <ele>80.599998474121</ele>
        <time>2016-04-20T14:07:51.000Z</time>
      </trkpt>
      <trkpt lat="43.1683" lon="5.7188">
        <ele>80.800003051758</ele>
        <time>2016-04-20T14:07:53.000Z</time>
      </trkpt>
      <trkpt lat="43.16833" lon="5.71889">
        <ele>80.400001525879</ele>
        <time>2016-04-20T14:07:54.000Z</time>
      </trkpt>
      <trkpt lat="43.16841" lon="5.71907">
        <ele>78.400001525879</ele>
        <time>2016-04-20T14:07:56.000Z</time>
      </trkpt>
      <trkpt lat="43.16846" lon="5.71915">
        <ele>77</ele>
        <time>2016-04-20T14:07:57.000Z</time>
      </trkpt>
      <trkpt lat="43.16866" lon="5.71935">
        <ele>75.199996948242</ele>
        <time>2016-04-20T14:08:00.000Z</time>
      </trkpt>
      <trkpt lat="43.16873" lon="5.7194">
        <ele>74.400001525879</ele>
        <time>2016-04-20T14:08:01.000Z</time>
      </trkpt>
      <trkpt lat="43.16889" lon="5.71949">
        <ele>72.599998474121</ele>
        <time>2016-04-20T14:08:03.000Z</time>
      </trkpt>
      <trkpt lat="43.16897" lon="5.71951">
        <ele>71.400001525879</ele>
        <time>2016-04-20T14:08:04.000Z</time>
      </trkpt>
      <trkpt lat="43.16906" lon="5.71951">
        <ele>70.199996948242</ele>
        <time>2016-04-20T14:08:05.000Z</time>
      </trkpt>
      <trkpt lat="43.16926" lon="5.71951">
        <ele>66.199996948242</ele>
        <time>2016-04-20T14:08:07.000Z</time>
      </trkpt>
      <trkpt lat="43.16935" lon="5.7195">
        <ele>65</ele>
        <time>2016-04-20T14:08:08.000Z</time>
      </trkpt>
      <trkpt lat="43.16944" lon="5.71948">
        <ele>64.400001525879</ele>
        <time>2016-04-20T14:08:09.000Z</time>
      </trkpt>
      <trkpt lat="43.1697" lon="5.71942">
        <ele>62</ele>
        <time>2016-04-20T14:08:12.000Z</time>
      </trkpt>
      <trkpt lat="43.16978" lon="5.71942">
        <ele>61.599998474121</ele>
        <time>2016-04-20T14:08:13.000Z</time>
      </trkpt>
      <trkpt lat="43.16986" lon="5.71943">
        <ele>61.200000762939</ele>
        <time>2016-04-20T14:08:14.000Z</time>
      </trkpt>
      <trkpt lat="43.16993" lon="5.71945">
        <ele>61.200000762939</ele>
        <time>2016-04-20T14:08:15.000Z</time>
      </trkpt>
      <trkpt lat="43.17" lon="5.71946">
        <ele>61.200000762939</ele>
        <time>2016-04-20T14:08:16.000Z</time>
      </trkpt>
      <trkpt lat="43.17028" lon="5.71954">
        <ele>61.200000762939</ele>
        <time>2016-04-20T14:08:21.000Z</time>
      </trkpt>
      <trkpt lat="43.17051" lon="5.71956">
        <ele>60.799999237061</ele>
        <time>2016-04-20T14:08:26.000Z</time>
      </trkpt>
      <trkpt lat="43.17055" lon="5.71957">
        <ele>60.799999237061</ele>
        <time>2016-04-20T14:08:27.000Z</time>
      </trkpt>
      <trkpt lat="43.17076" lon="5.71976">
        <ele>61.799999237061</ele>
        <time>2016-04-20T14:08:33.000Z</time>
      </trkpt>
      <trkpt lat="43.17082" lon="5.71983">
        <ele>62</ele>
        <time>2016-04-20T14:08:35.000Z</time>
      </trkpt>
      <trkpt lat="43.17088" lon="5.71997">
        <ele>62.400001525879</ele>
        <time>2016-04-20T14:08:38.000Z</time>
      </trkpt>
      <trkpt lat="43.17103" lon="5.72033">
        <ele>63.400001525879</ele>
        <time>2016-04-20T14:08:45.000Z</time>
      </trkpt>
      <trkpt lat="43.17116" lon="5.72061">
        <ele>63.400001525879</ele>
        <time>2016-04-20T14:08:50.000Z</time>
      </trkpt>
      <trkpt lat="43.17124" lon="5.72071">
        <ele>63.200000762939</ele>
        <time>2016-04-20T14:08:52.000Z</time>
      </trkpt>
      <trkpt lat="43.17159" lon="5.72125">
        <ele>63.200000762939</ele>
        <time>2016-04-20T14:09:02.000Z</time>
      </trkpt>
      <trkpt lat="43.17181" lon="5.72173">
        <ele>67</ele>
        <time>2016-04-20T14:09:10.000Z</time>
      </trkpt>
      <trkpt lat="43.17201" lon="5.72218">
        <ele>71</ele>
        <time>2016-04-20T14:09:18.000Z</time>
      </trkpt>
      <trkpt lat="43.17204" lon="5.72224">
        <ele>71.199996948242</ele>
        <time>2016-04-20T14:09:19.000Z</time>
      </trkpt>
      <trkpt lat="43.17226" lon="5.72261">
        <ele>71.400001525879</ele>
        <time>2016-04-20T14:09:26.000Z</time>
      </trkpt>
      <trkpt lat="43.1725" lon="5.72308">
        <ele>72.400001525879</ele>
        <time>2016-04-20T14:09:34.000Z</time>
      </trkpt>
      <trkpt lat="43.17266" lon="5.72347">
        <ele>71.599998474121</ele>
        <time>2016-04-20T14:09:40.000Z</time>
      </trkpt>
      <trkpt lat="43.17268" lon="5.72354">
        <ele>71.400001525879</ele>
        <time>2016-04-20T14:09:41.000Z</time>
      </trkpt>
      <trkpt lat="43.1728" lon="5.72392">
        <ele>70.800003051758</ele>
        <time>2016-04-20T14:09:46.000Z</time>
      </trkpt>
      <trkpt lat="43.17283" lon="5.72401">
        <ele>70.599998474121</ele>
        <time>2016-04-20T14:09:47.000Z</time>
      </trkpt>
      <trkpt lat="43.17286" lon="5.7241">
        <ele>70.400001525879</ele>
        <time>2016-04-20T14:09:48.000Z</time>
      </trkpt>
      <trkpt lat="43.17299" lon="5.72432">
        <ele>68</ele>
        <time>2016-04-20T14:09:51.000Z</time>
      </trkpt>
      <trkpt lat="43.17308" lon="5.72443">
        <ele>66.199996948242</ele>
        <time>2016-04-20T14:09:53.000Z</time>
      </trkpt>
      <trkpt lat="43.17323" lon="5.72457">
        <ele>63.599998474121</ele>
        <time>2016-04-20T14:09:56.000Z</time>
      </trkpt>
      <trkpt lat="43.17331" lon="5.72465">
        <ele>62</ele>
        <time>2016-04-20T14:09:58.000Z</time>
      </trkpt>
      <trkpt lat="43.17352" lon="5.72484">
        <ele>60.799999237061</ele>
        <time>2016-04-20T14:10:03.000Z</time>
      </trkpt>
      <trkpt lat="43.1736" lon="5.72492">
        <ele>60.799999237061</ele>
        <time>2016-04-20T14:10:05.000Z</time>
      </trkpt>
      <trkpt lat="43.17367" lon="5.72502">
        <ele>61.200000762939</ele>
        <time>2016-04-20T14:10:07.000Z</time>
      </trkpt>
      <trkpt lat="43.17375" lon="5.72521">
        <ele>62.200000762939</ele>
        <time>2016-04-20T14:10:10.000Z</time>
      </trkpt>
      <trkpt lat="43.17377" lon="5.72527">
        <ele>62.599998474121</ele>
        <time>2016-04-20T14:10:11.000Z</time>
      </trkpt>
      <trkpt lat="43.17386" lon="5.72568">
        <ele>65.199996948242</ele>
        <time>2016-04-20T14:10:17.000Z</time>
      </trkpt>
      <trkpt lat="43.17388" lon="5.72589">
        <ele>66</ele>
        <time>2016-04-20T14:10:20.000Z</time>
      </trkpt>
      <trkpt lat="43.17387" lon="5.72609">
        <ele>66.800003051758</ele>
        <time>2016-04-20T14:10:23.000Z</time>
      </trkpt>
      <trkpt lat="43.17384" lon="5.72675">
        <ele>68.199996948242</ele>
        <time>2016-04-20T14:10:33.000Z</time>
      </trkpt>
      <trkpt lat="43.17381" lon="5.72704">
        <ele>68.199996948242</ele>
        <time>2016-04-20T14:10:38.000Z</time>
      </trkpt>
      <trkpt lat="43.17381" lon="5.7271">
        <ele>68.199996948242</ele>
        <time>2016-04-20T14:10:39.000Z</time>
      </trkpt>
      <trkpt lat="43.17385" lon="5.72725">
        <ele>68.400001525879</ele>
        <time>2016-04-20T14:10:42.000Z</time>
      </trkpt>
      <trkpt lat="43.17388" lon="5.72729">
        <ele>68.400001525879</ele>
        <time>2016-04-20T14:10:43.000Z</time>
      </trkpt>
      <trkpt lat="43.17398" lon="5.72741">
        <ele>68.400001525879</ele>
        <time>2016-04-20T14:10:46.000Z</time>
      </trkpt>
      <trkpt lat="43.1741" lon="5.72755">
        <ele>68.400001525879</ele>
        <time>2016-04-20T14:10:50.000Z</time>
      </trkpt>
      <trkpt lat="43.17426" lon="5.72772">
        <ele>68.599998474121</ele>
        <time>2016-04-20T14:10:55.000Z</time>
      </trkpt>
      <trkpt lat="43.17446" lon="5.72793">
        <ele>68.800003051758</ele>
        <time>2016-04-20T14:11:01.000Z</time>
      </trkpt>
      <trkpt lat="43.17455" lon="5.72799">
        <ele>68.800003051758</ele>
        <time>2016-04-20T14:11:03.000Z</time>
      </trkpt>
      <trkpt lat="43.17459" lon="5.72802">
        <ele>68.800003051758</ele>
        <time>2016-04-20T14:11:04.000Z</time>
      </trkpt>
      <trkpt lat="43.17487" lon="5.72818">
        <ele>69</ele>
        <time>2016-04-20T14:11:10.000Z</time>
      </trkpt>
      <trkpt lat="43.175" lon="5.72829">
        <ele>69.199996948242</ele>
        <time>2016-04-20T14:11:13.000Z</time>
      </trkpt>
      <trkpt lat="43.1751" lon="5.72832">
        <ele>69</ele>
        <time>2016-04-20T14:11:15.000Z</time>
      </trkpt>
      <trkpt lat="43.17515" lon="5.72832">
        <ele>69</ele>
        <time>2016-04-20T14:11:16.000Z</time>
      </trkpt>
      <trkpt lat="43.17552" lon="5.72839">
        <ele>69.599998474121</ele>
        <time>2016-04-20T14:11:23.000Z</time>
      </trkpt>
      <trkpt lat="43.17581" lon="5.72859">
        <ele>71.199996948242</ele>
        <time>2016-04-20T14:11:29.000Z</time>
      </trkpt>
      <trkpt lat="43.17595" lon="5.72869">
        <ele>72</ele>
        <time>2016-04-20T14:11:32.000Z</time>
      </trkpt>
      <trkpt lat="43.17607" lon="5.72879">
        <ele>72.599998474121</ele>
        <time>2016-04-20T14:11:35.000Z</time>
      </trkpt>
      <trkpt lat="43.17611" lon="5.72883">
        <ele>72.800003051758</ele>
        <time>2016-04-20T14:11:36.000Z</time>
      </trkpt>
      <trkpt lat="43.17617" lon="5.7289">
        <ele>73.199996948242</ele>
        <time>2016-04-20T14:11:38.000Z</time>
      </trkpt>
      <trkpt lat="43.17626" lon="5.72901">
        <ele>73.800003051758</ele>
        <time>2016-04-20T14:11:41.000Z</time>
      </trkpt>
      <trkpt lat="43.17631" lon="5.72909">
        <ele>74.400001525879</ele>
        <time>2016-04-20T14:11:43.000Z</time>
      </trkpt>
      <trkpt lat="43.17633" lon="5.72913">
        <ele>74.599998474121</ele>
        <time>2016-04-20T14:11:44.000Z</time>
      </trkpt>
      <trkpt lat="43.17642" lon="5.72934">
        <ele>75.800003051758</ele>
        <time>2016-04-20T14:11:49.000Z</time>
      </trkpt>
      <trkpt lat="43.17646" lon="5.72943">
        <ele>76.599998474121</ele>
        <time>2016-04-20T14:11:51.000Z</time>
      </trkpt>
      <trkpt lat="43.17648" lon="5.72948">
        <ele>77.199996948242</ele>
        <time>2016-04-20T14:11:52.000Z</time>
      </trkpt>
      <trkpt lat="43.17655" lon="5.72962">
        <ele>78.599998474121</ele>
        <time>2016-04-20T14:11:55.000Z</time>
      </trkpt>
      <trkpt lat="43.17669" lon="5.72973">
        <ele>78.800003051758</ele>
        <time>2016-04-20T14:11:59.000Z</time>
      </trkpt>
      <trkpt lat="43.17678" lon="5.72975">
        <ele>78.199996948242</ele>
        <time>2016-04-20T14:12:01.000Z</time>
      </trkpt>
      <trkpt lat="43.17697" lon="5.72979">
        <ele>78.800003051758</ele>
        <time>2016-04-20T14:12:05.000Z</time>
      </trkpt>
      <trkpt lat="43.17709" lon="5.72982">
        <ele>79.199996948242</ele>
        <time>2016-04-20T14:12:08.000Z</time>
      </trkpt>
      <trkpt lat="43.17722" lon="5.72985">
        <ele>79.800003051758</ele>
        <time>2016-04-20T14:12:11.000Z</time>
      </trkpt>
      <trkpt lat="43.1774" lon="5.7299">
        <ele>80.400001525879</ele>
        <time>2016-04-20T14:12:15.000Z</time>
      </trkpt>
      <trkpt lat="43.17752" lon="5.72994">
        <ele>80.800003051758</ele>
        <time>2016-04-20T14:12:18.000Z</time>
      </trkpt>
      <trkpt lat="43.17769" lon="5.73001">
        <ele>81.599998474121</ele>
        <time>2016-04-20T14:12:22.000Z</time>
      </trkpt>
      <trkpt lat="43.17777" lon="5.73007">
        <ele>82</ele>
        <time>2016-04-20T14:12:24.000Z</time>
      </trkpt>
      <trkpt lat="43.17784" lon="5.73013">
        <ele>82.199996948242</ele>
        <time>2016-04-20T14:12:26.000Z</time>
      </trkpt>
      <trkpt lat="43.17799" lon="5.73023">
        <ele>83</ele>
        <time>2016-04-20T14:12:30.000Z</time>
      </trkpt>
      <trkpt lat="43.17806" lon="5.73028">
        <ele>83.199996948242</ele>
        <time>2016-04-20T14:12:32.000Z</time>
      </trkpt>
      <trkpt lat="43.17816" lon="5.73037">
        <ele>83.800003051758</ele>
        <time>2016-04-20T14:12:35.000Z</time>
      </trkpt>
      <trkpt lat="43.17829" lon="5.73054">
        <ele>84.800003051758</ele>
        <time>2016-04-20T14:12:39.000Z</time>
      </trkpt>
      <trkpt lat="43.17833" lon="5.73058">
        <ele>85</ele>
        <time>2016-04-20T14:12:40.000Z</time>
      </trkpt>
      <trkpt lat="43.17854" lon="5.73085">
        <ele>86</ele>
        <time>2016-04-20T14:12:47.000Z</time>
      </trkpt>
      <trkpt lat="43.17874" lon="5.73105">
        <ele>86.400001525879</ele>
        <time>2016-04-20T14:12:53.000Z</time>
      </trkpt>
      <trkpt lat="43.1791" lon="5.73134">
        <ele>87</ele>
        <time>2016-04-20T14:13:03.000Z</time>
      </trkpt>
      <trkpt lat="43.17917" lon="5.73141">
        <ele>87.400001525879</ele>
        <time>2016-04-20T14:13:05.000Z</time>
      </trkpt>
      <trkpt lat="43.17933" lon="5.73154">
        <ele>87.800003051758</ele>
        <time>2016-04-20T14:13:09.000Z</time>
      </trkpt>
      <trkpt lat="43.17964" lon="5.73186">
        <ele>88.599998474121</ele>
        <time>2016-04-20T14:13:17.000Z</time>
      </trkpt>
      <trkpt lat="43.17976" lon="5.73199">
        <ele>89</ele>
        <time>2016-04-20T14:13:20.000Z</time>
      </trkpt>
      <trkpt lat="43.17998" lon="5.73225">
        <ele>89.800003051758</ele>
        <time>2016-04-20T14:13:26.000Z</time>
      </trkpt>
      <trkpt lat="43.18001" lon="5.7323">
        <ele>90</ele>
        <time>2016-04-20T14:13:27.000Z</time>
      </trkpt>
      <trkpt lat="43.18004" lon="5.73234">
        <ele>90</ele>
        <time>2016-04-20T14:13:28.000Z</time>
      </trkpt>
      <trkpt lat="43.18016" lon="5.73244">
        <ele>90.400001525879</ele>
        <time>2016-04-20T14:13:31.000Z</time>
      </trkpt>
      <trkpt lat="43.18025" lon="5.73249">
        <ele>90.599998474121</ele>
        <time>2016-04-20T14:13:33.000Z</time>
      </trkpt>
      <trkpt lat="43.18055" lon="5.7327">
        <ele>91.400001525879</ele>
        <time>2016-04-20T14:13:40.000Z</time>
      </trkpt>
      <trkpt lat="43.18063" lon="5.73278">
        <ele>91.800003051758</ele>
        <time>2016-04-20T14:13:42.000Z</time>
      </trkpt>
      <trkpt lat="43.18082" lon="5.73297">
        <ele>92.800003051758</ele>
        <time>2016-04-20T14:13:47.000Z</time>
      </trkpt>
      <trkpt lat="43.18086" lon="5.73301">
        <ele>93</ele>
        <time>2016-04-20T14:13:48.000Z</time>
      </trkpt>
      <trkpt lat="43.18104" lon="5.73322">
        <ele>93.800003051758</ele>
        <time>2016-04-20T14:13:53.000Z</time>
      </trkpt>
      <trkpt lat="43.18113" lon="5.73335">
        <ele>94.199996948242</ele>
        <time>2016-04-20T14:13:56.000Z</time>
      </trkpt>
      <trkpt lat="43.18123" lon="5.73349">
        <ele>94.800003051758</ele>
        <time>2016-04-20T14:13:59.000Z</time>
      </trkpt>
      <trkpt lat="43.18133" lon="5.7337">
        <ele>95.800003051758</ele>
        <time>2016-04-20T14:14:03.000Z</time>
      </trkpt>
      <trkpt lat="43.18136" lon="5.73375">
        <ele>96</ele>
        <time>2016-04-20T14:14:04.000Z</time>
      </trkpt>
      <trkpt lat="43.18155" lon="5.7341">
        <ele>96.599998474121</ele>
        <time>2016-04-20T14:14:11.000Z</time>
      </trkpt>
      <trkpt lat="43.18161" lon="5.73426">
        <ele>96.599998474121</ele>
        <time>2016-04-20T14:14:14.000Z</time>
      </trkpt>
      <trkpt lat="43.18167" lon="5.73442">
        <ele>96.800003051758</ele>
        <time>2016-04-20T14:14:17.000Z</time>
      </trkpt>
      <trkpt lat="43.18176" lon="5.73463">
        <ele>97</ele>
        <time>2016-04-20T14:14:21.000Z</time>
      </trkpt>
      <trkpt lat="43.18182" lon="5.73473">
        <ele>97</ele>
        <time>2016-04-20T14:14:23.000Z</time>
      </trkpt>
      <trkpt lat="43.18198" lon="5.73502">
        <ele>98</ele>
        <time>2016-04-20T14:14:29.000Z</time>
      </trkpt>
      <trkpt lat="43.18201" lon="5.73507">
        <ele>98.199996948242</ele>
        <time>2016-04-20T14:14:30.000Z</time>
      </trkpt>
      <trkpt lat="43.18218" lon="5.73535">
        <ele>99.199996948242</ele>
        <time>2016-04-20T14:14:36.000Z</time>
      </trkpt>
      <trkpt lat="43.18237" lon="5.73568">
        <ele>100.19999694824</ele>
        <time>2016-04-20T14:14:42.000Z</time>
      </trkpt>
      <trkpt lat="43.18246" lon="5.73585">
        <ele>100.80000305176</ele>
        <time>2016-04-20T14:14:45.000Z</time>
      </trkpt>
      <trkpt lat="43.18256" lon="5.73601">
        <ele>101.40000152588</ele>
        <time>2016-04-20T14:14:48.000Z</time>
      </trkpt>
      <trkpt lat="43.18273" lon="5.73626">
        <ele>102.40000152588</ele>
        <time>2016-04-20T14:14:53.000Z</time>
      </trkpt>
      <trkpt lat="43.18277" lon="5.7363">
        <ele>102.40000152588</ele>
        <time>2016-04-20T14:14:54.000Z</time>
      </trkpt>
      <trkpt lat="43.18305" lon="5.73659">
        <ele>103.59999847412</ele>
        <time>2016-04-20T14:15:01.000Z</time>
      </trkpt>
      <trkpt lat="43.1832" lon="5.73676">
        <ele>104.19999694824</ele>
        <time>2016-04-20T14:15:05.000Z</time>
      </trkpt>
      <trkpt lat="43.18331" lon="5.7369">
        <ele>104.80000305176</ele>
        <time>2016-04-20T14:15:08.000Z</time>
      </trkpt>
      <trkpt lat="43.18335" lon="5.73695">
        <ele>105</ele>
        <time>2016-04-20T14:15:09.000Z</time>
      </trkpt>
      <trkpt lat="43.18338" lon="5.73701">
        <ele>105.19999694824</ele>
        <time>2016-04-20T14:15:10.000Z</time>
      </trkpt>
      <trkpt lat="43.18367" lon="5.73748">
        <ele>106.40000152588</ele>
        <time>2016-04-20T14:15:19.000Z</time>
      </trkpt>
      <trkpt lat="43.18381" lon="5.73774">
        <ele>107</ele>
        <time>2016-04-20T14:15:24.000Z</time>
      </trkpt>
      <trkpt lat="43.18392" lon="5.73795">
        <ele>107.59999847412</ele>
        <time>2016-04-20T14:15:28.000Z</time>
      </trkpt>
      <trkpt lat="43.18394" lon="5.738">
        <ele>107.59999847412</ele>
        <time>2016-04-20T14:15:29.000Z</time>
      </trkpt>
      <trkpt lat="43.18398" lon="5.7381">
        <ele>107.80000305176</ele>
        <time>2016-04-20T14:15:31.000Z</time>
      </trkpt>
      <trkpt lat="43.184" lon="5.73815">
        <ele>107.80000305176</ele>
        <time>2016-04-20T14:15:32.000Z</time>
      </trkpt>
      <trkpt lat="43.18406" lon="5.73824">
        <ele>107.80000305176</ele>
        <time>2016-04-20T14:15:34.000Z</time>
      </trkpt>
      <trkpt lat="43.18437" lon="5.73869">
        <ele>107.40000152588</ele>
        <time>2016-04-20T14:15:43.000Z</time>
      </trkpt>
      <trkpt lat="43.18447" lon="5.73883">
        <ele>107.19999694824</ele>
        <time>2016-04-20T14:15:46.000Z</time>
      </trkpt>
      <trkpt lat="43.18463" lon="5.73905">
        <ele>107.19999694824</ele>
        <time>2016-04-20T14:15:51.000Z</time>
      </trkpt>
      <trkpt lat="43.18491" lon="5.73943">
        <ele>107</ele>
        <time>2016-04-20T14:15:59.000Z</time>
      </trkpt>
      <trkpt lat="43.18535" lon="5.73997">
        <ele>107.19999694824</ele>
        <time>2016-04-20T14:16:10.000Z</time>
      </trkpt>
      <trkpt lat="43.18539" lon="5.74002">
        <ele>107.19999694824</ele>
        <time>2016-04-20T14:16:11.000Z</time>
      </trkpt>
      <trkpt lat="43.18577" lon="5.74042">
        <ele>107.19999694824</ele>
        <time>2016-04-20T14:16:20.000Z</time>
      </trkpt>
      <trkpt lat="43.18609" lon="5.74081">
        <ele>107.19999694824</ele>
        <time>2016-04-20T14:16:28.000Z</time>
      </trkpt>
      <trkpt lat="43.18632" lon="5.74129">
        <ele>107.80000305176</ele>
        <time>2016-04-20T14:16:36.000Z</time>
      </trkpt>
      <trkpt lat="43.1865" lon="5.74187">
        <ele>108.59999847412</ele>
        <time>2016-04-20T14:16:45.000Z</time>
      </trkpt>
      <trkpt lat="43.18658" lon="5.74232">
        <ele>109.59999847412</ele>
        <time>2016-04-20T14:16:52.000Z</time>
      </trkpt>
      <trkpt lat="43.18661" lon="5.74255">
        <ele>109.59999847412</ele>
        <time>2016-04-20T14:16:56.000Z</time>
      </trkpt>
      <trkpt lat="43.18665" lon="5.74266">
        <ele>109.40000152588</ele>
        <time>2016-04-20T14:16:58.000Z</time>
      </trkpt>
      <trkpt lat="43.18675" lon="5.7428">
        <ele>109</ele>
        <time>2016-04-20T14:17:01.000Z</time>
      </trkpt>
      <trkpt lat="43.18685" lon="5.74293">
        <ele>108.80000305176</ele>
        <time>2016-04-20T14:17:04.000Z</time>
      </trkpt>
      <trkpt lat="43.18695" lon="5.74304">
        <ele>109</ele>
        <time>2016-04-20T14:17:07.000Z</time>
      </trkpt>
      <trkpt lat="43.1871" lon="5.74315">
        <ele>109.59999847412</ele>
        <time>2016-04-20T14:17:11.000Z</time>
      </trkpt>
      <trkpt lat="43.18726" lon="5.74328">
        <ele>110.19999694824</ele>
        <time>2016-04-20T14:17:16.000Z</time>
      </trkpt>
      <trkpt lat="43.18729" lon="5.74332">
        <ele>110.40000152588</ele>
        <time>2016-04-20T14:17:17.000Z</time>
      </trkpt>
      <trkpt lat="43.18738" lon="5.74343">
        <ele>110.80000305176</ele>
        <time>2016-04-20T14:17:20.000Z</time>
      </trkpt>
      <trkpt lat="43.18749" lon="5.74356">
        <ele>111.40000152588</ele>
        <time>2016-04-20T14:17:23.000Z</time>
      </trkpt>
      <trkpt lat="43.18755" lon="5.74364">
        <ele>111.80000305176</ele>
        <time>2016-04-20T14:17:25.000Z</time>
      </trkpt>
      <trkpt lat="43.18768" lon="5.74381">
        <ele>112.59999847412</ele>
        <time>2016-04-20T14:17:29.000Z</time>
      </trkpt>
      <trkpt lat="43.18781" lon="5.74398">
        <ele>113.40000152588</ele>
        <time>2016-04-20T14:17:33.000Z</time>
      </trkpt>
      <trkpt lat="43.18796" lon="5.74419">
        <ele>114.19999694824</ele>
        <time>2016-04-20T14:17:38.000Z</time>
      </trkpt>
      <trkpt lat="43.18807" lon="5.74437">
        <ele>114.80000305176</ele>
        <time>2016-04-20T14:17:42.000Z</time>
      </trkpt>
      <trkpt lat="43.18816" lon="5.74456">
        <ele>115.40000152588</ele>
        <time>2016-04-20T14:17:46.000Z</time>
      </trkpt>
      <trkpt lat="43.18824" lon="5.74477">
        <ele>116.19999694824</ele>
        <time>2016-04-20T14:17:50.000Z</time>
      </trkpt>
      <trkpt lat="43.18825" lon="5.74483">
        <ele>116.40000152588</ele>
        <time>2016-04-20T14:17:51.000Z</time>
      </trkpt>
      <trkpt lat="43.18831" lon="5.74511">
        <ele>117.40000152588</ele>
        <time>2016-04-20T14:17:56.000Z</time>
      </trkpt>
      <trkpt lat="43.18835" lon="5.74526">
        <ele>118</ele>
        <time>2016-04-20T14:17:59.000Z</time>
      </trkpt>
      <trkpt lat="43.18843" lon="5.74549">
        <ele>118.80000305176</ele>
        <time>2016-04-20T14:18:05.000Z</time>
      </trkpt>
      <trkpt lat="43.1886" lon="5.74577">
        <ele>118.19999694824</ele>
        <time>2016-04-20T14:18:12.000Z</time>
      </trkpt>
      <trkpt lat="43.18875" lon="5.74605">
        <ele>117.19999694824</ele>
        <time>2016-04-20T14:18:17.000Z</time>
      </trkpt>
      <trkpt lat="43.18879" lon="5.74609">
        <ele>117</ele>
        <time>2016-04-20T14:18:18.000Z</time>
      </trkpt>
      <trkpt lat="43.18895" lon="5.74619">
        <ele>116.59999847412</ele>
        <time>2016-04-20T14:18:21.000Z</time>
      </trkpt>
      <trkpt lat="43.18906" lon="5.74627">
        <ele>116.40000152588</ele>
        <time>2016-04-20T14:18:23.000Z</time>
      </trkpt>
      <trkpt lat="43.18934" lon="5.74653">
        <ele>115.19999694824</ele>
        <time>2016-04-20T14:18:29.000Z</time>
      </trkpt>
      <trkpt lat="43.18939" lon="5.74657">
        <ele>115.19999694824</ele>
        <time>2016-04-20T14:18:30.000Z</time>
      </trkpt>
      <trkpt lat="43.18954" lon="5.74672">
        <ele>114.80000305176</ele>
        <time>2016-04-20T14:18:34.000Z</time>
      </trkpt>
      <trkpt lat="43.18958" lon="5.74676">
        <ele>114.80000305176</ele>
        <time>2016-04-20T14:18:35.000Z</time>
      </trkpt>
      <trkpt lat="43.1896" lon="5.74681">
        <ele>114.59999847412</ele>
        <time>2016-04-20T14:18:36.000Z</time>
      </trkpt>
      <trkpt lat="43.18967" lon="5.74696">
        <ele>113.80000305176</ele>
        <time>2016-04-20T14:18:39.000Z</time>
      </trkpt>
      <trkpt lat="43.18974" lon="5.74713">
        <ele>113</ele>
        <time>2016-04-20T14:18:42.000Z</time>
      </trkpt>
      <trkpt lat="43.18988" lon="5.74759">
        <ele>113.19999694824</ele>
        <time>2016-04-20T14:18:49.000Z</time>
      </trkpt>
      <trkpt lat="43.18993" lon="5.74773">
        <ele>113.40000152588</ele>
        <time>2016-04-20T14:18:51.000Z</time>
      </trkpt>
      <trkpt lat="43.19003" lon="5.74794">
        <ele>113.80000305176</ele>
        <time>2016-04-20T14:18:54.000Z</time>
      </trkpt>
      <trkpt lat="43.19011" lon="5.74808">
        <ele>114</ele>
        <time>2016-04-20T14:18:56.000Z</time>
      </trkpt>
      <trkpt lat="43.19029" lon="5.74827">
        <ele>113</ele>
        <time>2016-04-20T14:18:59.000Z</time>
      </trkpt>
      <trkpt lat="43.19037" lon="5.74833">
        <ele>112.40000152588</ele>
        <time>2016-04-20T14:19:00.000Z</time>
      </trkpt>
      <trkpt lat="43.19064" lon="5.74849">
        <ele>111</ele>
        <time>2016-04-20T14:19:03.000Z</time>
      </trkpt>
      <trkpt lat="43.19084" lon="5.74855">
        <ele>110</ele>
        <time>2016-04-20T14:19:05.000Z</time>
      </trkpt>
      <trkpt lat="43.19111" lon="5.74861">
        <ele>109.19999694824</ele>
        <time>2016-04-20T14:19:08.000Z</time>
      </trkpt>
      <trkpt lat="43.19127" lon="5.74869">
        <ele>108.80000305176</ele>
        <time>2016-04-20T14:19:10.000Z</time>
      </trkpt>
      <trkpt lat="43.19134" lon="5.74874">
        <ele>108.59999847412</ele>
        <time>2016-04-20T14:19:11.000Z</time>
      </trkpt>
      <trkpt lat="43.1914" lon="5.74881">
        <ele>108.59999847412</ele>
        <time>2016-04-20T14:19:12.000Z</time>
      </trkpt>
      <trkpt lat="43.19146" lon="5.74888">
        <ele>108.40000152588</ele>
        <time>2016-04-20T14:19:13.000Z</time>
      </trkpt>
      <trkpt lat="43.19152" lon="5.74895">
        <ele>108</ele>
        <time>2016-04-20T14:19:14.000Z</time>
      </trkpt>
      <trkpt lat="43.19163" lon="5.74913">
        <ele>107</ele>
        <time>2016-04-20T14:19:16.000Z</time>
      </trkpt>
      <trkpt lat="43.19166" lon="5.74923">
        <ele>106.40000152588</ele>
        <time>2016-04-20T14:19:17.000Z</time>
      </trkpt>
      <trkpt lat="43.19173" lon="5.74953">
        <ele>104.80000305176</ele>
        <time>2016-04-20T14:19:20.000Z</time>
      </trkpt>
      <trkpt lat="43.19175" lon="5.74964">
        <ele>104.40000152588</ele>
        <time>2016-04-20T14:19:21.000Z</time>
      </trkpt>
      <trkpt lat="43.19179" lon="5.74991">
        <ele>103.19999694824</ele>
        <time>2016-04-20T14:19:24.000Z</time>
      </trkpt>
      <trkpt lat="43.19182" lon="5.74999">
        <ele>103</ele>
        <time>2016-04-20T14:19:25.000Z</time>
      </trkpt>
      <trkpt lat="43.19192" lon="5.7502">
        <ele>103.19999694824</ele>
        <time>2016-04-20T14:19:28.000Z</time>
      </trkpt>
      <trkpt lat="43.19196" lon="5.75026">
        <ele>103.40000152588</ele>
        <time>2016-04-20T14:19:29.000Z</time>
      </trkpt>
      <trkpt lat="43.19203" lon="5.75038">
        <ele>103.80000305176</ele>
        <time>2016-04-20T14:19:31.000Z</time>
      </trkpt>
      <trkpt lat="43.19207" lon="5.75045">
        <ele>103.80000305176</ele>
        <time>2016-04-20T14:19:32.000Z</time>
      </trkpt>
      <trkpt lat="43.19227" lon="5.75079">
        <ele>105.19999694824</ele>
        <time>2016-04-20T14:19:38.000Z</time>
      </trkpt>
      <trkpt lat="43.19248" lon="5.75116">
        <ele>106.80000305176</ele>
        <time>2016-04-20T14:19:45.000Z</time>
      </trkpt>
      <trkpt lat="43.19258" lon="5.7513">
        <ele>107.80000305176</ele>
        <time>2016-04-20T14:19:48.000Z</time>
      </trkpt>
      <trkpt lat="43.19268" lon="5.7515">
        <ele>107.80000305176</ele>
        <time>2016-04-20T14:19:52.000Z</time>
      </trkpt>
      <trkpt lat="43.19271" lon="5.75155">
        <ele>107.80000305176</ele>
        <time>2016-04-20T14:19:53.000Z</time>
      </trkpt>
      <trkpt lat="43.19285" lon="5.75179">
        <ele>107.40000152588</ele>
        <time>2016-04-20T14:19:58.000Z</time>
      </trkpt>
      <trkpt lat="43.19291" lon="5.75188">
        <ele>107.40000152588</ele>
        <time>2016-04-20T14:20:00.000Z</time>
      </trkpt>
      <trkpt lat="43.19296" lon="5.75194">
        <ele>107.59999847412</ele>
        <time>2016-04-20T14:20:02.000Z</time>
      </trkpt>
      <trkpt lat="43.19306" lon="5.752">
        <ele>108</ele>
        <time>2016-04-20T14:20:05.000Z</time>
      </trkpt>
      <trkpt lat="43.19313" lon="5.75203">
        <ele>108.40000152588</ele>
        <time>2016-04-20T14:20:07.000Z</time>
      </trkpt>
      <trkpt lat="43.19328" lon="5.75207">
        <ele>109.40000152588</ele>
        <time>2016-04-20T14:20:11.000Z</time>
      </trkpt>
      <trkpt lat="43.19332" lon="5.75209">
        <ele>109.59999847412</ele>
        <time>2016-04-20T14:20:12.000Z</time>
      </trkpt>
      <trkpt lat="43.19346" lon="5.75217">
        <ele>110.40000152588</ele>
        <time>2016-04-20T14:20:16.000Z</time>
      </trkpt>
      <trkpt lat="43.19352" lon="5.75224">
        <ele>111</ele>
        <time>2016-04-20T14:20:18.000Z</time>
      </trkpt>
      <trkpt lat="43.19355" lon="5.75227">
        <ele>111.40000152588</ele>
        <time>2016-04-20T14:20:19.000Z</time>
      </trkpt>
      <trkpt lat="43.19365" lon="5.75238">
        <ele>112.80000305176</ele>
        <time>2016-04-20T14:20:22.000Z</time>
      </trkpt>
      <trkpt lat="43.19374" lon="5.75248">
        <ele>114.19999694824</ele>
        <time>2016-04-20T14:20:25.000Z</time>
      </trkpt>
      <trkpt lat="43.19386" lon="5.75262">
        <ele>115.80000305176</ele>
        <time>2016-04-20T14:20:29.000Z</time>
      </trkpt>
      <trkpt lat="43.19398" lon="5.75277">
        <ele>117.59999847412</ele>
        <time>2016-04-20T14:20:33.000Z</time>
      </trkpt>
      <trkpt lat="43.19408" lon="5.75291">
        <ele>119</ele>
        <time>2016-04-20T14:20:37.000Z</time>
      </trkpt>
      <trkpt lat="43.19415" lon="5.75302">
        <ele>119.80000305176</ele>
        <time>2016-04-20T14:20:40.000Z</time>
      </trkpt>
      <trkpt lat="43.19417" lon="5.75306">
        <ele>120.19999694824</ele>
        <time>2016-04-20T14:20:41.000Z</time>
      </trkpt>
      <trkpt lat="43.19426" lon="5.75322">
        <ele>121.59999847412</ele>
        <time>2016-04-20T14:20:45.000Z</time>
      </trkpt>
      <trkpt lat="43.19433" lon="5.75334">
        <ele>122.59999847412</ele>
        <time>2016-04-20T14:20:48.000Z</time>
      </trkpt>
      <trkpt lat="43.19437" lon="5.75341">
        <ele>123.19999694824</ele>
        <time>2016-04-20T14:20:50.000Z</time>
      </trkpt>
      <trkpt lat="43.19444" lon="5.75356">
        <ele>124.40000152588</ele>
        <time>2016-04-20T14:20:54.000Z</time>
      </trkpt>
      <trkpt lat="43.19449" lon="5.75362">
        <ele>125</ele>
        <time>2016-04-20T14:20:56.000Z</time>
      </trkpt>
      <trkpt lat="43.19455" lon="5.75364">
        <ele>125.80000305176</ele>
        <time>2016-04-20T14:20:58.000Z</time>
      </trkpt>
      <trkpt lat="43.19458" lon="5.75364">
        <ele>126.19999694824</ele>
        <time>2016-04-20T14:20:59.000Z</time>
      </trkpt>
      <trkpt lat="43.19461" lon="5.75364">
        <ele>126.80000305176</ele>
        <time>2016-04-20T14:21:00.000Z</time>
      </trkpt>
      <trkpt lat="43.19467" lon="5.75366">
        <ele>127.59999847412</ele>
        <time>2016-04-20T14:21:02.000Z</time>
      </trkpt>
      <trkpt lat="43.19473" lon="5.75367">
        <ele>128.39999389648</ele>
        <time>2016-04-20T14:21:04.000Z</time>
      </trkpt>
      <trkpt lat="43.19479" lon="5.75368">
        <ele>129.39999389648</ele>
        <time>2016-04-20T14:21:06.000Z</time>
      </trkpt>
      <trkpt lat="43.19491" lon="5.75368">
        <ele>131</ele>
        <time>2016-04-20T14:21:10.000Z</time>
      </trkpt>
      <trkpt lat="43.19497" lon="5.75367">
        <ele>131.80000305176</ele>
        <time>2016-04-20T14:21:12.000Z</time>
      </trkpt>
      <trkpt lat="43.19502" lon="5.75367">
        <ele>132.60000610352</ele>
        <time>2016-04-20T14:21:14.000Z</time>
      </trkpt>
      <trkpt lat="43.19512" lon="5.75367">
        <ele>134</ele>
        <time>2016-04-20T14:21:18.000Z</time>
      </trkpt>
      <trkpt lat="43.19521" lon="5.75367">
        <ele>135.60000610352</ele>
        <time>2016-04-20T14:21:39.000Z</time>
      </trkpt>
      <trkpt lat="43.19522" lon="5.75367">
        <ele>135.60000610352</ele>
        <time>2016-04-20T14:21:40.000Z</time>
      </trkpt>
      <trkpt lat="43.19522" lon="5.75364">
        <ele>135.80000305176</ele>
        <time>2016-04-20T14:21:41.000Z</time>
      </trkpt>
      <trkpt lat="43.19527" lon="5.75336">
        <ele>136.39999389648</ele>
        <time>2016-04-20T14:21:48.000Z</time>
      </trkpt>
      <trkpt lat="43.19528" lon="5.75326">
        <ele>136.39999389648</ele>
        <time>2016-04-20T14:21:50.000Z</time>
      </trkpt>
      <trkpt lat="43.19532" lon="5.75299">
        <ele>137.60000610352</ele>
        <time>2016-04-20T14:21:56.000Z</time>
      </trkpt>
      <trkpt lat="43.19536" lon="5.75272">
        <ele>137.80000305176</ele>
        <time>2016-04-20T14:22:02.000Z</time>
      </trkpt>
      <trkpt lat="43.19539" lon="5.75248">
        <ele>137.80000305176</ele>
        <time>2016-04-20T14:22:07.000Z</time>
      </trkpt>
      <trkpt lat="43.19541" lon="5.75229">
        <ele>138.60000610352</ele>
        <time>2016-04-20T14:22:11.000Z</time>
      </trkpt>
      <trkpt lat="43.19542" lon="5.7522">
        <ele>139</ele>
        <time>2016-04-20T14:22:13.000Z</time>
      </trkpt>
      <trkpt lat="43.19547" lon="5.75202">
        <ele>140.60000610352</ele>
        <time>2016-04-20T14:22:17.000Z</time>
      </trkpt>
      <trkpt lat="43.1955" lon="5.75199">
        <ele>141.19999694824</ele>
        <time>2016-04-20T14:22:18.000Z</time>
      </trkpt>
      <trkpt lat="43.19559" lon="5.75198">
        <ele>144</ele>
        <time>2016-04-20T14:22:21.000Z</time>
      </trkpt>
      <trkpt lat="43.19562" lon="5.752">
        <ele>144.60000610352</ele>
        <time>2016-04-20T14:22:22.000Z</time>
      </trkpt>
      <trkpt lat="43.19566" lon="5.75208">
        <ele>145.39999389648</ele>
        <time>2016-04-20T14:22:24.000Z</time>
      </trkpt>
      <trkpt lat="43.19567" lon="5.75217">
        <ele>145.80000305176</ele>
        <time>2016-04-20T14:22:26.000Z</time>
      </trkpt>
      <trkpt lat="43.19569" lon="5.75236">
        <ele>145.80000305176</ele>
        <time>2016-04-20T14:22:30.000Z</time>
      </trkpt>
      <trkpt lat="43.19569" lon="5.75241">
        <ele>146</ele>
        <time>2016-04-20T14:22:31.000Z</time>
      </trkpt>
      <trkpt lat="43.1957" lon="5.7525">
        <ele>146.19999694824</ele>
        <time>2016-04-20T14:22:33.000Z</time>
      </trkpt>
      <trkpt lat="43.19572" lon="5.75271">
        <ele>146.39999389648</ele>
        <time>2016-04-20T14:22:38.000Z</time>
      </trkpt>
      <trkpt lat="43.19576" lon="5.75301">
        <ele>147.60000610352</ele>
        <time>2016-04-20T14:22:44.000Z</time>
      </trkpt>
      <trkpt lat="43.19576" lon="5.75311">
        <ele>147.39999389648</ele>
        <time>2016-04-20T14:22:46.000Z</time>
      </trkpt>
      <trkpt lat="43.19577" lon="5.75327">
        <ele>147.39999389648</ele>
        <time>2016-04-20T14:22:49.000Z</time>
      </trkpt>
      <trkpt lat="43.19581" lon="5.75346">
        <ele>147.80000305176</ele>
        <time>2016-04-20T14:22:53.000Z</time>
      </trkpt>
      <trkpt lat="43.1959" lon="5.75366">
        <ele>149.39999389648</ele>
        <time>2016-04-20T14:22:58.000Z</time>
      </trkpt>
      <trkpt lat="43.19592" lon="5.75369">
        <ele>149.80000305176</ele>
        <time>2016-04-20T14:22:59.000Z</time>
      </trkpt>
      <trkpt lat="43.19602" lon="5.75381">
        <ele>151.60000610352</ele>
        <time>2016-04-20T14:23:03.000Z</time>
      </trkpt>
      <trkpt lat="43.19607" lon="5.75391">
        <ele>152.80000305176</ele>
        <time>2016-04-20T14:23:06.000Z</time>
      </trkpt>
      <trkpt lat="43.19615" lon="5.75402">
        <ele>154.60000610352</ele>
        <time>2016-04-20T14:23:10.000Z</time>
      </trkpt>
      <trkpt lat="43.19619" lon="5.75408">
        <ele>155.39999389648</ele>
        <time>2016-04-20T14:23:12.000Z</time>
      </trkpt>
      <trkpt lat="43.19623" lon="5.75419">
        <ele>156.19999694824</ele>
        <time>2016-04-20T14:23:15.000Z</time>
      </trkpt>
      <trkpt lat="43.19624" lon="5.75426">
        <ele>156.19999694824</ele>
        <time>2016-04-20T14:23:17.000Z</time>
      </trkpt>
      <trkpt lat="43.19625" lon="5.75451">
        <ele>155.39999389648</ele>
        <time>2016-04-20T14:23:22.000Z</time>
      </trkpt>
      <trkpt lat="43.19625" lon="5.75495">
        <ele>153.39999389648</ele>
        <time>2016-04-20T14:23:28.000Z</time>
      </trkpt>
      <trkpt lat="43.19623" lon="5.75537">
        <ele>153.19999694824</ele>
        <time>2016-04-20T14:23:33.000Z</time>
      </trkpt>
      <trkpt lat="43.19623" lon="5.75553">
        <ele>153.39999389648</ele>
        <time>2016-04-20T14:23:35.000Z</time>
      </trkpt>
      <trkpt lat="43.19628" lon="5.75588">
        <ele>151.60000610352</ele>
        <time>2016-04-20T14:23:40.000Z</time>
      </trkpt>
      <trkpt lat="43.19633" lon="5.75611">
        <ele>152.39999389648</ele>
        <time>2016-04-20T14:23:45.000Z</time>
      </trkpt>
      <trkpt lat="43.19635" lon="5.75616">
        <ele>152.39999389648</ele>
        <time>2016-04-20T14:23:46.000Z</time>
      </trkpt>
      <trkpt lat="43.19638" lon="5.75636">
        <ele>152.80000305176</ele>
        <time>2016-04-20T14:23:51.000Z</time>
      </trkpt>
      <trkpt lat="43.19646" lon="5.75666">
        <ele>151</ele>
        <time>2016-04-20T14:23:58.000Z</time>
      </trkpt>
      <trkpt lat="43.19654" lon="5.75692">
        <ele>149.39999389648</ele>
        <time>2016-04-20T14:24:04.000Z</time>
      </trkpt>
      <trkpt lat="43.19664" lon="5.75721">
        <ele>148.39999389648</ele>
        <time>2016-04-20T14:24:11.000Z</time>
      </trkpt>
      <trkpt lat="43.19667" lon="5.75723">
        <ele>148.39999389648</ele>
        <time>2016-04-20T14:24:12.000Z</time>
      </trkpt>
      <trkpt lat="43.19676" lon="5.75726">
        <ele>149</ele>
        <time>2016-04-20T14:24:15.000Z</time>
      </trkpt>
      <trkpt lat="43.19685" lon="5.75727">
        <ele>147.39999389648</ele>
        <time>2016-04-20T14:24:19.000Z</time>
      </trkpt>
      <trkpt lat="43.1969" lon="5.75745">
        <ele>143.60000610352</ele>
        <time>2016-04-20T14:24:23.000Z</time>
      </trkpt>
      <trkpt lat="43.1969" lon="5.75752">
        <ele>142.39999389648</ele>
        <time>2016-04-20T14:24:24.000Z</time>
      </trkpt>
      <trkpt lat="43.19684" lon="5.75767">
        <ele>141.39999389648</ele>
        <time>2016-04-20T14:24:27.000Z</time>
      </trkpt>
      <trkpt lat="43.19678" lon="5.75777">
        <ele>141.19999694824</ele>
        <time>2016-04-20T14:24:29.000Z</time>
      </trkpt>
      <trkpt lat="43.19671" lon="5.75787">
        <ele>139</ele>
        <time>2016-04-20T14:24:31.000Z</time>
      </trkpt>
      <trkpt lat="43.19669" lon="5.75792">
        <ele>137.80000305176</ele>
        <time>2016-04-20T14:24:32.000Z</time>
      </trkpt>
      <trkpt lat="43.19666" lon="5.75797">
        <ele>137.19999694824</ele>
        <time>2016-04-20T14:24:33.000Z</time>
      </trkpt>
      <trkpt lat="43.19665" lon="5.75801">
        <ele>136.60000610352</ele>
        <time>2016-04-20T14:24:34.000Z</time>
      </trkpt>
      <trkpt lat="43.19663" lon="5.75804">
        <ele>136.19999694824</ele>
        <time>2016-04-20T14:24:35.000Z</time>
      </trkpt>
      <trkpt lat="43.19659" lon="5.75809">
        <ele>135.80000305176</ele>
        <time>2016-04-20T14:24:37.000Z</time>
      </trkpt>
      <trkpt lat="43.19657" lon="5.75812">
        <ele>135.60000610352</ele>
        <time>2016-04-20T14:24:39.000Z</time>
      </trkpt>
      <trkpt lat="43.19654" lon="5.75814">
        <ele>135.19999694824</ele>
        <time>2016-04-20T14:24:41.000Z</time>
      </trkpt>
      <trkpt lat="43.1965" lon="5.75815">
        <ele>135</ele>
        <time>2016-04-20T14:24:54.000Z</time>
      </trkpt>
      <trkpt lat="43.19645" lon="5.75816">
        <ele>134.60000610352</ele>
        <time>2016-04-20T14:24:57.000Z</time>
      </trkpt>
      <trkpt lat="43.19638" lon="5.75817">
        <ele>134.39999389648</ele>
        <time>2016-04-20T14:25:02.000Z</time>
      </trkpt>
      <trkpt lat="43.19643" lon="5.75815">
        <ele>134.60000610352</ele>
        <time>2016-04-20T14:26:25.000Z</time>
      </trkpt>
      <trkpt lat="43.1965" lon="5.75806">
        <ele>135.60000610352</ele>
        <time>2016-04-20T14:26:48.000Z</time>
      </trkpt>
      <trkpt lat="43.19649" lon="5.75804">
        <ele>135.60000610352</ele>
        <time>2016-04-20T14:26:49.000Z</time>
      </trkpt>
      <trkpt lat="43.19644" lon="5.75795">
        <ele>136.19999694824</ele>
        <time>2016-04-20T14:26:52.000Z</time>
      </trkpt>
      <trkpt lat="43.19643" lon="5.75792">
        <ele>136.60000610352</ele>
        <time>2016-04-20T14:26:53.000Z</time>
      </trkpt>
      <trkpt lat="43.1963" lon="5.75769">
        <ele>138</ele>
        <time>2016-04-20T14:27:00.000Z</time>
      </trkpt>
      <trkpt lat="43.19617" lon="5.75744">
        <ele>139.80000305176</ele>
        <time>2016-04-20T14:27:07.000Z</time>
      </trkpt>
      <trkpt lat="43.1961" lon="5.75731">
        <ele>141</ele>
        <time>2016-04-20T14:27:12.000Z</time>
      </trkpt>
      <trkpt lat="43.19598" lon="5.75732">
        <ele>140</ele>
        <time>2016-04-20T14:27:18.000Z</time>
      </trkpt>
      <trkpt lat="43.19584" lon="5.7574">
        <ele>137</ele>
        <time>2016-04-20T14:27:24.000Z</time>
      </trkpt>
      <trkpt lat="43.19582" lon="5.75741">
        <ele>136.60000610352</ele>
        <time>2016-04-20T14:27:25.000Z</time>
      </trkpt>
    </trkseg>
  </trk>
</gpx>